GFSSGP_850_dewp_000.txt.gz
Dewpoint
-27 -11 -12 -10 -8 -10 -9 -10 -11 -10 -9 -0 -0 5 7 8 10 13 13 13 14 13 13 6 5 4 3 3 5 8 11 11 12 12 12 13 13 13 12 10 7 8 9 8 12 12 12 11 9
-26 -9 -14 -11 -8 -8 -7 -10 -10 -12 -12 -6 -1 3 10 9 10 12 14 14 13 13 13 10 7 6 3 -1 -4 3 9 11 12 8 6 12 13 12 12 9 7 7 8 5 8 10 13 11 11
-24 -9 -15 -11 -9 -6 -4 -10 -11 -14 -11 -7 -2 7 7 10 10 11 13 14 14 13 12 7 7 6 4 3 0 -3 1 6 9 9 12 12 12 12 12 11 10 8 9 7 10 12 13 12 12
-12 -13 -15 -11 -11 -11 -9 -11 -12 -13 -9 -8 -4 8 12 11 10 12 12 13 13 13 7 5 5 3 4 3 4 3 -0 -5 -5 -2 5 9 11 11 11 11 10 7 7 8 11 11 8 12 11
-14 -14 -12 -13 -13 -15 -13 -13 -11 -11 -4 -3 -1 11 11 12 13 12 12 12 12 5 3 4 4 4 4 5 5 6 5 3 2 1 -0 -3 -3 0 7 9 12 12 11 11 8 8 6 10 7
-15 -16 -12 -12 -13 -15 -13 -11 -8 -6 -3 -1 7 8 10 12 12 12 11 10 11 12 10 7 7 6 6 5 5 6 7 6 5 4 5 6 1 -2 -1 4 7 7 8 6 4 7 9 8 9
-15 -12 -13 -14 -14 -15 -15 -15 -12 -11 -5 -4 3 10 9 7 12 11 10 10 10 11 12 12 12 11 10 10 8 5 5 5 5 5 4 6 6 6 5 2 1 -1 -3 2 9 10 11 10 7
-16 -16 -16 -16 -14 -14 -16 -14 -12 -12 -12 -13 -11 0 9 9 11 11 11 10 11 11 11 11 11 12 12 11 10 4 5 5 5 5 5 5 6 6 7 8 6 7 5 4 9 10 10 10 10
-16 -14 -15 -15 -14 -15 -17 -16 -11 -10 -11 -9 -8 -3 7 10 10 10 10 9 9 9 9 10 11 12 12 11 9 8 11 10 8 7 5 9 10 6 5 5 8 8 8 8 7 8 8 8 8
-13 -12 -13 -15 -16 -14 -16 -16 -14 -13 -12 -9 -5 -2 3 7 8 7 6 6 7 6 5 6 1 4 5 10 8 11 11 11 11 11 6 11 10 6 2 3 5 3 4 8 9 9 8 7 7
-11 -12 -14 -12 -10 -14 -13 -14 -12 -13 -12 -8 -8 -3 0 3 3 4 3 3 3 3 4 3 0 -2 7 11 10 10 10 8 10 8 9 6 -1 -4 -3 -7 2 -2 -5 1 4 6 2 8 7
-9 -11 -10 -8 -9 -9 -8 -8 -9 -10 -10 -7 -6 -5 -1 1 2 3 2 1 1 1 2 1 -3 -4 -1 8 9 9 9 8 9 4 -6 -2 -4 -11 -16 -14 -15 -13 -9 -5 -8 -9 -0 4 6
-8 -8 -7 -6 -6 -7 -7 -8 -8 -9 -9 -7 -7 -2 -1 -1 1 1 -0 -2 -1 -0 1 1 -4 -4 -2 6 6 7 6 3 1 -4 -4 -2 3 -5 -3 -7 -8 -8 -6 -5 -4 -5 -1 -0 2
-6 -6 -6 -6 -7 -8 -7 -9 -10 -11 -9 -7 -6 -3 -2 -2 -1 -2 -2 -3 -2 -1 -1 -1 -2 0 1 7 4 1 -1 -5 -6 -4 -8 -10 -5 -8 3 3 1 -2 -7 -5 1 3 3 3 2
-6 -5 -5 -6 -9 -11 -8 -10 -11 -9 -7 -7 -7 -5 -4 -4 -4 -4 -4 -3 -3 -2 -2 -0 -1 1 -1 2 0 -2 -1 -3 -2 -3 -11 -10 -9 -12 -11 -5 2 3 -11 -13 -16 -12 -4 2 4
-5 -6 -9 -11 -10 -9 -10 -9 -12 -11 -10 -9 -8 -7 -6 -5 -5 -5 -4 -4 -3 -2 -2 -2 -3 -3 -4 -2 -1 -3 -2 -4 -1 1 -4 -10 -11 -11 -8 -1 -3 -10 -2 -1 -8 -14 -18 -10 -0
-7 -7 -7 -7 -11 -11 -10 -9 -11 -11 -12 -11 -9 -9 -8 -6 -5 -5 -5 -4 -3 -3 -3 -3 -3 -6 -3 -3 -3 -3 -3 -4 -1 2 -0 -6 -9 -10 -5 -3 -5 -8 -4 -3 -4 -6 -6 -9 -12
-4 -4 -5 -4 -7 -7 -6 -5 -8 -9 -10 -11 -10 -10 -9 -9 -8 -6 -5 -5 -4 -3 -3 -4 -4 -4 -4 -3 -5 -3 -4 -4 -3 -2 -1 -2 -3 -7 -7 -3 -3 -4 -3 -3 -2 -4 -4 -4 -4
-6 -5 -5 -5 -8 -6 -5 -5 -7 -10 -11 -10 -9 -8 -7 -7 -7 -7 -5 -4 -4 -3 -3 -3 -4 -4 -4 -4 -4 -5 -4 -3 -3 -3 -3 -2 -2 -3 -4 -4 -4 -4 -4 -3 -3 -3 -3 -3 -4
-8 -6 -3 -5 -6 -4 -4 -4 -7 -9 -8 -9 -9 -7 -6 -6 -5 -5 -4 -3 -3 -2 -3 -3 -4 -4 -4 -4 -5 -5 -5 -4 -4 -3 -3 -3 -3 -3 -3 -3 -4 -4 -4 -4 -4 -3 -3 -3 -4
-6 -2 -2 -2 -3 -5 -5 -6 -7 -8 -8 -8 -6 -5 -6 -5 -5 -5 -4 -3 -3 -2 -1 -2 -3 -4 -4 -4 -4 -5 -5 -5 -5 -5 -4 -3 -5 -2 -2 -2 -2 -3 -3 -3 -3 -4 -4 -3 -3
-3 -4 -2 -1 -0 1 -3 -2 -7 -7 -7 -7 -6 -5 -5 -4 -4 -4 -4 -4 -3 -3 -2 -1 -2 -3 -4 -5 -5 -5 -6 -5 -6 -7 -7 -6 -4 -2 -2 -2 -3 -3 -4 -4 -4 -4 -4 -3 -3
-2 -3 -1 -1 0 -0 -2 -3 -5 -7 -7 -7 -6 -6 -5 -4 -4 -3 -4 -4 -3 -3 -3 -2 -2 -2 -2 -3 -4 -5 -5 -6 -6 -5 -6 -6 -5 -5 -4 -3 -3 -3 -4 -4 -5 -5 -8 -6 -4
-3 -1 -1 -1 0 6 0 -0 -2 -5 -6 -8 -7 -6 -5 -4 -3 -3 -3 -3 -3 -3 -3 -3 -1 -1 -1 -2 -3 -4 -5 -5 -5 -5 -5 -5 -5 -5 -5 -5 -5 -5 -4 -4 -6 -8 -6 -6 -8
-1 1 8 11 11 9 -1 -0 -1 -3 -6 -7 -6 -6 -5 -4 -3 -2 -2 -2 -2 -2 -2 -2 -2 -1 -1 -1 -1 -3 -4 -5 -5 -5 -4 -5 -5 -5 -6 -7 -6 -6 -6 -10 -14 -14 -15 -14 -11
0 1 8 8 8 6 0 1 -3 -7 -7 -7 -6 -5 -4 -3 -2 -2 -1 -1 -1 -1 -1 -1 -1 -2 -2 -2 -2 -2 -3 -4 -4 -4 -3 -4 -5 -6 -5 -7 -7 -12 -12 -13 -13 -14 -13 -14 -10
0 4 1 5 8 7 4 1 -2 -5 -6 -5 -4 -4 -3 -3 -2 -1 -1 -1 -1 -1 0 0 0 -0 -1 -1 -1 -2 -4 -3 -4 -3 -4 -5 -7 -8 -9 -8 -10 -8 -13 -12 -11 -11 -11 -8 -8
0 -0 5 7 10 7 3 3 1 -1 -0 -1 -1 -2 -1 -1 -1 -1 -1 -1 -1 0 0 -0 -1 -1 -2 -2 -2 -2 -4 -3 -2 -4 -6 -6 -6 -5 -6 -7 -8 -13 -14 -14 -13 -10 -9 -8 -8
1 3 4 2 5 8 9 4 0 1 0 -0 -2 -1 -1 -1 -1 -1 -1 -1 0 0 0 -1 -2 -3 -4 -3 -2 -3 -4 -3 -4 -6 -7 -4 -5 -5 -4 -6 -13 -14 -13 -13 -11 -10 -9 -9 -9
-1 1 2 8 7 6 8 6 -0 -0 -1 -1 -1 -2 -2 -1 -2 -2 -2 -1 0 1 1 -1 -1 -4 -4 -4 -4 -5 -5 -6 -7 -8 -7 -5 -5 -4 -8 -10 -10 -10 -10 -10 -10 -10 -10 -10 -10

GFSSGP_850_dewp_003.txt.gz
Dewpoint
-26 -14 -13 -10 -7 -7 -7 -9 -11 -9 -7 0 7 9 11 11 11 14 13 13 13 13 11 5 3 2 2 2 5 8 10 11 12 11 12 13 14 13 13 12 10 7 5 5 4 9 12 12 11
-26 -15 -14 -11 -6 -5 -6 -11 -11 -11 -9 0 7 6 9 12 13 14 13 12 13 13 13 6 4 2 -1 -4 -3 2 6 9 10 3 2 9 12 12 12 11 10 7 7 5 7 10 10 10 12
-20 -12 -13 -9 -7 -6 -7 -10 -12 -11 -10 -7 7 9 10 11 11 13 13 12 12 11 7 5 4 3 2 1 -1 -2 -2 -0 4 2 9 10 11 12 11 11 10 10 8 9 9 8 9 6 7
-12 -11 -13 -11 -11 -12 -11 -11 -11 -10 -8 3 9 11 11 11 12 13 13 11 13 7 3 3 2 1 3 3 2 2 1 -2 -2 -2 -2 -0 2 6 7 7 7 10 9 9 9 10 11 6 7
-12 -12 -11 -11 -13 -13 -12 -13 -10 -2 6 8 6 8 8 9 12 12 13 12 9 5 4 4 4 3 1 0 1 3 4 4 3 3 4 3 0 -2 -2 1 5 9 9 8 8 10 10 9 5
-14 -14 -12 -10 -13 -14 -15 -16 -13 -7 -0 5 8 9 10 8 7 10 11 12 12 10 9 9 8 8 4 4 3 4 4 4 4 4 4 5 5 5 4 3 4 8 10 10 8 5 4 7 5
-14 -12 -10 -13 -13 -14 -15 -16 -13 -11 -9 -2 2 8 11 10 10 11 10 10 10 11 9 11 10 11 9 6 8 3 3 4 4 5 5 4 5 6 7 7 6 4 5 5 5 4 7 8 8
-17 -14 -14 -15 -13 -14 -17 -15 -13 -12 -13 -10 -2 7 7 8 11 11 10 11 11 11 12 11 11 11 10 5 8 6 8 8 7 5 6 5 4 4 4 6 8 8 8 6 6 8 6 8 10
-16 -12 -11 -13 -14 -14 -17 -15 -11 -13 -12 -10 -6 6 2 2 10 10 7 8 10 9 7 7 12 9 6 7 9 7 10 8 8 7 6 6 6 1 1 -1 2 5 6 6 7 9 9 9 9
-11 -12 -14 -12 -12 -13 -13 -15 -14 -14 -14 -8 -4 5 9 9 7 8 7 6 10 7 6 2 -1 1 2 11 9 8 10 9 6 4 2 1 -3 -4 -7 -10 -5 -3 -6 -5 -0 6 8 7 6
-11 -10 -9 -9 -10 -11 -11 -9 -11 -12 -11 -6 -5 -0 4 7 7 4 5 7 6 5 3 1 -2 -3 1 10 9 9 10 8 9 5 1 4 1 -3 -11 -17 -13 -6 -19 -5 1 3 7 8 8
-8 -9 -7 -9 -8 -8 -7 -8 -8 -10 -10 -9 -7 -1 -0 1 2 4 3 3 2 1 1 1 -1 -4 -1 5 5 9 9 7 4 2 -7 -7 -6 -9 -18 -13 -15 -13 -10 -6 -4 -5 -3 -1 -1
-7 -8 -7 -7 -7 -7 -7 -8 -8 -9 -10 -8 -8 -5 -2 -0 1 2 2 -0 -1 0 0 1 -1 -5 -4 -0 6 9 8 6 5 4 -4 -4 -3 -3 -7 -6 -7 -7 -9 -9 -8 -7 -6 -6 -2
-5 -6 -6 -6 -6 -7 -7 -7 -7 -10 -11 -7 -7 -5 -3 -2 -1 -0 0 -0 -1 -2 -2 -1 -2 -5 -6 -4 -4 1 3 3 1 -4 -7 -6 -5 -2 -4 -1 -6 -6 -6 -9 -11 -11 -9 -7 -5
-5 -5 -5 -6 -7 -11 -10 -9 -10 -11 -9 -7 -7 -6 -5 -4 -3 -2 -2 -3 -3 -3 -2 -2 -2 -3 -3 -2 -2 -0 -2 -4 -7 -8 -7 -8 -9 -8 -8 -3 -2 -6 -5 -11 -10 -12 -14 -14 -10
-4 -4 -4 -5 -7 -8 -10 -8 -11 -11 -8 -7 -8 -8 -6 -5 -5 -4 -4 -4 -4 -3 -2 -2 -3 -3 -3 -3 -2 -2 -3 -3 -4 -5 -5 -4 -7 -10 -8 -6 -6 -6 -11 -9 -8 -9 -9 -11 -14
-5 -3 -4 -4 -9 -9 -10 -7 -7 -8 -9 -9 -8 -8 -8 -6 -5 -5 -5 -4 -4 -4 -3 -3 -3 -3 -5 -6 -2 -0 -2 -2 -3 -2 -5 -3 -5 -9 -7 -2 -4 -4 -5 -4 -5 -5 -7 -8 -8
-3 -4 -4 -3 -7 -7 -6 -5 -7 -7 -8 -8 -8 -7 -7 -6 -5 -5 -5 -5 -4 -4 -4 -3 -3 -4 -4 -5 -4 -4 -3 -3 -4 -1 1 -3 -4 -6 -8 -2 -3 -3 -4 -3 -4 -6 -7 -5 -4
-5 -5 -4 -4 -5 -4 -4 -4 -6 -8 -9 -8 -7 -7 -6 -6 -5 -4 -4 -5 -4 -4 -4 -4 -4 -4 -5 -5 -5 -5 -5 -6 -6 -3 -3 -2 -1 -3 -5 -4 -3 -4 -4 -4 -4 -5 -4 -6 -7
-5 -3 -1 -3 -3 -2 -3 -3 -5 -8 -8 -8 -6 -6 -5 -5 -5 -4 -3 -3 -3 -3 -3 -4 -5 -4 -4 -4 -5 -4 -5 -5 -5 -5 -3 -3 -3 -3 -3 -5 -4 -4 -4 -4 -5 -4 -3 -4 -4
-4 -1 -1 -0 -1 -2 -2 -2 -6 -7 -8 -6 -6 -6 -6 -5 -5 -5 -5 -4 -4 -3 -3 -3 -3 -4 -3 -4 -4 -4 -4 -5 -5 -4 -3 -3 -3 -3 -3 -3 -3 -3 -3 -4 -4 -4 -5 -4 -2
-2 -2 -1 0 1 2 -2 1 -5 -6 -6 -5 -6 -5 -4 -4 -4 -4 -4 -4 -4 -3 -3 -3 -3 -3 -3 -3 -3 -4 -4 -5 -5 -6 -6 -5 -5 -5 -4 -2 -2 -3 -4 -5 -5 -5 -4 -4 -5
-1 -2 -0 1 2 1 0 0 -5 -5 -5 -5 -4 -4 -4 -4 -3 -3 -3 -3 -3 -3 -3 -3 -3 -2 -2 -2 -2 -3 -3 -4 -5 -5 -5 -5 -5 -5 -2 -2 -2 -2 -3 -3 -3 -4 -5 -5 -11
-2 1 2 3 2 5 1 1 -0 -3 -5 -5 -4 -4 -4 -3 -3 -3 -2 -2 -2 -2 -1 -1 -1 -1 -1 -1 -1 -2 -2 -3 -4 -5 -5 -5 -5 -4 -3 -4 -4 -4 -4 -4 -4 -4 -6 -12 -11
-0 3 6 6 6 6 0 1 0 -2 -5 -4 -4 -5 -5 -4 -3 -2 -2 -1 -1 -1 -1 -0 -0 0 0 -0 -0 -1 -1 -2 -2 -3 -5 -5 -5 -5 -5 -6 -6 -5 -5 -5 -4 -5 -8 -8 -14
1 2 6 7 6 6 2 3 -1 -4 -6 -6 -6 -4 -3 -2 -2 -1 -1 -1 -0 -0 -0 -0 0 -0 -1 -2 -1 -1 -1 -1 -1 -2 -5 -5 -5 -5 -5 -5 -4 -5 -8 -4 -4 -4 -11 -14 -12
2 5 1 4 3 4 5 2 -2 -3 -1 -1 -2 -2 -1 -0 -1 -1 -1 -0 -0 -0 0 0 -0 -1 -2 -3 -3 -3 -3 -3 -1 -3 -3 -4 -5 -6 -6 -5 -8 -7 -4 -2 -9 -11 -15 -13 -12
0 0 5 5 7 8 4 4 3 1 0 -0 -1 -1 -1 -1 -1 -1 -0 -1 -0 -0 -0 -0 -0 -0 -2 -3 -4 -5 -5 -3 -2 -3 -4 -5 -5 -5 -4 -3 -2 -2 -7 -10 -12 -16 -13 -11 -10
1 3 3 4 5 9 9 6 1 1 0 1 -2 -1 -1 -1 -2 -1 -1 0 1 1 1 1 -0 -2 -2 -5 -6 -6 -5 -4 -3 -4 -6 -6 -2 -5 -5 -4 -6 -8 -9 -10 -12 -11 -10 -10 -10
-1 3 3 7 8 5 6 7 0 0 -0 -1 0 -1 -1 -1 -1 -0 0 0 0 0 0 0 -1 -0 -3 -6 -6 -5 -5 -5 -5 -7 -8 -9 -8 -6 -5 -7 -8 -9 -9 -9 -9 -10 -10 -10 -10

GFSSGP_850_dewp_006.txt.gz
Dewpoint
-23 -15 -13 -9 -8 -9 -8 -10 -11 -8 -2 10 10 9 10 11 11 13 13 14 12 7 5 4 3 2 2 3 6 7 9 11 11 10 11 12 13 12 11 10 8 10 8 6 4 2 5 7 8
-24 -13 -13 -11 -7 -6 -7 -10 -10 -9 8 7 10 11 12 14 12 12 12 13 12 9 9 4 2 -0 -2 -1 2 5 6 9 7 0 1 5 11 12 12 12 12 10 10 7 5 5 9 9 8
-12 -13 -14 -9 -7 -6 -7 -10 -12 -0 6 2 10 12 12 13 13 13 11 11 9 11 10 5 3 1 -1 -2 -2 -2 -2 -0 2 0 7 8 10 11 11 11 11 10 8 7 6 6 8 8 7
-13 -12 -14 -12 -11 -11 -11 -11 -10 -7 5 8 10 11 12 11 10 11 7 7 9 7 7 4 2 -0 -1 1 2 2 1 0 0 -0 -1 -1 3 7 7 7 7 9 11 8 9 9 9 8 7
-14 -14 -11 -12 -12 -12 -15 -10 -0 5 7 8 6 8 12 11 7 5 10 11 9 5 4 3 3 2 2 2 3 3 3 3 2 1 2 3 2 -0 -1 1 3 7 8 10 8 7 9 10 7
-13 -14 -11 -10 -13 -15 -16 -11 -6 1 6 6 6 9 8 12 7 11 12 12 11 7 9 7 8 7 4 2 2 2 3 3 3 2 2 2 3 4 5 5 5 6 8 8 8 7 6 6 7
-13 -13 -12 -13 -13 -14 -15 -14 -11 -12 -11 1 2 9 12 11 10 11 12 12 10 10 11 11 12 11 10 5 5 3 2 3 3 2 2 2 0 -0 -0 0 3 5 5 3 2 2 5 7 8
-15 -14 -13 -14 -14 -15 -17 -14 -11 -11 -12 -0 2 6 6 9 10 11 11 10 10 10 10 9 9 7 8 5 3 7 6 6 5 3 2 2 2 1 -0 -3 -3 0 5 6 6 7 7 7 9
-15 -12 -11 -10 -12 -13 -14 -12 -13 -11 -11 -8 2 -0 2 6 11 11 11 11 11 10 10 10 6 3 4 6 5 8 7 7 5 4 3 3 4 -1 -3 -5 -4 -1 -0 1 4 7 8 9 10
-13 -12 -10 -11 -13 -12 -11 -10 -13 -14 -7 1 6 2 4 5 9 6 5 10 11 10 8 5 0 -1 4 4 8 8 8 8 8 5 2 1 -1 -1 -2 -7 -7 -4 -5 -8 -6 -1 6 8 8
-11 -8 -9 -8 -10 -9 -8 -8 -10 -11 -9 -6 5 5 4 5 3 -0 5 9 9 9 6 2 -0 -3 -4 1 6 9 8 8 7 4 3 2 -3 -4 -3 -5 -10 -5 -4 -11 -2 1 1 6 8
-8 -8 -8 -8 -10 -9 -7 -8 -8 -9 -10 -7 -3 1 6 6 4 3 6 5 9 4 2 1 -1 -2 -4 1 5 7 9 9 6 7 3 3 -4 -6 -9 -15 -13 -9 -13 -9 -3 -1 -3 -2 -0
-8 -8 -7 -7 -7 -8 -8 -8 -8 -9 -9 -8 -6 2 4 4 3 4 4 3 2 1 0 -1 -2 -1 -4 -2 2 6 7 8 7 4 3 0 -5 -4 -5 -6 -8 -7 -9 -9 -9 -7 -7 -6 -6
-5 -6 -6 -7 -7 -6 -7 -7 -7 -8 -10 -8 -7 -3 -2 -0 0 1 2 1 -0 -1 -2 -3 -2 -2 -3 -3 -0 4 6 7 7 5 4 -1 -5 -5 -5 -7 -9 -9 -9 -9 -9 -12 -13 -13 -13
-5 -4 -5 -5 -6 -7 -9 -10 -9 -11 -10 -9 -7 -8 -7 -6 -3 -2 -2 -0 -1 -2 -3 -3 -2 -2 -3 -4 -3 -2 -0 2 -0 -3 -6 -6 -6 -8 -6 -6 -8 -8 -7 -7 -10 -10 -11 -12 -13
-3 -5 -4 -6 -5 -9 -11 -8 -11 -9 -10 -9 -7 -7 -7 -6 -6 -4 -3 -3 -3 -3 -3 -3 -2 -2 -3 -4 -4 -4 -3 -1 -2 -3 -3 -5 -5 -5 -7 -6 -3 -2 -4 -8 -10 -8 -8 -8 -8
-5 -4 -5 -4 -8 -9 -9 -8 -8 -7 -8 -8 -7 -7 -7 -6 -5 -5 -4 -3 -3 -3 -3 -3 -3 -3 -3 -4 -4 -5 -4 -2 -2 -3 -4 -5 -4 -3 -6 -7 -4 -2 -4 -6 -6 -5 -6 -8 -8
-3 -4 -5 -4 -6 -4 -5 -5 -6 -8 -8 -8 -8 -8 -7 -6 -6 -6 -5 -4 -3 -3 -3 -3 -4 -5 -5 -5 -5 -5 -5 -4 -3 -3 -3 -5 -3 -1 -3 -7 -6 -3 -3 -4 -5 -5 -7 -8 -9
-5 -4 -2 -3 -4 -2 -2 -2 -4 -7 -7 -6 -7 -6 -5 -4 -4 -5 -5 -4 -4 -4 -4 -3 -5 -4 -4 -5 -5 -5 -5 -5 -5 -4 -5 -3 -2 -3 -4 -3 -5 -4 -3 -4 -4 -4 -6 -7 -6
-4 -2 -1 -2 -3 -1 -1 -1 -6 -8 -7 -7 -6 -5 -5 -5 -5 -4 -4 -4 -3 -4 -4 -4 -3 -3 -3 -4 -3 -3 -4 -4 -4 -5 -5 -5 -3 -3 -3 -3 -4 -4 -4 -4 -4 -4 -6 -4 -6
-4 -1 -1 -0 -1 -1 -1 -2 -6 -7 -5 -5 -6 -6 -6 -6 -5 -5 -5 -4 -4 -4 -3 -3 -3 -3 -2 -2 -3 -3 -3 -3 -4 -4 -5 -5 -4 -3 -3 -3 -3 -4 -3 -4 -4 -4 -4 -4 -5
-1 -4 -1 0 1 2 -1 3 -3 -6 -6 -5 -5 -5 -5 -4 -4 -4 -4 -4 -4 -3 -3 -3 -3 -2 -2 -2 -2 -2 -2 -2 -2 -3 -4 -5 -5 -4 -3 -3 -3 -3 -3 -3 -3 -4 -4 -4 -4
-2 -2 1 1 2 1 1 1 -2 -6 -5 -5 -4 -4 -4 -3 -3 -3 -3 -3 -3 -3 -2 -2 -2 -2 -1 -0 -0 -0 -0 -1 -1 -2 -3 -4 -5 -6 -6 -3 -2 -2 -2 -3 -4 -3 -2 -3 -6
-1 1 2 2 2 4 1 0 -0 -2 -4 -3 -3 -4 -4 -3 -3 -3 -2 -2 -2 -1 -0 -0 0 0 0 -0 -1 -2 -2 -2 -0 -0 -1 -2 -4 -5 -5 -4 -2 -1 -2 -2 -2 -1 -2 -3 -4
0 3 5 4 5 5 2 2 -1 -4 -4 -4 -4 -4 -4 -3 -3 -2 -2 -1 -1 -0 -0 -0 0 -0 0 -0 -1 -2 -3 -3 -2 -2 -2 -1 -3 -3 -2 -3 -1 -3 -4 -3 -3 -3 -2 -2 -2
1 3 5 7 6 5 2 3 -0 -4 -4 -5 -5 -3 -2 -1 -1 -1 -0 0 0 0 0 -0 0 -1 -1 -0 -1 -3 -3 -4 -5 -5 -4 -2 -2 -3 -4 -5 -6 -5 -3 -2 -2 -1 -0 -1 -8
2 4 1 3 2 4 4 3 -2 -3 -0 -2 -2 -1 -1 -1 -0 0 0 -0 -0 -0 0 0 0 -0 -1 -2 -2 -3 -4 -4 -5 -5 -4 -1 -2 -5 -6 -5 -2 -1 -1 -1 -2 -4 -7 -10 -11
0 0 4 4 5 8 5 4 3 1 1 0 0 -1 -0 -1 -1 -0 -0 1 0 -0 -0 -1 -1 -2 -2 -1 -2 -3 -4 -5 -5 -5 -4 -4 -6 -6 -4 -1 -1 -1 -5 -6 -7 -9 -10 -12 -12
1 4 3 4 5 8 8 7 1 2 1 1 1 -1 -0 -0 0 -0 0 0 1 0 -0 0 -0 0 -1 -2 -1 -1 -3 -5 -5 -4 -5 -6 -6 -3 -1 -5 -6 -8 -10 -10 -10 -9 -9 -9 -9
1 3 4 4 7 5 5 6 0 1 -0 -0 -0 0 1 1 1 1 1 1 -1 -2 -1 -0 -2 -1 -1 0 -1 -2 -5 -5 -5 -5 -6 -7 -7 -7 -7 -10 -11 -11 -10 -9 -8 -9 -11 -13 -14

GFSSGP_850_dewp_009.txt.gz
Dewpoint
-20 -19 -14 -9 -9 -9 -8 -10 -11 -8 11 10 9 9 10 11 11 9 12 13 12 6 4 4 3 5 5 5 6 8 7 11 11 11 12 13 12 10 8 7 7 7 8 8 7 6 6 6 5
-20 -15 -12 -10 -8 -7 -8 -10 -6 5 11 10 10 11 12 14 13 13 13 13 13 10 5 3 1 1 2 3 5 7 9 9 6 1 4 9 12 13 13 12 10 10 10 9 10 7 7 8 7
-12 -13 -14 -9 -8 -7 -7 -10 2 7 9 5 11 12 12 13 13 13 12 13 11 9 6 3 1 -2 -3 -2 -2 -2 -1 1 2 3 7 9 11 12 12 12 12 12 12 11 8 7 8 8 10
-13 -12 -14 -11 -10 -11 -10 -7 -3 3 7 10 11 11 12 12 10 9 11 10 6 6 4 2 2 0 -1 -2 -1 -2 -1 -1 -0 -1 -1 -1 -0 6 8 8 8 8 10 10 8 8 10 9 8
-14 -14 -12 -12 -12 -13 -10 3 4 6 7 7 7 10 12 12 8 7 9 6 2 3 2 2 1 -0 -1 -2 -1 0 2 1 0 -1 -2 -1 2 0 -1 -2 -2 -0 6 9 10 10 8 9 6
-14 -15 -12 -11 -13 -15 -14 -3 1 5 5 5 8 9 10 11 9 11 11 7 6 2 2 3 4 4 3 -1 -1 -0 1 2 2 1 1 1 2 3 3 3 4 5 4 4 6 5 2 -0 3
-14 -14 -12 -13 -13 -14 -15 -12 -11 -9 -1 2 5 11 11 9 11 11 12 10 9 6 4 2 2 0 -2 -3 -1 2 2 2 3 2 1 1 1 1 1 2 2 4 5 5 3 3 4 3 5
-14 -14 -14 -14 -14 -15 -16 -13 -11 -12 -7 3 3 7 12 9 11 11 12 12 11 9 6 6 3 -1 -3 0 3 6 6 6 4 2 1 1 2 2 -0 -2 -2 -1 2 3 5 6 6 7 6
-15 -12 -9 -11 -13 -12 -12 -11 -11 -11 -4 -6 2 0 4 10 11 12 12 12 12 10 10 8 6 1 -2 -3 2 6 7 7 7 4 3 3 4 2 -1 -4 -7 -6 -3 -1 1 2 5 6 8
-12 -10 -10 -11 -13 -12 -10 -11 -13 -11 -0 4 2 -0 4 9 11 10 11 11 11 10 9 8 4 -1 -2 -1 1 6 7 6 7 7 3 1 2 -1 -4 -7 -10 -8 -6 -6 -6 0 3 6 8
-10 -8 -10 -9 -10 -10 -8 -8 -10 -11 -6 3 0 1 4 9 10 10 10 10 8 10 10 6 1 -1 -3 -2 3 5 5 4 6 3 3 1 -1 -4 -8 -10 -11 -12 -9 -9 -11 -7 -2 1 4
-9 -8 -8 -9 -9 -8 -8 -9 -8 -9 -10 -8 -4 -2 2 4 6 3 4 8 9 10 8 3 1 -1 -2 -4 -3 1 4 6 6 4 1 0 -1 -7 -5 -4 -8 -11 -10 -11 -11 -9 -7 -5 -6
-8 -8 -8 -7 -7 -8 -8 -8 -9 -9 -9 -8 -3 2 2 2 2 2 4 5 6 8 4 1 -1 -3 -3 -3 -5 -0 5 6 8 7 6 4 3 -2 -4 -4 -5 -7 -6 -7 -9 -9 -9 -9 -9
-5 -5 -6 -6 -7 -7 -7 -7 -7 -8 -9 -9 -4 2 2 2 2 5 5 4 3 3 1 -1 -3 -3 -2 -3 -3 -2 3 6 7 7 7 6 4 -2 -5 -5 -5 -6 -5 -5 -6 -7 -10 -12 -14
-4 -4 -5 -5 -6 -6 -7 -9 -9 -10 -10 -9 -6 1 3 3 4 1 1 1 2 0 -1 -3 -3 -2 -2 -3 -3 -3 -1 2 3 2 -1 -3 -4 -5 -5 -6 -5 -5 -4 -3 -3 -7 -10 -10 -9
-5 -6 -5 -7 -6 -8 -10 -7 -10 -9 -7 -9 -8 -1 -1 -3 -6 -2 -1 -1 0 -1 -2 -3 -2 -2 -3 -4 -4 -4 -5 -5 -3 -1 -2 -2 -3 -4 -5 -4 -5 -6 -5 -4 -5 -9 -8 -7 -7
-5 -5 -5 -5 -6 -5 -9 -8 -10 -8 -6 -8 -9 -7 -6 -6 -6 -4 -3 -1 -1 -2 -2 -3 -3 -3 -5 -5 -5 -5 -5 -5 -5 -5 -5 -3 -3 -3 -3 -3 -4 -6 -5 -5 -6 -6 -6 -6 -8
-3 -5 -4 -3 -5 -3 -3 -5 -5 -4 -7 -8 -8 -7 -6 -6 -5 -5 -5 -4 -2 -3 -3 -3 -4 -6 -4 -4 -4 -4 -4 -4 -4 -4 -4 -5 -5 -4 -2 -1 -3 -5 -6 -6 -5 -5 -6 -6 -7
-5 -3 -1 -3 -5 -1 -1 -1 -2 -5 -7 -7 -8 -7 -5 -5 -6 -6 -6 -5 -4 -3 -3 -4 -4 -3 -3 -3 -3 -3 -3 -2 -3 -3 -4 -4 -5 -5 -5 -4 -4 -4 -4 -5 -5 -5 -5 -5 -6
-4 -2 -2 -2 -3 -1 -1 -1 -7 -8 -7 -6 -6 -4 -5 -5 -5 -4 -4 -4 -3 -4 -3 -4 -3 -3 -3 -2 -2 -2 -2 -2 -2 -2 -3 -4 -4 -4 -5 -5 -5 -4 -3 -4 -4 -5 -4 -4 -5
-3 -2 -2 -1 -1 -1 -1 -1 -5 -6 -5 -5 -5 -5 -4 -5 -5 -5 -4 -4 -4 -4 -4 -3 -3 -3 -3 -2 -2 -1 -1 -1 -1 -2 -1 -1 -2 -4 -5 -5 -4 -4 -3 -3 -4 -4 -4 -4 -4
-1 -4 -2 -0 1 2 -1 2 -2 -6 -6 -5 -5 -5 -5 -4 -4 -4 -4 -4 -4 -4 -3 -3 -3 -3 -2 -2 -1 -0 -0 -0 -1 -1 -3 -2 -0 -2 -4 -5 -4 -3 -2 -3 -4 -4 -4 -3 -4
-0 -1 0 1 2 1 0 0 -1 -4 -6 -5 -4 -4 -4 -4 -4 -3 -3 -3 -3 -3 -3 -3 -2 -2 -1 -0 -0 -0 0 -1 -2 -4 -3 -2 -1 -0 -3 -4 -4 -2 -1 -2 -3 -3 -2 -3 -3
-1 1 1 2 2 4 1 1 -1 -2 -3 -2 -3 -4 -3 -3 -3 -3 -2 -2 -2 -2 -1 -1 0 0 0 0 0 -0 -1 -1 -2 -4 -4 -4 -4 -4 -4 -2 -4 -0 -1 -1 -1 -3 -3 -4 -4
0 3 4 3 4 5 2 1 -1 -3 -3 -3 -3 -3 -3 -4 -3 -3 -2 -2 -1 0 0 0 -0 -0 -0 -1 -1 -2 -3 -4 -4 -4 -4 -5 -5 -5 -3 -2 -2 -0 -0 -0 -3 -4 -2 -1 -1
1 2 4 4 5 5 2 2 -0 -4 -4 -5 -4 -4 -3 -1 -1 -2 -0 1 0 0 -0 -0 -0 -1 -1 -2 -2 -2 -4 -3 -3 -3 -4 -5 -5 -3 -1 -1 -1 -2 -2 -3 -2 -1 -0 -0 -1
2 4 1 3 1 4 4 2 -1 -2 0 -1 -2 -1 -0 0 1 1 0 -0 0 0 0 -0 -1 -2 -3 -3 -3 -4 -4 -5 -2 -2 -5 -5 -5 -3 -3 -4 -5 -3 -1 -1 -0 -0 -1 -4 -6
1 0 4 4 4 7 6 5 3 1 2 -0 1 -0 -0 -0 -0 0 0 0 1 0 -1 -2 -3 -3 -4 -4 -4 -3 -4 -5 -2 -4 -5 -5 -5 -4 -6 -6 -4 -2 -2 -4 -8 -9 -9 -9 -9
3 4 3 4 5 8 7 6 2 1 1 1 0 0 0 0 1 1 1 1 0 -1 -2 -2 -2 -3 -3 -2 -1 0 -3 -4 -4 -4 -5 -5 -6 -7 -4 -2 -3 -9 -10 -10 -9 -9 -9 -8 -9
1 3 3 6 6 4 3 5 -1 -0 -0 0 1 2 1 1 1 1 1 1 -2 -1 -1 -3 -3 -4 -3 -0 1 -2 -4 -4 -4 -5 -6 -7 -6 -3 -7 -9 -11 -13 -12 -11 -9 -9 -13 -12 -12

GFSSGP_850_dewp_015.txt.gz
Dewpoint
-21 -19 -15 -9 -8 -8 -7 -8 -11 7 10 10 10 8 10 12 9 9 12 12 9 5 4 7 8 9 9 9 10 10 10 10 11 12 12 12 10 11 11 11 11 11 11 8 8 8 9 9 7
-19 -17 -11 -10 -7 -4 -1 -5 -4 9 11 11 11 11 12 12 13 12 12 10 5 3 3 2 1 1 1 1 0 3 7 8 6 3 4 12 12 11 10 10 10 9 8 8 8 10 11 9 8
-13 -12 -12 -8 -7 -6 4 2 9 10 8 9 11 12 12 13 11 11 11 8 5 1 -1 -3 -3 -3 -4 -4 -4 -3 -2 0 0 0 4 5 7 11 12 12 11 11 11 10 10 10 9 9 9
-12 -14 -12 -3 -3 -7 -2 6 9 9 9 11 11 10 12 12 10 10 10 9 5 1 -1 -2 -3 -4 -3 -3 -3 -2 -1 -1 -0 1 1 4 6 10 11 12 10 8 5 5 9 10 9 8 10
-14 -14 -5 -1 -1 -1 -1 3 8 6 7 9 9 11 12 11 8 8 7 6 1 -1 -3 -3 -2 -3 -3 -3 -2 -2 -1 0 0 0 0 1 3 3 4 4 3 5 6 6 5 6 9 9 9
-14 -13 -3 -0 -4 -10 -2 1 4 5 7 9 10 10 11 6 5 5 4 3 1 -2 -2 0 -0 -2 -3 -3 -3 -1 1 2 2 2 2 1 2 2 2 2 2 2 3 3 4 5 5 4 3
-14 -11 -11 -11 -10 -12 -12 -13 -1 2 4 4 6 9 11 9 8 5 3 3 3 3 2 2 0 -2 -2 -4 -5 -2 2 4 4 3 3 2 1 2 2 1 1 -3 -7 -6 -2 2 4 5 5
-16 -13 -12 -13 -13 -13 -14 -11 -11 -6 2 6 6 7 11 10 11 10 8 7 7 6 5 5 3 -1 -4 -4 -6 -6 -6 2 4 4 3 1 0 1 2 1 -2 -9 -9 -8 -8 -7 -5 -2 -0
-14 -11 -11 -13 -12 -11 -12 -11 -11 -3 3 -2 1 3 3 8 11 11 10 9 9 8 7 7 4 -1 -3 -4 -5 -7 -7 -4 -2 -0 2 1 -0 0 2 -2 -5 -10 -9 -9 -8 -7 -9 -5 -3
-11 -9 -10 -12 -13 -10 -9 -12 -12 -7 -1 3 2 2 5 7 10 10 11 9 6 7 7 7 6 0 -2 -3 -4 -7 -6 -4 -2 -0 -1 2 2 1 1 -1 -4 -6 -8 -9 -10 -7 -7 -9 -5
-8 -8 -9 -9 -12 -10 -8 -8 -11 -5 -3 -3 -3 -0 4 8 10 11 9 9 6 8 9 8 8 1 -3 -3 -3 -4 -6 -4 -2 -0 1 1 -0 -0 0 -2 -6 -5 -4 -5 -7 -7 -8 -9 -5
-7 -9 -9 -9 -10 -9 -9 -9 -9 -8 -10 -8 -6 -2 1 6 8 9 10 8 6 7 7 9 8 1 -3 -2 -3 -2 -2 -1 0 -0 -0 1 2 3 3 2 1 -2 -4 -4 -5 -6 -6 -6 -7
-6 -8 -8 -8 -10 -9 -8 -8 -8 -8 -9 -9 -6 -1 0 2 4 6 8 8 6 7 7 9 8 1 -2 -2 -3 -3 -2 -2 -2 -2 -2 -1 -1 -0 -1 -2 -3 -5 -6 -6 -6 -6 -6 -7 -7
-5 -5 -5 -6 -7 -6 -6 -6 -7 -9 -9 -9 -8 -3 1 2 2 4 7 7 5 5 7 9 8 1 -2 -2 -5 -4 -3 -4 -5 -5 -5 -4 -3 -3 -3 -3 -4 -4 -5 -6 -5 -6 -5 -5 -6
-6 -7 -7 -6 -6 -7 -7 -7 -8 -10 -9 -8 -8 -3 3 2 3 2 3 4 4 5 6 7 7 0 -2 -3 -5 -5 -5 -5 -4 -4 -4 -4 -4 -4 -5 -5 -4 -5 -5 -5 -4 -5 -5 -5 -6
-6 -7 -4 -6 -4 -5 -7 -3 -7 -9 -9 -8 -6 -7 1 5 4 2 3 4 5 5 5 7 5 -1 -2 -5 -5 -5 -5 -5 -4 -4 -3 -3 -3 -3 -3 -4 -4 -4 -5 -4 -4 -4 -6 -6 -6
-5 -6 -4 -4 -4 -3 -3 -2 -4 -5 -5 -4 -5 -7 -5 2 3 5 5 5 1 1 3 6 2 -1 -3 -5 -4 -4 -5 -4 -3 -2 -2 -2 -2 -2 -2 -2 -3 -4 -4 -4 -3 -4 -5 -6 -6
-2 -4 -3 -3 -4 -2 -1 -2 -3 -6 -6 -5 -7 -8 -7 2 4 4 -1 -4 -4 -2 4 4 0 -2 -5 -4 -4 -3 -2 -2 -2 -1 -1 -1 -1 -1 -1 -2 -2 -3 -3 -4 -4 -4 -4 -4 -5
-5 -4 -2 -3 -3 -1 -1 -1 -5 -6 -5 -6 -6 -7 -4 0 -2 -5 -6 -6 -5 -3 0 -1 -2 -4 -4 -3 -3 -2 -2 -2 -2 -1 -0 0 -1 -1 -1 -1 -2 -2 -2 -3 -3 -2 -2 -4 -4
-4 -3 -3 -3 -3 -1 -1 -2 -5 -5 -4 -3 -3 -4 -5 -5 -5 -5 -5 -5 -4 -4 -2 -2 -3 -3 -3 -3 -3 -3 -3 -2 -2 -0 0 -0 -1 -1 -2 -3 -3 -2 -2 -1 -2 -2 -0 -1 -3
-1 -2 -2 -1 -1 -1 -2 -2 -3 -6 -5 -4 -4 -4 -5 -5 -5 -5 -4 -4 -4 -3 -3 -3 -3 -3 -3 -3 -3 -2 -1 -0 -0 0 -1 -2 -2 -3 -4 -4 -4 -4 -4 -3 -1 -2 -2 1 -0
1 -3 -0 0 1 2 -1 0 -2 -3 -4 -4 -4 -4 -4 -4 -4 -4 -4 -3 -3 -3 -3 -3 -3 -2 -1 -1 -0 -0 -0 -1 -1 -2 -3 -4 -5 -6 -7 -6 -5 -5 -5 -5 -4 -2 -2 1 1
1 -0 1 1 2 2 1 -0 -0 -3 -3 -4 -3 -5 -4 -4 -4 -4 -4 -3 -3 -2 -2 -1 -0 0 -0 -0 -1 -1 -2 -3 -4 -5 -7 -9 -10 -12 -12 -11 -9 -8 -7 -7 -6 -2 -0 1 2
-0 1 -0 1 2 4 2 1 2 -0 -2 -2 -3 -2 -3 -3 -3 -3 -2 -1 -0 0 0 0 -0 -0 -1 -2 -3 -3 -3 -5 -7 -9 -10 -12 -11 -11 -10 -8 -7 -6 -5 -3 -1 0 0 0 -0
1 1 3 6 6 6 1 1 2 -0 -1 -1 -1 -1 -1 -1 -1 -1 -1 0 1 0 0 -0 -1 -2 -3 -2 -2 -4 -6 -7 -8 -8 -8 -9 -9 -10 -6 -5 -5 -5 -3 -1 -1 -1 -1 -1 -1
2 2 5 4 6 5 2 3 3 -1 -0 -1 0 0 0 1 1 1 1 0 0 0 -0 -0 -1 -2 -1 -1 -3 -7 -6 -5 -6 -7 -9 -10 -9 -6 -4 -4 -3 -2 -1 -1 -1 -1 -1 -1 -2
2 5 2 4 2 6 4 2 0 -0 -0 0 0 -0 0 0 1 1 0 -0 0 1 1 0 -1 -2 -5 -8 -8 -6 -5 -6 -7 -8 -9 -10 -6 -4 -4 -3 -2 -2 -2 -3 -2 -5 -6 -8 -7
1 1 4 5 7 6 4 4 2 2 1 0 0 1 1 1 1 0 -0 -0 1 2 2 0 -1 -2 -4 -3 -3 -2 -3 -4 -6 -8 -8 -5 -5 -4 -3 -3 -4 -4 -4 -5 -7 -10 -9 -10 -9
3 3 3 4 5 7 7 4 1 1 1 0 0 2 2 1 1 0 1 1 1 2 2 0 1 2 -0 -0 -0 -1 -4 -7 -7 -7 -4 -5 -5 -3 -5 -6 -6 -6 -4 -4 -5 -7 -9 -10 -9
2 2 2 3 3 5 6 3 -1 0 0 0 1 2 2 1 1 1 1 1 2 2 1 -0 1 1 -0 0 -1 -3 -5 -5 -6 -5 -5 -6 -4 -7 -6 -5 -3 -3 -5 -5 -6 -8 -8 -8 -9

GFSSGP_850_dewp_021.txt.gz
Dewpoint
-22 -19 -7 -7 -7 -6 -1 2 1 3 4 5 3 3 3 6 9 12 10 9 11 12 13 10 9 10 11 12 12 13 13 13 12 12 12 11 11 12 12 12 11 11 12 11 10 8 8 8 9
-7 -11 -8 -9 -7 -4 -1 -2 1 2 2 1 1 1 2 5 9 10 9 8 10 11 12 11 9 7 6 6 8 10 10 10 11 11 11 12 11 11 11 11 11 10 10 9 9 8 8 9 10
-14 -8 -10 -10 -8 -5 -2 -3 2 2 2 2 1 2 4 6 7 9 8 8 9 10 12 4 0 -1 -2 -3 -1 0 2 3 4 5 7 8 10 11 11 11 11 11 11 11 10 8 8 9 9
-9 -12 -10 -9 -3 -4 -2 1 1 1 3 2 -1 3 8 7 8 8 8 7 8 8 0 -5 -4 -4 -4 -3 -2 -1 -1 -0 -0 0 1 1 2 5 7 8 9 8 6 3 4 6 6 7 9
-10 -11 -9 -7 -3 -2 -1 -1 -0 0 0 0 -1 1 7 10 9 8 6 4 4 5 -1 -5 -4 -3 -3 -4 -5 -3 -0 2 2 3 2 2 2 2 2 3 3 3 3 4 3 3 4 5 5
-11 -9 -7 -4 -2 -1 -1 -0 -1 -2 -1 -2 -1 1 7 9 8 8 7 4 4 6 6 -3 -4 -5 -5 -6 -7 -3 0 2 3 3 3 2 1 1 1 2 1 1 -3 -7 -8 -7 -5 -0 3
-11 -8 -6 -4 -3 -2 -2 -4 -5 -4 -4 -3 -3 0 6 7 8 7 6 4 3 5 7 7 3 -3 -3 -4 -7 -7 -2 4 4 3 3 2 1 1 1 2 1 -1 -8 -9 -8 -8 -7 -7 -8
-12 -10 -7 -7 -4 -6 -10 -8 -7 -7 -2 -3 -2 -1 5 7 8 6 5 4 5 6 8 8 8 8 9 7 -6 -8 -5 -0 -2 0 1 1 1 3 2 3 3 -2 -4 -7 -7 -8 -8 -7 -7
-14 -12 -11 -12 -12 -13 -14 -13 -13 -9 -5 -4 -4 0 2 7 7 6 6 5 6 7 9 9 8 8 8 7 2 -0 -3 -1 3 5 2 5 9 9 9 7 2 -0 -4 -5 -4 -4 -6 -7 -4
-13 -13 -13 -15 -14 -14 -15 -15 -14 -9 -8 -7 -3 -1 5 7 7 7 5 6 7 8 8 8 10 9 8 5 8 8 8 9 9 10 10 9 10 9 5 7 6 5 2 0 2 1 -2 2 4
-14 -12 -14 -15 -16 -17 -16 -16 -15 -13 -11 -8 -6 -2 4 6 6 6 6 5 5 7 7 8 12 10 9 8 6 6 7 8 9 10 10 9 10 10 9 9 8 9 8 8 7 6 6 6 6
-13 -15 -16 -16 -15 -14 -15 -14 -14 -14 -12 -10 -8 -2 3 5 6 6 5 4 4 6 6 8 12 9 -1 7 6 6 6 8 8 9 10 9 8 8 8 7 6 6 5 6 6 6 6 7 7
-13 -14 -15 -15 -14 -13 -11 -12 -12 -13 -12 -11 -6 -1 2 4 5 4 4 4 4 5 6 7 10 13 10 5 7 7 7 7 8 8 8 7 7 7 7 6 6 5 4 5 4 5 5 5 5
-10 -9 -8 -9 -9 -9 -8 -9 -9 -10 -11 -11 -7 -3 -0 1 2 3 4 4 4 5 6 7 10 13 11 7 8 7 8 7 7 6 5 -3 3 7 7 6 5 4 3 3 4 5 5 5 4
-8 -7 -7 -7 -7 -7 -8 -9 -9 -9 -9 -9 -9 -7 -2 -1 0 1 3 4 4 5 6 8 10 12 11 7 7 5 5 4 4 5 5 3 -1 2 -0 5 5 5 4 4 5 5 5 5 5
-8 -7 -5 -7 -7 -6 -6 -5 -9 -7 -7 -8 -7 -7 -5 -2 -1 1 2 3 4 4 5 7 9 11 11 7 6 4 4 4 4 4 4 5 1 -1 -0 5 5 5 5 5 5 4 4 4 4
-9 -7 -9 -5 -7 -7 -7 -6 -8 -6 -7 -7 -8 -7 -6 -4 -1 1 4 4 3 3 5 6 9 11 9 7 5 5 5 4 4 4 3 3 4 2 0 0 4 4 5 5 5 4 4 4 4
-9 -10 -8 -9 -6 -9 -8 -8 -7 -7 -6 -6 -7 -6 -6 -5 -1 3 3 2 2 4 6 7 9 10 8 7 5 3 3 2 2 2 2 3 4 4 4 4 3 4 4 3 3 4 4 4 4
-9 -8 -7 -8 -6 -5 -6 -6 -6 -6 -5 -5 -5 -5 -5 -3 2 2 2 2 3 6 7 8 8 7 5 4 2 1 1 1 1 1 3 4 3 3 3 2 2 2 2 2 2 2 3 4 4
-5 -5 -5 -5 -5 -4 -4 -5 -6 -6 -4 -4 -4 -2 -1 0 -0 1 2 4 4 4 4 3 3 3 2 0 1 1 1 2 2 3 3 2 1 -0 -0 -1 -1 0 0 -0 0 1 2 3 3
-3 -3 -1 -2 -4 -4 -3 -3 -5 -5 -5 -4 -3 -3 -3 -2 -2 -0 1 3 4 4 3 2 3 3 3 -1 1 2 1 1 1 1 1 1 2 2 2 1 0 1 0 0 -0 0 1 2 2
-2 -2 -1 -1 -2 -2 -3 -1 -3 -4 -4 -4 -3 -2 -2 -2 -1 0 1 3 4 4 3 3 3 2 3 -0 1 1 2 2 2 3 2 3 2 1 -1 -2 -1 1 1 1 1 0 2 3 1
-1 -1 -1 -0 -0 -2 -3 -3 -1 -4 -3 -3 -2 -1 -1 -0 0 1 2 3 4 4 4 4 3 3 3 2 1 2 2 2 2 2 2 1 -2 -2 -3 -2 -2 1 1 1 2 3 2 2 2
-1 0 -1 1 1 3 0 -1 0 -1 -2 -2 -1 0 1 1 1 1 2 2 3 4 4 3 2 2 2 3 3 3 2 2 1 0 -0 -2 -2 -2 -3 -2 -1 0 1 2 2 1 -1 -1 -1
-1 0 4 6 5 4 0 -2 3 -0 -1 -1 -0 1 1 1 1 1 1 2 2 3 3 3 2 2 2 2 2 2 1 1 0 0 -1 -0 -2 -3 -3 -1 0 0 1 1 1 -0 -1 -1 -2
0 1 6 5 4 2 -0 -2 1 -1 -1 -1 -1 -0 -0 1 1 1 1 2 2 2 3 4 4 3 2 2 2 2 2 1 1 0 0 -1 -2 -3 -2 -0 0 -1 -0 0 -0 -1 -2 -2 -2
1 3 0 5 6 6 -2 -0 0 -1 -1 -1 -1 -0 0 0 1 1 1 1 2 2 2 3 3 2 2 2 3 3 1 1 1 0 -1 -3 -2 -2 -1 -0 -1 -0 -1 -1 -2 -2 -3 -3 -2
0 -0 5 3 7 2 -4 -4 -2 2 0 -1 -2 -2 -1 -0 1 1 1 1 1 1 2 2 1 1 2 2 1 1 1 1 -0 -2 -2 -2 -2 -2 -2 -1 -1 -1 -2 -2 -3 -2 -2 -2 -2
1 2 1 -1 2 4 2 -2 -2 -2 -2 -2 -3 -1 -0 0 1 -0 -0 1 1 2 2 1 0 1 1 0 -0 -1 -1 -1 -2 -3 -3 -3 -2 -2 -3 -3 -2 -2 -2 -3 -3 -3 -3 -3 -3
-1 0 -0 2 -0 2 4 2 -3 -3 -2 -2 -2 -1 -0 1 -0 -0 0 1 1 2 1 -0 -0 -1 -1 -2 -3 -3 -2 -2 -3 -3 -2 -2 -2 -2 -2 -2 -2 -2 -3 -3 -4 -4 -4 -4 -4

GFSSGP_850_dewp_024.txt.gz
Dewpoint
-27 -22 -13 -6 -4 -5 -5 0 1 3 3 2 2 1 5 8 11 13 10 11 13 12 10 10 10 9 10 10 10 12 12 12 12 12 12 12 11 11 12 12 11 11 11 11 11 10 9 8 7
-22 -7 -9 -7 -4 -3 -1 -0 2 2 1 -2 1 0 5 8 9 9 9 11 12 14 11 8 7 5 4 4 6 8 10 10 9 9 9 10 10 11 11 11 11 11 10 10 10 10 9 8 7
-14 -7 -9 -6 -6 -5 -1 1 3 -0 -1 -0 0 5 5 6 8 8 9 10 11 12 7 2 -3 -4 -4 -4 -3 -1 1 1 2 4 6 7 7 7 8 8 9 9 8 6 3 2 3 4 5
-12 -8 -10 -7 -5 -4 -3 1 -0 -0 1 0 2 5 6 7 8 7 8 9 10 5 -4 -6 -6 -5 -5 -5 -4 -2 -1 -0 0 -0 0 1 1 2 3 3 2 2 2 3 3 2 1 2 2
-5 -8 -7 -5 -1 -1 -1 -1 -1 -0 -0 -1 0 7 8 8 7 6 6 6 6 -5 -7 -6 -5 -6 -7 -7 -7 -5 -1 1 2 2 2 2 2 2 2 2 2 1 0 -2 -8 -10 -10 -8 -1
-8 -10 -6 -4 -1 -1 -1 -2 -2 1 -1 -3 1 6 8 8 7 4 3 4 5 -1 -4 -5 -5 -6 -6 -6 -8 -5 -2 1 2 3 2 1 0 -0 0 1 1 -0 -6 -10 -9 -8 -8 -9 -10
-7 -6 -5 -3 -2 -2 -1 -4 -5 -4 -4 -3 -3 5 7 7 7 5 3 4 5 5 -0 -2 -1 0 1 -5 -9 -10 -2 2 3 3 2 1 1 1 -0 1 1 -2 -4 -8 -8 -8 -8 -8 -8
-11 -10 -7 -4 -4 -3 -8 -6 -6 -6 -3 -5 -1 2 6 8 7 5 3 3 5 6 8 9 9 8 8 7 -7 -10 -7 -5 -3 -2 -1 8 10 9 9 7 3 1 -1 -4 -6 -5 -5 -6 -7
-12 -9 -6 -7 -6 -11 -13 -13 -13 -8 -5 -5 -1 1 5 7 6 5 4 4 5 7 8 8 8 8 7 6 6 6 5 9 8 10 7 10 10 10 9 7 7 5 4 2 1 1 0 -2 1
-14 -9 -12 -15 -14 -14 -15 -15 -14 -9 -8 -6 -0 3 6 6 6 5 4 5 6 8 8 9 9 7 5 5 8 8 8 8 9 10 9 10 7 9 8 9 8 8 6 6 7 5 5 5 5
-13 -11 -14 -16 -14 -17 -16 -16 -14 -11 -11 -6 -4 4 5 6 5 5 4 5 6 7 7 9 9 3 9 5 6 7 7 8 9 10 8 9 9 9 9 8 7 6 6 6 6 6 6 6 6
-13 -15 -17 -17 -15 -16 -17 -17 -15 -14 -11 -9 -5 -2 5 5 5 5 5 4 4 7 7 10 10 6 -0 7 7 6 7 8 8 9 8 2 7 7 4 7 3 5 4 4 5 5 5 5 6
-14 -18 -17 -16 -15 -13 -13 -14 -14 -13 -11 -10 -4 -1 3 4 5 5 5 4 4 6 6 8 9 11 11 -0 7 6 4 8 8 8 7 -4 -0 -0 1 3 4 5 4 4 4 4 4 4 4
-13 -13 -12 -13 -12 -11 -11 -10 -10 -13 -12 -11 -6 -2 1 3 4 4 3 4 4 4 5 7 9 9 10 8 8 4 7 7 7 6 6 -3 -1 -1 -1 1 0 1 4 4 3 4 5 5 5
-10 -9 -9 -9 -9 -10 -10 -9 -10 -10 -11 -11 -9 -6 -2 -0 1 2 3 4 3 5 6 7 9 11 11 10 7 5 6 5 5 5 4 4 2 1 -1 -1 1 3 4 2 2 4 4 4 4
-10 -8 -5 -8 -8 -7 -8 -5 -11 -9 -9 -9 -9 -9 -7 -2 -1 0 2 3 4 4 5 9 8 10 11 9 7 5 4 5 4 4 5 5 5 3 1 1 3 4 4 2 2 3 4 4 4
-8 -6 -5 -5 -9 -7 -7 -6 -9 -8 -7 -8 -8 -7 -7 -6 -2 -0 1 2 3 3 4 5 7 10 11 9 7 5 5 4 4 4 4 4 4 4 3 1 1 3 3 1 2 4 4 5 5
-6 -10 -9 -8 -7 -11 -10 -9 -8 -7 -7 -7 -8 -8 -7 -6 -3 3 3 3 2 3 4 6 9 10 10 8 7 4 3 3 2 2 2 2 3 3 4 0 -0 -0 -0 -0 -1 -0 1 2 1
-9 -9 -9 -9 -7 -7 -9 -8 -6 -6 -6 -5 -6 -5 -4 2 2 3 3 3 4 6 8 9 9 9 7 5 3 2 2 1 1 1 3 3 3 3 1 1 1 1 1 1 1 -1 -4 -0 1
-7 -6 -5 -6 -6 -6 -6 -5 -6 -6 -4 -4 -3 -3 1 1 2 3 4 4 4 4 3 4 4 3 2 2 1 1 2 1 1 1 3 2 2 2 2 2 2 1 1 1 -1 -2 1 2 2
-5 -4 -1 -3 -4 -5 -5 -4 -4 -5 -4 -3 -2 -2 -1 -1 0 2 4 5 4 3 3 3 3 3 1 -1 2 1 0 1 1 1 1 2 3 3 1 0 -1 -2 -2 -2 -2 -4 -1 1 1
-3 -1 -1 -3 -2 -2 -4 -1 -3 -4 -3 -3 -2 -2 -2 -1 -0 1 3 4 4 4 4 3 3 3 3 1 0 1 3 3 3 3 3 2 1 -0 -1 -2 -2 -2 -2 -1 -2 2 2 3 2
-2 -2 -2 -2 -1 -1 -3 -0 -1 -3 -2 -2 -1 -1 -0 0 1 2 3 4 5 4 5 4 3 2 3 3 4 4 4 2 1 1 1 0 -0 -1 -2 -2 -2 -2 -2 -1 2 2 3 2 0
-3 -0 -1 -1 0 7 -1 -1 2 -2 -2 -1 0 1 1 1 1 1 2 3 4 4 4 4 3 3 3 3 2 2 2 2 1 1 1 1 0 -1 -3 -4 -3 -3 -0 1 1 1 0 -1 -2
-1 0 8 10 9 9 1 0 3 -1 -1 -1 1 1 1 1 1 1 1 2 2 3 3 4 4 4 3 2 2 3 2 3 2 2 1 1 -1 -2 -3 -3 -1 0 0 -1 -2 -2 -2 -2 -3
0 -0 10 8 9 6 -1 -1 2 -1 -1 -1 -0 -0 0 1 1 1 1 1 2 2 2 2 3 3 2 2 2 3 3 2 2 1 1 -1 -2 -3 -2 -0 0 -1 -2 -2 -1 -1 -1 -2 -2
0 4 -1 3 6 8 -2 2 -0 -1 -1 -1 -1 -1 -0 0 1 1 1 1 1 2 2 2 3 2 1 2 1 1 1 1 -0 -0 -1 -3 -3 -3 -2 -2 -3 -1 -1 -1 -1 -2 -2 -3 -3
-2 -2 4 8 8 5 -2 -2 4 1 0 -0 -1 -2 -1 -1 0 0 -0 -0 1 2 2 2 1 1 1 1 1 -0 -1 -1 -1 -2 -3 -3 -2 -3 -3 -2 -2 -2 -1 -1 -3 -3 -4 -4 -4
-1 0 1 -1 4 6 5 0 -3 -2 -1 -1 -2 -2 -0 0 -0 -0 0 1 1 1 1 1 0 0 -0 -1 -1 -2 -3 -3 -2 -2 -2 -2 -2 -4 -3 -3 -3 -3 -2 -3 -3 -4 -5 -5 -6
-3 -1 -1 8 4 7 7 3 -3 -3 -2 -2 -1 -1 -0 -0 0 0 0 1 1 0 0 0 -1 -1 -1 -2 -3 -4 -4 -3 -2 -1 -4 -3 -4 -3 -3 -4 -3 -5 -6 -5 -5 -5 -7 -7 -8

GFSSGP_850_dewp_027.txt.gz
Dewpoint
-26 -26 -12 -6 -4 -4 -3 -4 2 3 -0 5 7 9 10 10 11 14 14 13 12 11 11 11 10 10 11 11 11 11 11 11 11 11 11 10 10 9 10 11 11 11 10 10 10 9 9 9 8
-27 -8 -7 -7 -3 -2 -1 2 2 -1 0 6 7 8 9 9 10 13 13 13 12 10 10 9 8 7 5 3 3 3 4 5 5 5 4 5 8 8 9 9 9 9 9 8 6 2 0 -0 0
-25 -7 -7 -6 -4 -3 1 2 -0 -1 0 3 6 7 8 8 9 12 13 13 12 9 6 1 -3 -5 -6 -5 -5 -4 -3 -2 -0 1 1 1 1 2 2 3 3 2 2 1 1 -0 -2 -2 -1
-15 -7 -9 -7 -6 -1 3 1 -0 1 2 4 6 8 8 8 9 11 11 11 11 3 -5 -7 -7 -6 -6 -7 -7 -5 -2 -1 -1 -0 -0 0 1 0 -0 -0 0 -0 -1 -2 -8 -13 -14 -14 -8
-4 -5 -7 -5 -1 1 -0 -1 0 1 5 8 8 8 7 7 8 9 10 8 -4 -7 -6 -6 -6 -7 -8 -9 -11 -9 -5 -2 -0 1 1 1 -1 -2 -1 0 0 -0 -6 -11 -11 -10 -10 -10 -12
-6 -7 -6 -5 0 -0 -2 -3 1 1 1 8 8 8 7 6 6 6 6 4 -8 -6 -5 -6 -5 -5 -6 -9 -13 -10 -4 -1 1 1 1 -0 -1 -2 -0 1 1 -2 -4 -8 -9 -9 -9 -8 -9
-6 -5 -5 -5 -1 -1 -3 -5 -3 -2 -4 4 8 8 6 5 3 4 5 2 -4 -4 -3 -0 -1 -0 -2 -8 -12 -8 -6 -5 -3 -2 -2 3 6 6 6 4 1 -1 -2 -3 -6 -7 -6 -6 -7
-8 -8 -7 -7 -3 -4 -7 -11 -3 -5 -6 4 5 7 8 6 3 3 4 5 6 7 7 8 7 5 5 1 -10 -10 -5 1 3 5 9 8 7 7 6 7 6 6 4 3 1 2 2 -0 -1
-7 -10 -8 -9 -8 -9 -11 -12 -12 -5 -5 1 2 7 8 6 4 3 4 5 7 8 8 8 7 2 6 6 7 2 4 3 4 8 9 9 8 7 6 8 7 6 5 6 6 4 4 4 4
-11 -9 -12 -14 -12 -13 -14 -14 -13 -7 -4 5 7 7 7 5 4 4 4 5 7 8 9 9 7 2 6 6 7 8 8 8 9 7 6 8 7 8 8 7 7 4 5 5 4 3 2 4 4
-14 -12 -16 -14 -15 -15 -15 -14 -10 -8 -6 4 7 7 6 6 5 4 4 6 7 7 8 8 1 7 8 6 7 8 8 7 8 10 8 6 8 8 6 4 2 3 4 3 4 4 4 4 4
-14 -16 -16 -15 -15 -16 -17 -17 -15 -10 -7 -2 5 6 5 5 5 5 4 5 7 7 8 8 7 -3 5 8 7 7 8 8 9 9 6 -1 2 3 -0 1 0 1 4 4 4 4 2 2 3
-16 -16 -16 -16 -13 -13 -15 -15 -13 -10 -8 -4 4 5 5 5 5 5 5 5 5 7 7 8 6 -2 0 2 5 4 7 7 8 8 5 -4 -1 -0 -1 -1 -1 0 2 3 2 2 1 3 4
-15 -16 -16 -15 -12 -12 -12 -10 -11 -11 -10 -4 2 4 4 4 4 5 5 5 4 6 7 7 7 7 5 3 4 1 4 7 6 6 4 1 -1 -1 -1 -0 0 1 2 3 3 3 2 3 4
-13 -9 -11 -11 -11 -10 -10 -8 -9 -12 -12 -7 -4 2 2 3 4 5 4 4 4 5 7 8 9 9 6 8 6 4 7 6 6 5 5 3 3 3 1 0 0 1 2 2 1 0 -0 2 1
-10 -8 -5 -8 -8 -10 -9 -5 -9 -11 -11 -8 -8 -7 1 2 2 4 3 4 4 5 6 9 8 8 9 8 7 5 4 4 4 4 4 4 5 5 4 3 1 0 -0 -0 -0 -0 -0 1 2
-7 -5 -4 -5 -8 -6 -7 -5 -9 -10 -10 -10 -9 -9 -8 -3 0 3 3 4 5 6 6 7 9 10 9 8 7 6 5 5 3 4 5 4 5 4 4 2 1 -0 1 1 1 1 1 3 3
-5 -5 -4 -4 -8 -11 -10 -8 -6 -7 -7 -7 -7 -7 1 2 3 3 3 3 3 4 5 7 9 10 9 8 7 5 3 3 3 3 2 3 3 3 2 1 1 1 2 1 1 1 1 1 1
-8 -6 -5 -5 -7 -7 -7 -7 -5 -4 -5 -5 2 2 4 4 4 4 4 4 4 5 4 5 7 8 8 6 4 2 3 2 2 1 2 3 2 2 2 2 2 2 1 -1 -1 -2 -4 -5 -4
-6 -3 -1 -5 -6 -6 -6 -5 -4 -3 -2 1 1 2 3 3 3 4 5 4 4 6 7 7 7 5 2 2 1 1 1 0 2 2 3 2 3 3 3 2 -0 -1 -2 -2 -2 -3 -2 -4 -4
-1 0 -1 -2 -4 -4 -4 -3 -3 -3 -2 -1 -0 1 2 3 4 3 3 3 2 2 2 2 1 0 1 -0 1 2 0 0 2 2 2 3 2 2 1 -1 -2 -2 -2 -2 -2 -2 -2 -2 2
1 0 -0 -1 -1 0 -4 0 -2 -2 -1 -1 -0 -0 1 2 3 3 3 3 2 3 2 3 2 2 2 2 2 2 2 2 2 1 0 -0 -0 0 -0 -1 -1 -3 -6 -3 -3 -1 0 2 2
0 -2 -1 -0 0 1 0 0 -1 -1 1 1 0 -0 1 1 2 3 2 3 3 3 2 2 3 3 3 3 3 2 2 2 2 2 2 1 1 1 0 -0 -8 -10 -6 -4 -1 0 -1 -1 -1
-3 0 1 1 2 5 4 3 2 -0 1 2 2 1 1 1 1 2 2 3 3 3 3 3 3 3 3 2 2 3 2 2 3 2 2 1 1 0 -0 -8 -4 -2 -1 -0 -2 -2 -3 -3 -3
-0 2 7 7 8 7 6 5 6 2 1 2 2 1 1 1 1 2 2 2 3 3 3 3 3 3 3 3 2 2 3 2 2 2 0 0 -0 -2 -8 -4 -1 -1 -2 -3 -4 -3 -2 -1 -3
1 1 6 7 8 7 1 5 4 1 1 1 1 1 1 1 1 1 1 1 2 2 2 2 2 3 2 1 1 1 1 1 1 -0 -1 -1 -4 -4 -3 -2 -3 -3 -3 -2 -1 -1 -2 -2 -4
-0 3 -2 4 5 5 3 2 1 0 0 -0 0 1 1 1 1 1 1 1 1 1 1 2 2 2 1 1 1 1 -0 -2 -2 -3 -3 -4 -3 -3 -2 -3 -3 -3 -2 -2 -3 -2 -2 -3 -4
-1 -2 4 5 6 6 2 5 7 2 1 1 -1 -0 0 0 0 0 0 0 1 1 1 1 1 1 0 0 -0 -1 -2 -3 -4 -4 -2 -2 -2 -3 -5 -4 -4 -4 -4 -4 -4 -4 -5 -5 -9
1 2 1 2 4 5 5 2 1 3 2 2 0 0 0 -0 0 0 0 1 1 0 0 1 0 -0 -1 -1 -1 -2 -4 -5 -4 -3 -2 -2 -9 -8 -5 -4 -5 -5 -7 -7 -7 -6 -6 -7 -8
-2 -0 2 4 4 4 4 3 -3 1 -0 -1 -2 -1 -0 0 -0 -0 0 1 0 0 -0 -1 -2 -2 -2 -2 -3 -4 -5 -5 -5 -5 -4 -5 -8 -4 -4 -5 -7 -8 -10 -10 -10 -9 -9 -9 -9

GFSSGP_850_dewp_030.txt.gz
Dewpoint
-21 -27 -15 -6 -5 -4 -3 -3 3 5 8 9 9 10 10 10 11 13 14 13 12 11 11 11 11 10 11 11 11 10 9 9 10 9 8 6 5 6 6 7 8 8 7 7 6 5 3 1 1
-27 -10 -7 -6 -4 -2 1 1 7 7 8 8 8 10 11 12 14 15 14 12 12 10 11 10 10 9 7 5 3 2 2 2 2 1 2 2 2 1 1 2 3 1 0 0 -0 -1 -1 -2 -1
-27 -8 -7 -6 -4 -3 4 1 2 5 7 7 8 8 8 13 13 14 12 11 11 10 9 8 4 -2 -6 -6 -6 -4 -3 -1 -0 -1 -1 -1 -2 -1 -1 -2 -2 -2 -1 -2 -4 -10 -14 -13 -10
-15 -7 -8 -7 -6 -6 2 1 4 6 7 8 8 8 9 11 13 13 13 12 9 7 1 -5 -6 -6 -7 -7 -6 -4 -3 -2 -2 -1 -1 -1 -2 -5 -5 -4 -2 -2 -5 -11 -14 -12 -12 -13 -14
-5 -5 -6 -6 -4 1 -0 1 4 7 8 7 7 8 8 11 12 12 12 11 3 -5 -6 -5 -7 -8 -9 -10 -9 -8 -5 -3 -2 -1 -0 -1 -4 -6 -6 -4 -2 -3 -5 -8 -10 -10 -10 -9 -9
-6 -7 -6 -5 1 -1 -3 1 7 8 7 7 7 7 9 11 10 10 7 -0 -7 -6 -6 -6 -6 -7 -9 -13 -16 -9 -5 -2 -0 0 -1 -4 -6 -5 -4 -3 -2 -2 -3 -4 -5 -7 -7 -7 -7
-6 -6 -5 -6 -5 1 -2 -2 4 8 8 8 6 7 8 9 8 7 -2 -7 -5 -5 -4 -3 -2 -4 -9 -13 -14 -11 -7 -4 -5 -6 -5 -1 1 1 -1 1 2 2 1 1 0 1 -0 -1 -3
-7 -8 -7 -8 -2 -4 -6 -4 2 3 6 7 6 7 5 6 6 5 -1 -5 -3 5 7 5 0 0 -2 -9 -12 -9 -6 -4 -3 -0 3 0 -1 2 3 1 1 0 1 1 1 -2 -1 0 2
-7 -7 -7 -9 -6 -7 -10 -7 -4 5 7 4 6 5 4 4 4 4 4 6 8 8 9 8 4 3 5 7 5 5 4 4 2 2 2 0 1 2 -0 1 1 1 2 2 1 1 1 1 1
-8 -8 -10 -12 -10 -12 -14 -8 -6 2 7 8 7 6 4 3 3 3 5 7 8 9 9 8 4 3 6 7 8 8 7 6 6 6 3 -1 2 5 4 2 -0 1 1 2 1 1 1 1 1
-12 -14 -15 -14 -14 -14 -13 -11 -7 3 6 7 7 5 4 3 3 4 5 5 7 8 8 7 2 5 6 6 8 8 8 8 7 8 7 0 2 2 0 1 -1 -1 -1 0 2 2 2 1 1
-15 -16 -15 -14 -15 -15 -15 -15 -11 -7 3 3 6 7 5 4 4 4 4 5 7 8 8 8 0 0 5 8 7 6 7 7 8 8 8 -0 3 3 0 -0 -0 -0 2 2 2 2 2 2 1
-15 -16 -15 -12 -14 -17 -16 -13 -10 -9 1 4 7 5 5 5 4 4 4 5 7 8 8 8 3 -2 -2 1 6 7 7 7 7 8 8 1 -0 2 0 1 1 2 4 4 4 4 3 2 0
-16 -15 -15 -14 -12 -12 -11 -10 -10 -7 1 6 5 5 3 4 4 5 5 4 6 7 8 8 6 1 5 3 4 4 4 8 8 7 6 4 0 -0 -0 1 1 1 2 3 3 3 2 0 -0
-15 -14 -13 -13 -11 -11 -10 -8 -9 -5 4 6 5 5 4 4 4 5 5 5 5 7 7 9 8 7 5 3 4 7 5 6 6 6 6 5 4 4 4 3 2 2 0 -0 -0 -0 -0 0 0
-9 -8 -6 -9 -10 -10 -10 -7 -9 -6 3 5 5 5 4 5 5 5 5 5 5 6 7 9 8 6 8 4 4 6 4 7 6 5 5 4 4 5 5 4 4 3 2 0 0 1 1 1 0
-6 -6 -5 -6 -8 -8 -7 -6 -8 -12 -4 -0 2 0 3 4 4 5 5 5 5 6 8 8 9 9 7 6 6 6 5 5 5 4 5 5 5 5 5 4 3 3 2 1 1 2 -0 -2 -3
-3 -5 -4 -5 -7 -8 -9 -6 -6 -9 -9 -6 -1 4 5 5 6 6 6 7 7 8 9 9 9 7 9 8 7 6 6 5 4 3 4 4 3 3 2 2 2 2 2 2 2 -1 -3 -5 -5
-7 -5 -4 -6 -7 -7 -6 -4 -3 -3 2 4 5 5 5 6 6 7 7 8 9 9 9 9 9 9 8 8 7 5 3 2 2 3 3 3 3 2 3 3 2 2 1 -1 -2 -2 -3 -5 -6
-3 -2 -2 -4 -5 -7 -5 -3 -2 0 2 4 4 5 5 5 5 5 5 5 5 6 4 3 2 2 2 2 2 2 2 1 3 3 3 3 3 2 2 1 0 -1 -2 -2 -3 -4 -6 -4 -4
1 -0 -1 -2 -3 -4 -3 -2 1 -0 1 3 4 4 3 2 2 2 2 3 2 2 1 -0 0 2 2 1 1 1 1 1 1 1 1 1 1 1 1 0 -0 -0 -1 -3 -8 -10 -7 -2 -0
2 -1 -1 -1 -1 -2 -4 0 -1 0 1 1 3 4 3 3 2 1 1 1 -0 1 1 0 1 2 2 2 2 0 -1 1 1 1 2 2 2 1 1 1 -0 -3 -12 -10 -5 -1 -1 -2 -2
-0 -2 -1 -1 -0 1 0 0 -1 1 2 2 2 4 4 3 2 2 2 2 2 2 2 2 2 2 2 3 2 2 2 2 2 2 2 2 1 0 0 -1 -9 -15 -10 -3 -1 -2 -3 -4 -2
-3 -0 3 2 2 5 3 2 1 2 2 2 2 3 3 2 2 2 3 2 2 3 3 3 3 3 3 3 3 2 2 2 3 3 2 1 0 -0 -3 -11 -12 -7 -6 -4 -4 -3 -2 -2 -2
-1 4 6 6 6 6 5 6 4 2 2 2 2 2 2 2 2 2 2 2 3 3 3 3 3 3 3 3 2 2 2 1 1 1 0 -1 -3 -6 -7 -7 -4 -3 -4 -3 -3 -2 -3 -3 -3
-0 3 5 6 7 5 2 6 4 2 2 1 1 1 1 1 1 2 2 3 3 2 2 2 2 2 2 2 1 1 1 0 -1 -1 -3 -4 -4 -3 -3 -2 -4 -4 -4 -4 -4 -3 -3 -3 -5
0 2 -0 5 4 4 4 3 1 1 2 1 2 3 3 1 1 1 2 2 1 1 1 1 1 1 1 1 0 0 -1 -1 -1 -4 -7 -5 -3 -2 -7 -10 -5 -6 -5 -5 -6 -6 -6 -6 -6
-2 -2 4 4 4 6 3 5 6 4 3 2 1 1 1 1 0 1 1 1 1 1 1 1 0 0 -0 -0 -0 -1 -1 -2 -4 -7 -8 -8 -7 -6 -11 -11 -9 -7 -6 -7 -9 -9 -9 -9 -8
-0 1 1 2 3 5 5 2 -0 3 3 1 0 1 0 0 0 1 1 1 0 0 -0 -1 -1 -1 -1 -2 -3 -3 -3 -3 -5 -5 -7 -8 -6 -6 -10 -8 -6 -6 -7 -9 -10 -10 -9 -9 -10
-2 1 2 3 3 3 3 2 0 1 0 -0 0 0 0 0 1 1 1 1 0 -1 -2 -2 -3 -4 -4 -3 -3 -3 -4 -5 -5 -5 -6 -5 -5 -5 -10 -7 -5 -7 -8 -10 -10 -10 -10 -10 -9

GFSSGP_850_dewp_033.txt.gz
Dewpoint
-23 -26 -11 -6 -5 -4 -3 -4 2 7 10 9 10 10 11 13 12 13 14 13 12 11 11 11 11 10 10 10 10 10 9 8 8 7 4 2 3 3 3 4 4 3 1 -1 -1 -0 -1 -1 -1
-25 -15 -9 -7 -4 -2 3 1 6 9 9 9 10 11 12 14 14 14 14 13 12 11 11 11 11 11 10 9 7 5 4 3 0 -1 0 -0 -1 -0 -1 -1 -2 -2 -2 -2 -4 -6 -10 -10 -9
-17 -9 -8 -6 -4 -3 3 3 9 8 8 7 8 8 10 15 14 14 13 12 12 12 11 10 10 7 2 -2 -4 -3 -2 -2 -2 -2 -2 -2 -2 -3 -6 -6 -4 -4 -4 -8 -14 -15 -14 -14 -13
-10 -9 -9 -7 -6 -6 1 4 8 8 8 8 8 9 11 13 13 12 12 12 11 11 10 7 -0 -5 -6 -5 -4 -4 -3 -3 -2 -2 -2 -2 -5 -9 -8 -5 -4 -4 -8 -12 -12 -11 -10 -10 -10
-6 -7 -7 -7 -4 -1 0 3 6 7 8 8 8 8 10 12 13 12 11 11 10 8 0 -5 -6 -7 -8 -10 -10 -7 -6 -4 -3 -3 -3 -4 -8 -9 -6 -4 -4 -4 -5 -5 -6 -7 -8 -8 -8
-6 -8 -6 -3 3 1 -2 7 8 7 7 8 9 9 12 13 12 12 10 8 2 -6 -5 -6 -7 -8 -11 -14 -12 -8 -6 -5 -3 -3 -5 -7 -4 -2 -2 -2 -2 -2 -2 -3 -3 -2 -2 -2 -4
-7 -7 -6 -6 5 2 -1 7 7 7 8 7 8 8 14 13 10 8 5 -3 -5 -6 -6 -5 -7 -9 -13 -15 -15 -11 -9 -8 -9 -8 -3 -0 -1 -1 -1 -1 -3 -4 -2 -1 -1 -4 -4 -2 1
-6 -8 -7 -7 2 3 2 -0 8 8 8 6 6 7 11 10 5 -1 -5 -5 -5 -3 -0 -2 -4 -8 -12 -15 -13 -12 -9 -7 -4 1 1 1 1 0 -1 -2 -4 -3 -2 -1 -2 -1 -2 -2 -2
-7 -7 -7 -4 -2 -6 1 -5 2 7 6 5 7 7 9 7 -0 -5 -4 -4 5 7 6 3 -0 4 1 -2 -1 -0 0 0 -0 1 1 1 1 -1 -1 -1 -2 -0 -1 -0 -0 -0 -0 0 0
-6 -6 -7 -10 -5 -4 -9 3 5 6 7 7 5 7 8 5 2 -4 -3 3 8 7 7 6 -0 3 7 7 7 7 6 4 4 4 -2 -1 0 0 -0 -0 -0 0 1 2 2 2 3 3 2
-9 -12 -14 -13 -10 -9 -8 -2 2 7 8 6 4 6 6 5 4 3 3 2 3 6 7 7 1 5 6 7 7 5 5 5 4 4 4 -2 1 2 1 1 1 1 2 3 3 3 4 4 3
-14 -16 -14 -14 -14 -13 -11 -9 3 0 5 4 4 4 4 4 3 3 3 5 7 8 8 6 3 5 6 6 5 4 4 5 5 5 7 4 -1 2 2 1 1 2 4 4 4 4 4 4 3
-15 -15 -13 -15 -15 -16 -14 -11 -10 -6 3 5 5 4 4 3 3 2 0 3 6 7 8 8 3 3 -0 -0 3 2 4 5 7 7 8 7 3 2 2 1 1 1 1 2 2 2 1 1 -0
-16 -15 -13 -12 -13 -13 -10 -10 -9 -4 6 6 5 4 4 3 3 3 3 4 6 8 8 8 4 3 2 3 4 5 3 5 6 8 8 8 6 3 3 2 2 1 1 1 1 0 -0 0 1
-15 -13 -13 -12 -12 -11 -9 -9 -7 0 6 7 6 6 4 4 4 4 4 4 5 7 8 8 4 7 5 4 7 7 5 5 6 6 7 7 6 5 5 5 5 4 4 3 1 0 1 1 1
-9 -9 -8 -10 -10 -10 -10 -8 -10 3 7 7 7 6 6 6 5 5 5 4 5 7 8 8 6 5 9 8 8 7 7 7 7 7 7 6 6 6 6 6 5 4 4 3 2 2 2 2 0
-6 -6 -6 -6 -9 -9 -8 -7 -8 -0 6 6 6 5 5 6 5 5 5 5 5 6 9 9 9 9 9 7 8 8 6 7 5 5 6 6 6 6 5 5 4 3 2 2 2 2 1 -0 -1
-6 -5 -6 -5 -7 -7 -8 -7 -5 -6 1 3 4 4 5 6 6 6 5 5 6 6 8 9 9 8 8 8 8 6 6 6 5 4 5 5 5 4 3 3 2 2 2 2 0 -1 -2 -2 -3
-5 -6 -4 -6 -7 -7 -5 -2 -0 3 2 5 6 6 7 8 9 9 9 8 9 9 8 9 9 8 9 8 7 6 5 3 2 2 3 3 3 3 3 2 1 0 -0 -0 -1 -1 -2 -3 -6
-2 -3 -3 -4 -4 -4 -0 0 2 3 4 5 6 5 5 6 6 7 8 9 9 7 6 4 4 4 5 3 2 2 2 2 2 2 2 1 0 1 1 1 1 1 1 -2 -1 -3 -8 -9 -5
1 -1 -1 -2 -3 -4 -2 -0 2 2 4 5 5 5 5 4 4 4 5 5 4 2 0 0 0 0 1 0 1 1 0 -1 -1 -1 0 -0 1 1 1 1 1 0 -2 -14 -13 -10 -5 -3 -4
2 -1 -2 -2 -3 -1 -4 3 1 1 2 4 5 4 3 3 3 2 1 1 1 1 2 1 1 1 2 1 1 0 0 1 1 1 2 2 2 2 1 -0 -3 -11 -16 -15 -11 -6 -4 -3 -3
-0 -2 -2 -1 -0 0 0 2 0 2 3 3 4 4 3 2 2 2 2 2 2 2 2 3 3 3 3 3 2 3 2 2 2 2 2 2 2 0 -1 -6 -10 -11 -11 -9 -9 -6 -4 -2 -2
-3 0 2 3 2 4 2 1 2 3 3 3 3 4 3 2 2 2 2 2 3 3 3 3 3 3 2 3 3 2 2 2 2 2 1 -0 -2 -4 -8 -10 -11 -12 -12 -9 -8 -6 -4 -2 -4
-0 3 5 6 6 6 3 5 3 1 1 2 3 4 4 3 3 3 2 3 3 3 4 4 3 2 2 2 2 2 1 1 1 -0 -2 -7 -10 -11 -11 -9 -6 -15 -12 -9 -6 -5 -4 -6 -6
1 2 4 6 6 4 3 6 5 3 2 2 2 3 3 3 2 2 2 3 3 3 2 2 2 1 1 1 1 1 0 -0 -1 -3 -4 -6 -7 -9 -9 -5 -9 -12 -8 -9 -7 -7 -7 -8 -9
0 1 -0 5 3 4 4 3 2 2 2 2 2 2 2 4 2 2 2 3 2 2 1 1 1 0 -0 -0 -0 -0 -1 -2 -3 -3 -6 -5 -5 -6 -5 -5 -6 -12 -9 -7 -7 -8 -9 -9 -9
-3 -1 4 3 4 5 3 5 5 3 4 3 3 3 3 1 2 2 1 1 1 1 0 -0 -1 -2 -2 -1 -2 -3 -3 -4 -4 -5 -5 -5 -5 -5 -5 -5 -8 -10 -7 -6 -8 -9 -10 -9 -9
-0 1 1 2 3 5 4 3 -1 3 3 3 2 2 1 1 1 1 1 0 0 -0 -1 -1 -2 -3 -4 -4 -4 -5 -4 -4 -5 -4 -5 -4 -4 -4 -4 -6 -5 -4 -5 -6 -8 -10 -11 -10 -10
-2 1 0 1 1 3 2 2 -1 1 2 1 1 1 1 1 1 1 1 1 0 -0 -2 -4 -4 -5 -5 -4 -5 -4 -4 -4 -4 -4 -4 -6 -5 -3 -4 -4 -3 -7 -5 -8 -10 -12 -14 -12 -11

GFSSGP_850_dewp_036.txt.gz
Dewpoint
-24 -25 -7 -6 -7 -4 -4 -4 2 7 10 10 11 11 12 14 13 13 14 12 12 12 12 12 11 11 10 10 10 10 10 9 8 5 1 0 -2 -2 -0 1 0 -2 -3 -3 -3 -5 -6 -7 -6
-26 -10 -5 -7 -5 -4 -2 -2 7 9 10 10 10 11 13 14 14 14 14 14 12 11 12 12 11 10 10 10 10 8 5 3 -1 -2 -3 -4 -3 -2 -3 -5 -5 -4 -4 -8 -13 -15 -16 -15 -13
-19 -8 -8 -6 -4 -5 -0 4 9 9 8 8 8 8 11 14 14 14 14 14 12 12 12 12 11 10 9 5 -0 -2 -2 -3 -2 -4 -4 -3 -4 -10 -8 -6 -5 -7 -11 -13 -12 -11 -11 -11 -12
-13 -6 -9 -7 -7 -6 -1 8 8 8 7 8 5 9 8 14 13 13 13 12 12 13 12 11 10 5 -4 -6 -4 -4 -4 -4 -5 -5 -4 -5 -11 -9 -7 -5 -5 -6 -7 -8 -8 -9 -8 -8 -9
-7 -7 -8 -7 -5 -3 -4 6 7 8 8 8 4 9 11 13 13 12 12 12 12 12 11 7 -1 -6 -7 -6 -6 -6 -6 -5 -5 -3 -4 -9 -9 -8 -6 -5 -5 -5 -5 -5 -5 -3 -3 -3 -5
-6 -8 -6 0 3 2 6 6 7 8 8 8 9 10 12 12 12 12 12 12 11 10 1 -5 -7 -8 -9 -11 -11 -8 -7 -5 -3 -3 -7 -5 -4 -3 -2 -2 -2 -3 -2 -2 -4 -5 -4 -2 0
-7 -8 -6 1 4 3 5 6 7 7 7 8 10 11 13 13 12 11 11 11 6 -4 -6 -7 -8 -10 -13 -14 -11 -9 -6 -4 -5 -5 -2 -2 -2 -2 -2 -4 -4 -4 -3 -4 -3 -3 -3 -3 -3
-6 -8 -6 -4 3 4 -0 6 5 5 8 8 9 12 13 13 12 10 9 -0 -5 -5 -5 -6 -9 -12 -15 -12 -11 -10 -8 -7 -3 -1 -1 -0 -1 -1 -1 -3 -2 -1 -1 -2 -2 -1 -1 -1 -1
-8 -6 -6 -5 2 3 2 3 6 7 7 6 7 9 11 11 9 4 -2 -4 -4 -1 -1 -4 -6 -11 -13 -12 -10 -6 -4 -2 0 -0 0 2 2 1 0 -1 -0 -0 -1 -1 0 1 2 2 1
-6 -5 -6 -7 -4 2 2 2 4 6 7 6 7 9 10 6 2 -4 -4 -4 2 5 4 1 2 0 -0 1 -0 0 1 -2 1 1 1 2 2 1 2 0 0 1 1 2 3 3 3 3 3
-8 -6 -11 -11 -3 -2 -2 0 4 6 7 6 7 10 8 -0 -5 -5 -5 -4 1 6 5 2 3 4 5 3 3 3 2 3 5 5 3 -0 1 2 2 2 1 1 1 2 3 3 3 3 3
-10 -12 -14 -13 -6 -7 -0 -1 5 4 2 3 4 5 5 1 -3 -5 -6 -1 5 5 5 3 3 4 6 7 5 5 4 4 6 7 7 7 3 1 2 1 2 2 2 2 2 3 3 3 1
-13 -15 -13 -14 -12 -5 -6 -4 3 -4 4 4 5 5 5 4 3 1 -2 1 5 6 6 6 3 5 6 7 7 7 6 6 8 8 7 8 6 3 1 2 3 4 3 2 2 2 2 1 0
-15 -14 -13 -15 -14 -13 -11 -9 -7 -4 5 4 4 5 4 3 3 3 2 1 5 6 7 7 4 7 7 8 7 7 8 8 9 9 9 8 7 5 6 4 5 5 3 3 3 2 1 1 1
-15 -13 -13 -12 -12 -10 -10 -9 -8 2 5 4 4 5 5 5 4 3 3 3 4 6 7 8 5 8 8 8 8 8 6 7 8 9 9 9 8 6 6 6 6 5 5 4 4 3 2 2 2
-9 -9 -10 -11 -11 -10 -11 -10 -9 5 5 6 5 5 5 5 4 4 3 4 4 5 8 9 8 9 8 9 9 8 7 8 8 8 8 9 7 6 6 6 6 5 4 3 2 2 2 1 0
-7 -6 -7 -7 -10 -10 -9 -7 -6 7 7 6 6 6 6 5 4 4 4 4 4 5 7 9 9 10 8 9 6 9 7 7 7 6 6 7 6 6 6 5 3 2 2 1 1 0 -0 -0 -1
-6 -6 -6 -6 -7 -8 -7 -2 1 1 6 5 5 6 6 6 6 6 5 6 6 5 6 10 9 10 7 9 8 7 6 5 5 4 5 5 4 4 3 2 1 0 -0 -1 -1 -1 -5 -4 -4
-7 -7 -5 -6 -7 -3 2 3 3 4 5 5 6 6 7 7 7 8 8 7 8 9 9 10 9 8 9 7 5 6 6 2 1 1 0 1 1 -1 -1 -1 0 1 1 0 -0 -3 -10 -16 -14
-4 -4 -3 -4 -4 -1 2 3 3 4 5 5 6 6 8 9 10 10 10 11 10 9 7 5 5 4 3 2 2 1 0 -1 -2 -1 -1 -1 -0 0 1 1 1 1 -0 -2 -10 -20 -20 -18 -13
0 -1 -1 -2 -3 -2 -1 1 3 3 5 5 5 6 7 7 7 6 6 5 3 0 -0 -1 -1 -2 -2 -3 -4 -4 -2 -0 1 1 1 1 1 2 2 0 -1 -4 -12 -14 -16 -17 -17 -16 -13
1 -1 -2 -2 -4 -0 -3 1 2 3 4 5 5 5 4 4 4 3 2 0 0 1 1 1 1 0 0 1 1 2 1 1 1 1 2 2 2 -0 -7 -9 -12 -14 -13 -15 -16 -14 -11 -8 -5
-1 -1 -1 -1 0 -1 -0 2 2 4 5 5 4 4 4 3 2 0 1 2 2 2 1 2 2 2 3 3 3 3 2 1 2 2 2 1 -3 -8 -10 -12 -11 -10 -11 -15 -14 -11 -8 -5 -4
-2 1 2 2 2 4 2 1 2 4 4 4 4 4 3 3 2 2 2 2 2 2 3 3 3 3 3 3 2 1 1 1 1 1 -1 -4 -6 -6 -6 -8 -8 -8 -8 -14 -13 -10 -6 -4 -5
1 2 5 6 5 6 2 3 2 0 2 3 3 4 3 3 3 3 2 3 3 3 4 4 3 3 2 1 1 1 1 0 -1 -2 -3 -5 -5 -5 -6 -6 -6 -6 -6 -10 -12 -9 -7 -8 -8
2 1 5 6 7 5 2 6 4 2 1 2 3 3 3 3 3 3 3 4 4 4 4 2 2 1 0 -0 -0 -0 -1 -3 -4 -4 -5 -5 -5 -5 -5 -5 -4 -5 -7 -10 -10 -8 -8 -8 -10
1 1 -1 5 3 3 3 3 3 2 3 3 3 3 3 3 4 4 4 4 3 2 2 1 0 -0 -1 -1 -2 -4 -4 -5 -4 -5 -4 -4 -4 -4 -4 -5 -4 -5 -7 -7 -7 -6 -8 -9 -10
-2 -0 3 3 3 4 3 4 5 4 4 3 2 3 2 3 2 3 3 2 2 1 1 0 -1 -2 -2 -4 -4 -5 -6 -4 -4 -4 -4 -4 -4 -6 -6 -4 -4 -6 -5 -4 -4 -6 -8 -10 -10
-0 1 1 2 2 4 4 3 1 3 3 3 2 2 3 2 2 2 1 1 0 0 0 -1 -3 -4 -4 -4 -4 -5 -5 -4 -4 -4 -5 -6 -8 -9 -10 -5 -4 -5 -3 -5 -6 -5 -10 -12 -12
-2 0 -1 -1 -1 2 2 2 -1 1 2 2 2 2 2 2 1 1 0 0 0 -1 -3 -4 -4 -4 -5 -5 -4 -5 -5 -6 -8 -9 -10 -11 -11 -10 -11 -8 -5 -5 -4 -5 -5 -7 -10 -11 -10

GFSSGP_850_dewp_039.txt.gz
Dewpoint
-15 -24 -13 -5 -5 -5 -6 -5 1 10 11 11 11 11 12 13 13 13 14 13 12 12 12 12 12 11 10 10 10 10 10 10 9 8 4 1 -1 -1 -1 -2 -4 -4 -4 -5 -8 -11 -13 -11 -9
-21 -23 -6 -6 -6 -8 -8 -3 9 10 11 10 10 11 12 14 14 14 14 13 12 12 11 11 11 11 10 10 10 10 8 6 3 -1 -2 -3 -3 -6 -7 -5 -4 -6 -11 -13 -13 -12 -13 -13 -13
-21 -8 -6 -6 -5 -8 -4 8 10 11 10 9 9 9 9 11 11 13 13 13 12 12 11 11 11 11 11 11 8 5 2 -1 -2 -4 -4 -4 -9 -7 -5 -5 -8 -11 -11 -10 -10 -9 -9 -9 -9
-16 -7 -9 -6 -4 -6 1 9 9 9 8 8 8 9 10 10 10 13 14 14 11 11 12 12 12 11 9 4 -0 -2 -2 -4 -5 -5 -4 -9 -8 -6 -4 -5 -6 -6 -6 -6 -5 -5 -5 -6 -6
-8 -7 -7 -6 -4 -2 1 8 8 8 7 7 7 8 12 13 13 13 14 12 11 12 12 12 11 6 0 -1 -3 -3 -6 -6 -5 -3 -7 -8 -6 -4 -4 -4 -4 -4 -3 -3 -4 -4 -3 -2 -2
-5 -8 -5 4 4 2 7 8 8 7 7 8 9 11 12 14 13 12 12 11 11 11 11 8 3 -2 -4 -5 -9 -7 -7 -4 -3 -6 -7 -4 -3 -2 -2 -3 -2 -2 -4 -4 -4 -4 -3 -3 -4
-6 -6 -3 2 5 7 8 8 6 6 7 8 9 12 13 14 12 12 11 12 11 10 3 -1 -4 -7 -8 -10 -9 -7 -4 -3 -5 -3 -1 -1 -1 -2 -4 -3 -3 -3 -3 -3 -4 -3 -2 -2 -3
-6 -7 -3 2 5 6 4 7 2 3 7 8 9 12 13 13 12 12 11 11 7 -1 -4 -6 -8 -11 -12 -9 -7 -4 -3 -4 -1 -0 0 -0 -1 -2 -3 -3 -2 -2 -2 -3 -2 -1 -0 -0 -1
-7 -6 -6 1 6 7 4 4 3 5 7 7 7 11 12 12 11 11 9 4 -2 -5 -5 -7 -10 -12 -11 -9 -7 -6 -5 -2 -0 0 1 0 -0 -1 -2 -2 -2 -2 -2 -1 0 1 1 1 1
-6 -5 -6 -6 4 7 4 4 4 7 7 6 8 11 12 11 10 7 0 -4 -5 -2 -3 -6 -9 -11 -11 -9 -6 -5 -2 1 1 0 1 1 1 1 1 0 0 0 1 1 2 2 2 3 3
-6 -5 -7 -9 -0 3 1 3 6 6 7 6 9 12 11 8 4 -3 -5 -6 -2 2 2 -1 -1 -4 -1 0 1 4 2 3 4 3 0 1 3 4 3 3 2 1 1 2 3 3 3 3 2
-7 -10 -12 -10 -3 -2 1 3 6 5 3 5 6 9 7 5 -3 -6 -6 -4 3 5 4 2 4 5 6 6 7 7 6 6 8 8 8 6 5 7 6 5 4 2 2 2 2 2 3 3 1
-8 -13 -13 -8 -8 -2 -0 4 5 1 4 4 9 9 3 -4 -6 -6 -6 -2 5 6 6 3 6 6 7 8 8 8 9 9 9 9 9 9 8 6 6 5 4 3 4 3 2 3 3 2 1
-12 -13 -14 -13 -7 -4 -8 -5 1 1 4 6 7 7 4 -1 -3 -5 -5 -3 5 7 7 6 5 7 7 7 8 8 9 9 9 9 8 8 8 7 6 6 5 5 5 4 4 4 3 3 2
-14 -11 -11 -11 -11 -10 -10 -9 -8 1 4 6 7 6 4 2 -1 -2 -3 -1 4 7 8 8 7 8 8 8 9 6 7 7 8 7 7 7 8 8 6 6 6 6 6 4 3 2 2 1 1
-9 -9 -9 -10 -11 -10 -11 -8 -5 7 5 6 6 6 5 4 3 2 2 4 5 6 7 9 9 8 9 8 7 5 6 8 7 7 7 7 8 7 7 7 5 4 3 2 1 -0 -1 -1 -2
-6 -7 -6 -7 -9 -9 -9 -5 -1 7 6 6 6 5 5 5 5 5 5 4 5 5 6 8 10 9 9 8 7 6 8 8 7 6 5 6 5 5 4 3 2 0 -0 -0 -0 -0 -1 -3 -7
-5 -5 -5 -6 -6 -2 -4 2 2 4 6 6 6 6 6 5 5 5 5 5 5 5 5 8 9 10 9 8 8 8 6 5 4 2 2 2 2 2 1 -0 0 1 0 -1 -2 -5 -11 -19 -20
-7 -6 -5 -5 -5 2 3 4 4 5 6 6 6 6 6 6 6 7 6 6 7 8 8 8 10 10 8 7 7 5 4 1 -1 -1 -1 -1 -0 0 1 1 1 -2 -5 -9 -15 -17 -19 -17 -21
-4 -3 -2 -3 -3 1 3 4 5 5 5 6 6 6 7 8 9 9 10 10 10 9 9 10 8 1 1 2 2 1 -1 -1 -1 0 1 0 1 1 2 -0 -7 -12 -15 -13 -12 -14 -16 -16 -17
-0 -1 -1 -2 -1 -1 1 2 4 5 5 5 6 7 8 9 9 7 8 6 2 2 1 -1 -2 -2 -2 -1 -2 -2 -1 -0 0 1 1 1 2 2 -1 -5 -9 -12 -11 -11 -12 -13 -16 -14 -9
1 -1 -2 -3 -2 -0 -2 -1 3 5 6 5 6 6 7 7 6 4 1 0 0 0 -0 -0 0 0 0 1 1 2 2 1 1 1 1 2 1 -4 -8 -7 -8 -8 -8 -8 -8 -11 -16 -15 -3
1 -0 -0 -1 0 -0 -0 -0 2 5 7 6 5 5 6 6 4 1 1 1 1 1 1 2 2 2 2 2 2 2 1 1 2 2 2 -3 -5 -7 -7 -7 -7 -6 -6 -6 -6 -9 -13 -10 -4
1 1 2 2 3 4 2 1 1 6 6 6 5 5 4 4 2 2 2 2 2 2 2 2 2 3 3 2 2 1 1 1 0 -1 -3 -4 -5 -5 -5 -5 -5 -4 -4 -5 -6 -8 -10 -10 -8
1 2 5 6 7 5 3 4 3 1 2 5 5 4 4 3 2 2 2 2 2 2 4 3 3 3 2 1 0 0 -0 -2 -4 -4 -5 -5 -5 -4 -4 -4 -5 -6 -4 -5 -6 -7 -6 -6 -7
2 2 7 6 7 6 2 5 3 2 1 4 4 4 3 3 2 2 3 3 3 4 4 4 3 2 1 -1 -0 -2 -4 -5 -5 -4 -5 -4 -4 -4 -4 -5 -6 -5 -4 -5 -6 -7 -6 -5 -6
2 2 0 5 4 5 2 3 2 2 2 3 4 4 4 3 3 4 4 4 4 4 4 3 1 0 -1 -1 -4 -5 -5 -5 -4 -4 -4 -4 -5 -5 -5 -5 -9 -13 -8 -6 -6 -5 -4 -5 -7
-0 0 4 3 4 3 1 3 3 4 3 3 3 4 4 3 4 4 4 4 4 3 1 0 -1 -2 -3 -4 -4 -4 -4 -5 -5 -4 -5 -5 -7 -10 -11 -11 -12 -13 -6 -4 -4 -5 -5 -7 -9
1 2 2 2 3 2 3 -1 2 3 3 3 3 3 3 3 3 3 3 3 2 0 -1 -2 -4 -4 -4 -4 -4 -4 -5 -6 -6 -8 -10 -12 -11 -11 -11 -11 -11 -7 -5 -3 -4 -5 -5 -8 -10
-1 1 1 1 -1 3 3 1 -1 1 2 3 3 3 2 3 3 2 1 0 -0 -1 -3 -5 -3 -2 -3 -4 -4 -6 -7 -12 -14 -13 -13 -11 -12 -10 -9 -11 -9 -4 -3 -4 -5 -4 -5 -7 -9

GFSSGP_850_dewp_042.txt.gz
Dewpoint
-8 -18 -17 -4 -4 -7 -5 -3 5 10 11 11 10 10 11 12 12 14 14 14 14 14 13 12 11 11 11 10 10 10 10 10 10 9 7 3 1 0 0 -1 -4 -4 -6 -9 -14 -15 -14 -13 -12
-13 -20 -8 -6 -6 -6 -5 -6 5 10 11 10 10 10 10 12 14 14 14 14 13 13 14 12 11 11 10 10 10 10 10 10 8 3 0 -1 -1 -4 -6 -5 -6 -11 -14 -13 -11 -11 -10 -11 -11
-18 -16 -6 -6 -5 -3 -5 3 9 11 11 11 9 10 9 11 14 14 14 14 13 14 14 12 11 11 11 11 11 11 9 5 2 -1 -2 -3 -7 -5 -4 -8 -11 -10 -9 -9 -8 -8 -8 -8 -7
-10 -9 -8 -6 -6 -7 -1 8 10 8 8 9 10 11 11 11 10 10 13 13 14 14 14 11 11 11 11 11 10 8 3 2 -1 -2 -5 -8 -6 -4 -6 -7 -6 -6 -5 -3 -3 -3 -3 -3 -3
-8 -8 -10 -9 -7 -5 0 7 7 7 7 6 6 7 11 12 12 7 13 12 14 14 14 11 12 12 11 7 5 3 0 -2 -2 -4 -8 -6 -4 -5 -5 -4 -4 -3 -3 -5 -5 -5 -5 -5 -5
-9 -9 -10 -9 -4 -0 5 6 5 6 4 6 6 8 12 13 12 12 14 13 11 11 12 12 12 10 6 3 1 -1 -2 -2 -2 -6 -6 -4 -3 -2 -2 -1 -1 -4 -3 -3 -4 -4 -4 -5 -4
-9 -11 -8 -3 0 4 7 6 5 4 4 6 9 9 13 14 14 14 14 11 12 12 13 12 10 4 1 -0 -3 -2 -1 -1 -4 -4 -2 -1 -1 -2 -2 -1 -2 -3 -2 -2 -2 -2 -2 -1 -2
-7 -10 -2 0 3 7 7 3 5 3 4 8 10 9 13 13 12 12 12 12 12 12 12 11 11 9 0 -5 -3 -2 -1 -3 -1 -0 -0 -0 -1 -2 -1 -0 -2 -2 -2 -2 -0 -0 0 -0 -0
-6 -8 -2 4 5 7 6 3 3 4 5 7 8 11 13 13 12 13 13 13 12 6 -1 6 10 6 8 8 -2 -0 -1 -0 1 1 2 1 3 -0 2 -1 -1 -2 -1 -0 0 1 1 1 2
-7 -8 -6 -0 4 4 3 3 3 4 6 6 8 12 13 13 13 13 13 11 7 3 7 4 -2 -4 0 7 -0 0 -2 5 7 7 5 9 4 7 8 0 -0 -0 0 1 1 2 2 3 5
-8 -7 -7 -7 3 2 2 2 3 2 5 5 6 12 13 13 13 12 9 4 4 6 4 -0 -8 -6 -2 0 2 7 8 7 6 5 7 7 6 7 9 9 8 4 1 5 5 5 5 2 3
-7 -9 -10 -7 2 0 3 2 4 3 2 5 6 12 12 11 10 6 3 2 4 6 4 -1 -6 -4 -2 4 8 6 9 7 9 9 8 6 9 8 8 9 5 4 5 4 4 6 2 3 2
-7 -10 -10 -2 -0 -1 1 2 3 2 5 7 10 11 10 8 4 1 0 2 6 7 7 4 2 4 5 7 7 8 9 10 9 9 9 9 9 8 7 6 6 4 4 6 5 5 5 4 4
-8 -12 -10 -6 -2 -2 0 3 3 3 6 9 11 9 5 4 1 1 1 3 6 8 9 7 6 5 7 8 8 8 8 9 9 9 9 7 7 8 8 7 6 6 6 5 5 4 4 3 3
-12 -11 -11 -9 -4 -4 -3 -0 -5 3 6 8 7 6 3 1 0 0 0 1 5 8 10 7 7 7 7 8 9 5 5 8 8 9 8 7 7 8 8 7 7 6 5 3 3 1 2 2 2
-11 -11 -8 -8 -5 -8 -7 -6 -2 5 5 6 6 5 4 3 2 3 4 3 4 8 11 9 7 7 8 9 6 5 4 5 6 7 7 7 7 7 7 6 5 3 1 0 1 1 1 0 -1
-10 -9 -10 -9 -9 -7 -8 -6 -1 5 4 5 5 5 4 5 6 7 7 7 6 8 10 7 9 8 8 9 8 7 6 8 6 5 5 4 4 4 3 2 0 1 1 1 -0 -2 -3 -4 -4
-6 -11 -10 -10 -8 -10 -8 -2 -2 5 4 4 5 5 5 6 6 8 5 5 7 8 8 6 7 9 9 9 8 6 7 5 4 1 0 -1 -0 0 0 1 1 -0 -2 -3 -8 -6 -4 -4 -3
-8 -7 -9 -8 -5 -5 -5 -2 -1 5 5 5 5 6 6 6 8 8 6 6 7 7 7 8 8 9 9 8 7 6 5 1 -1 -0 -0 0 0 1 1 1 -1 -3 -3 -4 -3 -4 -5 -6 -3
-7 -6 -4 -3 -5 -2 -0 1 1 3 5 5 5 6 7 8 9 10 10 11 11 11 10 9 10 7 4 5 4 4 1 -0 0 0 1 1 1 2 1 -2 -2 -4 -5 -4 -4 -4 -4 -6 -5
-3 -3 -2 -3 -2 -1 -1 1 3 3 5 6 6 6 7 8 10 11 11 11 11 10 10 9 7 -1 2 3 2 1 -0 0 1 1 1 1 2 1 -1 -3 -6 -9 -4 -3 -2 -3 -3 -4 -5
-2 -2 -3 -2 -2 -3 -2 -3 2 3 3 4 6 7 8 8 8 8 7 8 8 8 7 5 4 3 -1 0 3 4 3 3 3 2 2 2 2 -0 -4 -6 -6 -4 -2 -1 -2 -4 -2 -3 -4
-0 -3 -2 -3 -2 -2 -1 -2 0 3 4 4 5 7 7 7 6 4 3 3 3 2 4 2 1 4 1 1 3 4 4 3 2 2 2 0 -1 -4 -6 -3 -2 -1 -1 -2 -1 -1 -2 -3 -3
-0 0 0 0 0 1 -2 -0 -7 -1 1 4 5 7 7 6 4 2 2 3 3 1 1 4 4 2 2 3 3 3 2 3 2 1 -0 -2 -2 -3 -2 -1 -1 -1 -1 -2 -2 -2 -2 -2 -3
-0 -1 -1 1 2 1 2 2 -4 -0 1 3 5 6 6 5 3 3 3 3 4 5 5 4 5 5 4 3 2 1 2 1 -1 -2 -3 -3 -4 -3 -3 -1 -1 -3 -3 -3 -3 -3 -3 -3 -3
-0 -1 -1 -1 1 1 2 2 1 1 1 2 5 5 5 3 3 3 3 3 4 5 5 5 5 4 2 1 0 -1 -1 -2 -3 -2 -2 -2 -2 -1 -1 -1 -2 -3 -4 -4 -3 -3 -3 -3 -3
1 1 0 4 5 5 -1 0 0 1 2 1 5 5 3 3 3 3 4 4 5 5 6 5 4 3 -0 -1 -3 -5 -5 -6 -3 -4 -3 -1 -1 -2 -5 -5 -6 -6 -5 -4 -3 -3 -3 -3 -4
0 -0 2 2 3 -1 -5 -2 -5 2 2 2 4 4 3 3 3 4 4 5 5 5 4 4 3 1 -2 -4 -5 -5 -4 -4 -6 -6 -2 -3 -6 -7 -7 -7 -7 -6 -5 -5 -4 -4 -5 -4 -4
1 1 0 -1 2 -2 -3 -7 -0 0 1 2 3 3 2 3 4 4 5 5 4 3 2 1 -1 -3 -3 -4 -4 -4 -3 -6 -6 -6 -7 -7 -7 -7 -7 -7 -6 -5 -5 -4 -4 -3 -4 -4 -4
-1 -0 -1 -1 -1 3 3 -4 -3 0 2 1 2 2 3 3 4 4 3 3 2 1 1 -0 -3 -2 -3 -4 -3 -4 -7 -8 -7 -8 -8 -6 -6 -6 -6 -6 -5 -5 -4 -5 -5 -4 -5 -5 -5

GFSSGP_850_dewp_048.txt.gz
Dewpoint
-12 -11 -10 -6 -7 -6 -6 -6 -8 7 6 10 10 10 13 13 14 16 14 14 14 11 9 8 7 9 10 9 7 7 8 9 10 10 9 6 4 2 -1 -6 -6 -10 -15 -15 -13 -11 -10 -10 -10
-10 -4 -8 -12 -7 -6 -7 3 8 12 12 10 9 10 11 14 14 14 14 14 14 11 10 9 8 8 8 8 9 9 10 10 10 8 4 2 1 -4 -6 -7 -13 -13 -11 -9 -8 -7 -7 -6 -6
-11 -7 -11 -11 -8 -4 -6 8 6 9 9 9 9 9 10 13 13 14 14 14 14 14 11 10 9 9 9 10 10 10 10 10 6 2 0 -1 -6 -6 -7 -11 -10 -8 -7 -6 -6 -6 -7 -8 -8
-6 -10 -13 -10 -6 -8 -2 5 7 8 7 7 8 9 10 11 12 14 14 15 14 14 12 11 11 10 10 10 10 10 10 5 1 -2 -3 -7 -5 -7 -9 -8 -6 -5 -5 -6 -7 -7 -7 -7 -6
-9 -11 -11 -9 -8 -9 -9 5 6 6 6 7 7 9 8 9 9 13 14 13 14 13 12 11 11 11 11 10 10 9 4 -0 -3 -3 -8 -6 -5 -7 -6 -5 -4 -6 -6 -6 -7 -6 -4 -2 -2
-9 -13 -8 -5 -7 -11 8 10 9 8 6 5 6 5 9 8 9 12 13 14 14 11 10 11 11 11 11 10 9 6 2 -1 -1 -7 -6 -5 -5 -4 -4 -3 -5 -5 -6 -6 -5 -3 -2 -2 -1
-10 -8 -7 -6 -6 -6 7 8 9 11 7 8 8 7 11 12 10 10 10 11 11 10 12 11 12 11 10 9 6 3 -1 -2 -5 -6 -4 -3 -1 -2 -2 -4 -4 -4 -4 -3 -2 -1 -1 -1 -1
-11 -9 -7 -7 -6 10 8 8 10 7 7 5 6 9 11 12 11 9 11 10 10 10 11 11 11 9 6 4 3 0 -2 -2 -5 -2 0 -1 -2 -1 -2 -1 -2 -3 -3 -2 -1 0 0 0 5
-11 -8 -5 -4 7 9 7 8 9 4 4 5 5 10 11 11 10 9 7 11 11 11 11 10 8 4 0 -2 -1 -1 -1 -3 -0 2 5 7 7 9 6 0 -2 -2 -2 -1 0 1 2 6 6
-10 -6 -6 2 6 8 8 8 9 2 2 2 10 13 14 13 11 9 9 12 8 11 10 11 10 7 6 -1 -0 1 0 4 6 3 10 9 10 10 8 8 8 6 2 3 7 7 7 7 6
-10 -6 -7 4 5 6 7 6 6 2 4 3 10 13 13 14 13 13 12 11 10 9 10 10 10 9 9 5 9 6 10 10 11 8 11 10 8 9 9 10 9 8 7 8 8 7 7 6 6
-9 -7 -8 3 5 7 7 7 7 5 4 1 10 12 12 12 13 12 11 8 7 8 9 9 9 8 8 8 8 9 9 10 9 10 9 9 7 9 8 10 9 8 8 8 7 7 7 6 6
-8 -8 -6 -8 3 -1 3 5 5 6 1 7 10 9 10 10 11 12 5 5 6 7 7 1 4 8 6 9 8 9 10 10 10 9 8 8 8 8 6 7 8 9 7 7 7 7 6 5 5
-9 -6 -3 -1 -2 -2 3 3 4 1 7 9 7 7 7 9 7 2 2 5 6 6 7 7 5 8 10 10 9 9 9 9 8 8 9 9 9 8 8 9 9 8 7 7 6 5 3 2 2
-5 -2 -3 -2 -1 -1 5 7 5 1 5 6 5 5 6 3 -0 1 3 5 6 7 8 9 10 11 11 10 9 7 8 7 7 7 6 6 7 7 7 8 8 8 6 4 2 1 0 -1 -3
-6 -4 -1 -5 -2 -1 1 7 1 1 3 4 3 3 1 -1 -1 1 4 6 7 8 9 10 11 11 9 7 6 5 4 1 4 4 5 6 7 7 7 6 6 4 1 2 1 -1 -2 -4 -4
-4 -3 -4 -4 -6 -3 -1 -0 -2 -0 1 2 1 0 -1 -1 -0 1 3 6 8 9 10 11 11 10 9 7 7 6 4 4 3 4 5 3 1 1 1 -1 -1 0 1 0 -0 -1 -3 -4 -4
-3 -5 -6 -5 -6 -6 -3 -6 -4 -1 1 1 -0 -2 -2 -2 -1 1 2 3 8 10 11 11 11 10 8 6 7 8 7 6 3 4 2 -2 -2 -1 4 3 2 0 -0 -1 -2 -2 -2 -3 -3
-6 -6 -4 -7 -8 -8 -9 -5 -7 -4 -1 1 1 0 -0 -1 2 4 5 5 5 10 11 11 11 10 9 8 8 7 5 5 5 1 -2 -1 2 1 1 2 1 0 -1 -1 -2 -2 -2 -2 -3
-8 -4 -5 -10 -12 -11 -9 -9 -5 -5 -3 0 2 2 2 3 4 7 7 7 7 9 11 11 11 10 9 10 9 7 7 4 2 3 1 3 2 2 1 1 1 -0 -1 -4 -3 -2 -2 -2 -2
-7 -1 1 -1 -5 -10 -7 -8 -4 -4 -4 -3 0 2 3 4 6 8 9 9 9 11 12 11 11 9 9 9 7 6 4 4 4 4 3 4 2 2 1 1 0 -1 -3 -3 -2 -2 -2 -2 -3
1 0 -3 -0 2 -4 -1 2 1 -3 -1 -1 -1 1 3 4 6 8 9 11 11 11 11 10 10 9 9 6 5 5 4 3 3 3 4 4 3 2 1 -0 -1 -2 -1 -2 -2 -2 -3 -3 -2
1 1 -0 -5 -5 -2 1 2 3 1 0 -0 2 2 2 4 5 8 9 10 10 11 9 10 10 7 6 4 4 4 4 3 3 4 3 3 3 2 0 -2 -2 -1 -1 -2 -2 -3 -3 -4 -4
-1 -0 -3 -3 -0 3 4 3 3 2 2 1 1 3 4 5 7 8 9 9 11 10 10 8 6 4 5 5 4 4 5 4 3 3 3 2 1 -1 -3 -2 -2 -2 -2 -2 -3 -3 -4 -5 -4
-4 -2 4 10 10 5 -6 -2 -3 2 0 2 2 4 5 7 7 7 8 8 8 7 5 5 5 5 6 5 6 6 5 4 3 2 1 -1 -2 -3 -3 -3 -2 -1 -3 -4 -5 -6 -6 -5 -4
2 -1 8 8 9 5 2 -2 1 -1 -2 -0 2 3 6 6 6 5 6 5 6 6 6 5 5 5 5 6 6 5 4 2 1 -1 -1 -1 -1 -2 -1 -2 -2 -5 -6 -6 -6 -6 -6 -6 -4
1 -0 -1 -0 7 9 -3 -9 1 -1 -1 -0 2 4 6 6 5 3 3 3 4 5 6 6 5 5 5 5 5 4 2 -0 -1 -1 -1 -1 -1 -1 -4 -6 -7 -7 -6 -6 -6 -6 -5 -5 -4
-4 -4 1 -0 3 3 -4 -5 4 -1 -1 -1 2 4 6 6 5 3 3 2 4 5 6 6 5 5 5 5 4 2 1 -0 -1 -1 -2 -1 -2 -5 -6 -7 -7 -7 -6 -6 -6 -6 -5 -4 -4
-0 -0 -4 -5 1 6 7 -0 -5 -4 -3 -1 -1 3 5 5 5 3 3 3 4 5 5 6 6 5 4 4 2 0 -0 -1 0 -1 -3 -5 -6 -6 -6 -6 -6 -6 -6 -6 -6 -5 -4 -5 -8
-4 -2 -3 8 2 4 8 3 -5 -4 -3 -3 -2 2 4 5 4 3 3 3 4 5 6 6 6 4 3 2 1 -1 1 -2 -2 -4 -5 -7 -6 -5 -5 -5 -6 -5 -5 -5 -4 -3 -4 -7 -5

GFSSGP_850_dewp_051.txt.gz
Dewpoint
-17 -13 -8 -4 -5 -4 -3 -5 -2 12 12 10 12 13 14 14 14 15 15 14 12 10 5 5 8 12 12 11 6 7 9 9 9 7 1 -1 -3 -6 -8 -9 -14 -14 -12 -10 -8 -7 -7 -7 -7
-18 -4 -2 -3 -7 -4 -5 3 13 11 12 8 10 12 13 15 14 15 14 14 13 9 6 7 8 11 11 7 8 9 10 9 6 -0 -3 -5 -8 -8 -9 -13 -11 -9 -8 -7 -7 -8 -9 -10 -10
-11 -6 -7 -9 -9 -6 -3 6 12 10 9 9 9 10 12 14 14 14 14 14 11 7 8 8 9 9 8 9 10 10 10 7 0 -4 -5 -9 -8 -8 -11 -10 -8 -7 -7 -7 -8 -9 -8 -7 -8
-9 -8 -9 -10 -9 -9 -9 6 8 8 8 9 8 10 11 12 14 14 14 14 12 9 8 8 8 9 10 10 10 10 8 1 -3 -4 -11 -9 -7 -9 -8 -7 -6 -7 -7 -8 -8 -5 -3 -3 -3
-7 -7 -8 -10 -10 -10 9 7 8 8 7 7 7 9 11 13 14 14 14 14 13 10 9 10 10 10 10 10 10 9 2 -2 -3 -9 -9 -7 -8 -7 -6 -6 -7 -7 -7 -6 -4 -3 -2 -2 -1
-5 -9 -9 -7 -8 9 9 8 8 7 7 7 8 8 10 9 13 14 14 14 12 12 11 11 11 10 11 10 8 2 -1 -4 -6 -10 -7 -6 -6 -5 -5 -6 -6 -6 -5 -4 -3 -2 -2 -1 -1
-7 -8 -6 -7 -7 10 9 9 9 9 7 7 7 10 10 8 12 13 13 13 11 10 9 9 10 12 11 8 3 -1 -4 -4 -8 -6 -5 -4 -4 -4 -5 -5 -5 -5 -4 -2 -2 -1 -1 1 5
-9 -10 -8 -8 3 10 9 10 8 7 7 6 5 10 12 11 10 11 11 11 11 9 8 10 11 10 8 4 -1 -3 -2 -5 -6 -3 -3 -4 -4 -3 -2 -4 -4 -4 -3 -2 -1 0 1 6 6
-9 -8 -7 -3 8 9 8 8 6 4 7 6 6 9 11 11 10 11 11 10 10 10 11 9 10 8 4 -1 -3 -2 -3 -5 -2 -2 -1 1 3 6 4 7 4 0 -1 1 6 7 6 6 6
-10 -7 -6 4 7 8 8 8 8 7 6 8 10 8 11 12 10 11 11 9 9 9 11 10 6 4 0 -3 -3 -2 -2 -0 1 7 8 5 8 7 9 9 8 6 7 8 7 7 7 7 7
-11 -7 -2 4 5 6 6 8 7 9 6 4 10 9 11 11 8 11 9 8 7 10 10 9 8 2 -2 -3 -1 3 4 3 8 9 10 8 8 8 10 10 8 7 8 8 8 7 7 7 6
-9 -10 -4 0 6 7 7 4 7 6 4 4 8 10 10 10 8 10 9 8 10 11 11 9 10 8 5 3 3 6 6 7 7 11 10 10 9 10 8 9 8 8 7 7 8 7 7 6 6
-9 -9 -6 3 5 6 7 5 5 6 3 8 9 11 11 11 11 10 10 10 10 10 10 10 9 8 7 8 9 10 10 10 9 7 8 7 7 9 8 7 9 9 8 7 7 7 6 6 4
-4 -3 -3 1 2 3 7 6 3 2 4 7 10 10 10 10 10 6 9 9 9 8 8 8 7 7 8 8 9 9 9 9 9 8 8 8 9 8 8 7 8 8 8 7 7 6 3 0 -2
-4 -3 -3 -2 3 4 -2 4 4 5 9 9 10 9 9 3 3 6 6 6 7 6 2 4 6 8 9 8 9 9 9 7 7 7 7 7 8 7 7 8 8 8 7 6 3 -2 -2 -3 -8
-4 -3 -1 -2 3 4 1 7 3 3 6 7 7 8 7 4 4 5 5 6 6 6 3 2 7 9 10 8 7 8 8 7 6 5 4 5 6 7 7 7 6 4 -0 -3 -1 -2 -4 -10 -11
-4 -2 -3 -3 2 4 2 4 2 3 5 4 4 2 2 3 2 4 6 6 7 7 6 8 8 9 9 8 8 6 5 3 4 4 4 4 3 1 -1 -2 -2 -2 -1 -1 -2 -4 -8 -6 -7
-1 -1 -3 -4 -4 1 1 -0 -0 2 3 2 1 -1 -1 -0 2 4 6 7 8 8 7 8 9 9 8 7 5 5 6 6 4 4 4 0 -3 -3 -3 -3 -1 -0 -1 -1 -3 -3 -3 -4 -4
-4 -3 -3 -5 -6 -4 0 -1 -0 1 1 1 1 -1 -1 -0 1 3 7 8 8 9 10 9 9 10 8 7 6 7 8 8 6 5 2 -3 -3 -1 -0 0 -0 -0 -0 -1 -4 -4 -5 -5 -3
-4 -3 -2 -2 -7 -7 -7 -5 -3 -2 1 1 -1 -2 -2 -1 0 1 4 8 9 10 10 10 10 9 8 8 8 8 7 6 5 3 -2 -3 -2 -0 -0 0 0 -1 -1 -3 -7 -7 -5 -3 -3
2 1 -1 -0 -1 -5 -4 -4 -4 -4 -2 1 -0 -1 -1 0 3 5 5 8 10 11 11 10 10 9 8 9 9 7 6 4 2 -1 -0 0 1 1 0 0 -1 -1 -3 -5 -5 -6 -4 -3 -6
3 -1 1 -2 -1 0 -2 2 0 -1 -3 -2 2 2 1 2 4 6 6 7 10 10 11 10 10 10 9 9 9 5 3 1 0 3 3 3 3 3 1 0 -1 -3 -3 -2 -2 -3 -4 -3 -3
1 1 -1 1 1 0 1 2 2 -1 0 -0 -1 3 3 3 4 7 8 9 10 11 11 11 10 8 10 9 6 4 3 3 3 4 4 4 3 1 1 -1 -2 -2 -2 -1 -1 -2 -4 -3 -4
-2 -1 1 4 4 4 2 3 4 1 -1 1 0 2 3 5 6 8 9 9 9 10 10 10 9 8 8 5 5 5 4 4 4 4 4 3 2 2 1 -1 -2 -2 -2 -1 -2 -8 -7 -9 -7
0 2 6 7 7 7 1 4 4 1 -0 -1 -1 0 4 5 7 8 9 10 8 7 9 10 10 9 6 4 4 4 5 4 4 3 3 3 1 -1 -3 -3 -3 -2 -2 -3 -11 -9 -8 -8 -8
2 3 6 7 9 7 3 5 4 0 -0 -0 -1 2 4 7 8 8 9 9 8 7 9 9 7 5 5 4 5 5 5 5 3 2 1 0 -1 -2 0 -2 -2 -2 -7 -8 -8 -8 -7 -7 -5
3 5 3 4 6 6 2 -0 1 0 1 3 4 4 7 7 7 7 9 9 9 9 5 5 5 5 5 5 5 6 6 5 4 1 -0 -1 -1 -1 -1 -2 -4 -6 -11 -10 -9 -7 -6 -6 -5
1 -0 3 3 2 2 1 0 5 2 2 2 4 6 6 6 6 5 7 7 7 6 6 5 5 5 5 5 5 5 5 3 0 -1 -1 -0 -2 -1 -1 -5 -9 -9 -8 -8 -7 -6 -6 -4 -4
-0 0 -1 -0 5 5 6 2 -3 -0 0 -0 3 5 6 6 5 4 4 4 4 4 5 5 5 5 5 5 5 4 4 2 1 0 -0 -2 -2 -3 -6 -8 -7 -7 -7 -7 -6 -5 -5 -4 -4
-3 0 2 4 2 4 4 3 -4 -2 -1 -2 -2 4 5 6 5 4 3 3 3 4 5 5 6 6 5 5 4 3 2 1 0 -0 -2 -2 -5 -6 -6 -6 -6 -6 -8 -6 -7 -6 -6 -7 -7

GFSSGP_850_dewp_054.txt.gz
Dewpoint
-15 -9 -6 -5 -5 -5 -3 -4 -6 2 11 12 13 13 14 14 14 13 14 13 5 6 9 12 12 11 11 9 6 8 9 8 6 -1 -7 -9 -12 -10 -13 -14 -11 -9 -8 -8 -10 -10 -9 -8 1
-13 -7 -2 -3 -7 -6 -6 -3 11 10 10 11 11 13 14 15 14 15 14 11 4 5 10 12 12 12 11 7 8 9 9 8 0 -5 -8 -12 -10 -12 -12 -9 -8 -8 -9 -10 -10 -10 -10 -3 3
-9 -6 -4 -6 -9 -8 -7 5 10 10 10 9 9 11 13 14 14 14 14 9 5 6 10 11 10 11 9 7 10 10 9 4 -4 -6 -12 -11 -11 -11 -8 -7 -7 -8 -9 -7 -5 -4 -5 1 2
-8 -8 -9 -10 -8 -10 -5 9 10 8 8 8 9 11 12 13 14 14 14 14 8 7 9 12 11 9 7 10 10 10 6 -2 -5 -10 -10 -9 -10 -8 -7 -7 -8 -8 -6 -4 -3 -3 -2 -1 1
-6 -7 -8 -10 -10 -2 9 9 9 8 8 8 8 10 12 14 14 14 14 12 9 12 12 12 10 8 10 11 10 8 -1 -5 -8 -11 -8 -9 -8 -7 -7 -7 -7 -6 -4 -3 -3 -2 -2 -2 -2
-5 -9 -8 -8 -5 9 9 8 9 9 8 7 8 9 11 14 14 14 13 12 9 12 12 11 10 11 11 10 8 2 -3 -5 -10 -7 -8 -7 -6 -6 -7 -7 -6 -4 -3 -2 -2 -2 -2 1 2
-6 -7 -6 -7 -6 5 9 8 9 9 9 7 7 10 12 13 13 13 13 11 11 11 11 11 11 9 10 9 3 -2 -3 -8 -7 -7 -6 -6 -6 -6 -6 -6 -5 -4 -3 -2 -2 -1 -1 3 4
-7 -9 -8 -8 5 8 9 10 8 7 6 7 9 12 10 13 12 13 12 12 12 12 12 9 6 8 10 5 0 -4 -4 -8 -6 -5 -5 -5 -5 -5 -5 -5 -4 -3 -2 -1 0 1 2 5 4
-8 -8 -7 -7 8 8 9 7 7 7 7 7 8 11 9 12 13 12 12 12 11 9 8 8 11 9 6 0 -2 -2 -6 -5 -4 -4 -4 -3 -2 -1 3 3 1 -0 2 6 6 6 6 6 6
-10 -8 -8 -5 7 8 8 8 7 8 7 11 13 11 11 12 11 11 11 11 10 9 9 7 10 7 4 1 -3 -4 -6 -2 -3 -2 0 5 5 7 8 8 6 7 7 7 7 7 6 7 7
-10 -9 -3 6 7 7 7 8 5 7 6 9 12 12 11 12 11 10 9 8 10 8 9 8 8 7 2 -1 -1 -3 -1 5 6 6 7 6 6 7 10 9 8 8 8 7 7 7 7 7 6
-9 -10 -5 6 5 5 7 6 6 6 6 9 8 7 10 11 11 7 6 5 8 10 10 9 8 2 -1 -1 -2 -1 1 8 8 10 8 8 9 9 10 9 8 8 7 7 8 7 7 7 6
-8 -8 -0 4 5 5 4 5 5 4 5 9 7 8 11 9 8 4 7 4 7 10 10 9 6 1 0 -1 3 5 5 6 7 9 10 10 10 10 8 8 8 8 7 7 7 7 7 6 3
-4 5 5 6 6 6 6 5 4 4 6 8 9 11 10 9 7 3 8 5 9 11 10 10 9 7 6 6 7 7 9 6 5 8 9 9 8 8 8 7 8 8 8 8 7 7 3 -3 -4
-4 -1 2 3 3 3 4 4 4 6 5 8 10 11 10 9 8 7 8 11 11 11 10 9 9 8 7 8 8 8 9 9 9 9 8 9 9 9 9 8 8 8 8 8 6 -3 -3 -6 -12
-5 -4 -0 4 3 2 1 3 2 6 8 10 11 11 11 10 7 8 8 9 10 10 10 9 8 8 8 8 8 9 9 9 9 8 7 6 6 7 7 7 8 8 5 -2 -4 -4 -7 -10 -11
-3 -2 -3 1 1 2 1 2 2 3 6 9 10 11 11 11 7 8 9 9 9 6 5 8 7 7 9 9 9 9 9 9 7 5 4 4 6 6 6 4 0 -3 -3 -3 -4 -6 -9 -9 -9
-1 -2 -3 -2 3 3 4 1 -1 2 5 7 9 9 6 7 6 8 8 7 6 5 -2 1 5 8 10 9 8 8 8 6 4 4 4 4 2 -1 -4 -4 -3 -2 -2 -2 -3 -6 -7 -7 -7
-2 -1 -2 -4 -2 3 2 1 -0 2 4 2 4 7 4 5 6 6 6 6 6 7 2 0 2 6 7 9 8 7 6 5 6 6 5 1 -2 -3 -3 -2 -2 -1 -1 -1 -3 -7 -10 -13 -11
1 1 -1 -2 -4 1 -0 0 0 1 3 1 1 2 3 4 5 6 6 6 7 8 7 6 6 6 8 8 6 6 6 8 8 6 2 -1 -2 -2 -2 -1 -1 -0 -1 -3 -6 -7 -9 -9 -8
2 2 1 -0 -2 -5 -4 -2 -3 -2 2 2 0 -0 1 2 5 6 6 6 7 8 8 9 9 8 8 7 7 7 8 7 6 3 0 -1 0 0 1 1 0 -1 -2 -3 -5 -4 -4 -3 -5
2 1 1 1 -3 -3 -3 1 1 -3 1 2 1 -1 -1 0 3 5 7 7 8 8 9 9 10 10 9 9 8 8 6 5 5 4 -0 2 2 3 2 1 -0 -1 -2 -3 -3 -2 -2 -2 -6
2 1 1 1 1 0 1 0 -0 -1 -1 0 2 -0 -1 -0 1 3 5 6 8 8 9 10 11 11 10 9 9 7 6 5 3 1 3 3 4 3 1 1 0 -1 -2 -2 -2 -2 -2 -7 -13
-1 -0 3 3 3 4 2 1 1 0 -1 -2 -0 1 1 3 2 5 5 6 8 9 9 11 11 11 11 10 9 8 3 1 3 3 3 4 4 2 2 2 1 -1 -2 -2 -2 -2 -8 -17 -17
-0 1 4 5 6 5 2 3 0 0 -1 -1 -1 2 2 3 5 6 7 7 8 9 11 9 10 10 9 10 8 5 4 4 4 4 4 4 3 3 2 1 -1 0 -2 -2 -4 -8 -15 -14 -11
3 1 4 4 7 5 2 4 3 0 -0 -1 -2 -1 3 4 5 6 7 7 9 9 10 10 10 8 9 8 5 5 5 5 4 4 4 4 2 -1 -1 -0 1 -0 -1 -3 -9 -15 -14 -12 -9
2 4 2 4 5 6 3 -1 1 1 2 3 3 1 2 6 6 6 7 9 10 9 8 9 8 9 9 5 5 5 5 4 3 3 1 -1 1 1 1 -1 -1 -2 -3 -11 -16 -17 -15 -11 -7
-1 0 4 4 1 2 1 1 5 2 2 4 4 3 6 8 8 8 9 9 9 8 8 9 8 8 7 5 4 5 5 6 5 4 3 1 2 1 0 -3 -1 -6 -11 -15 -18 -16 -11 -7 -5
-0 -0 -0 1 3 4 5 1 -3 2 1 4 4 3 6 8 8 8 8 8 8 8 8 7 6 5 5 5 5 5 5 5 2 1 2 2 1 1 -2 -6 -6 -7 -10 -15 -15 -12 -8 -7 -8
2 1 2 3 0 3 4 1 -3 -1 0 0 2 5 6 6 6 6 6 6 7 7 7 6 5 5 5 5 5 5 4 3 4 3 2 2 -1 -2 -6 -6 -6 -9 -10 -11 -11 -8 -6 -5 -7

GFSSGP_850_dewp_060.txt.gz
Dewpoint
-13 -11 -7 -5 -5 -4 -4 -5 -5 1 4 13 13 13 12 14 13 12 14 12 8 13 15 12 9 9 8 5 3 6 6 5 -0 -6 -7 -11 -13 -15 -10 -8 -8 -8 -7 -5 1 3 4 7 6
-13 -4 -3 -5 -6 -5 -7 -8 2 10 11 10 11 12 13 14 14 13 12 11 10 13 15 11 10 9 8 4 6 7 7 1 -8 -9 -12 -13 -13 -9 -8 -10 -10 -8 -5 1 2 2 3 3 3
-8 -7 -3 -7 -8 -8 -9 -9 4 8 12 10 11 12 13 13 13 13 12 12 12 14 14 11 10 10 7 5 8 8 5 -6 -10 -12 -12 -12 -9 -8 -9 -8 -7 -4 -0 2 3 2 1 1 2
-9 -7 -9 -7 -7 -10 -10 -2 9 9 9 9 11 11 13 13 14 13 13 13 12 14 14 12 11 10 6 6 8 7 -1 -8 -12 -11 -12 -8 -7 -9 -7 -5 -4 -2 -0 2 2 2 2 3 3
-7 -8 -7 -8 -9 -11 7 8 9 9 9 9 9 11 12 13 14 13 13 13 12 13 13 13 11 11 7 9 9 4 -4 -9 -11 -11 -8 -6 -7 -8 -4 -3 -2 -2 -1 -1 -1 -1 0 3 3
-6 -9 -8 -7 -8 -7 8 8 9 9 9 9 10 11 13 13 14 13 13 13 13 14 13 13 12 10 10 11 7 -2 -4 -12 -9 -9 -6 -6 -7 -6 -3 -2 -2 -2 -1 -1 -0 1 2 2 2
-6 -7 -6 -7 -7 -4 7 9 8 9 8 8 9 11 12 13 14 12 12 13 13 12 13 12 11 10 11 7 1 -4 -8 -9 -9 -6 -5 -6 -6 -4 -2 -2 -2 -2 -2 -1 2 3 3 3 4
-6 -8 -7 -8 -7 -2 8 9 9 7 7 8 10 11 12 13 13 13 12 12 12 12 13 11 11 12 7 5 3 -1 -4 -9 -8 -5 -5 -6 -5 -3 -2 -2 -2 -2 -1 -0 1 3 4 4 5
-8 -7 -6 -7 -5 -1 8 7 7 7 9 11 11 10 11 11 12 13 12 12 12 12 12 12 11 8 6 5 2 -3 -8 -6 -5 -4 -4 -5 -4 -3 -2 -2 -2 0 1 3 4 5 5 6 6
-9 -8 -8 -9 -4 6 8 6 6 7 10 11 12 11 12 11 11 13 12 12 11 11 11 10 7 5 1 4 0 -4 -6 -5 -3 -4 -3 -3 -3 -2 -2 -1 0 0 4 5 5 6 6 6 6
-10 -7 -9 -6 2 6 8 7 6 6 7 11 12 11 11 12 12 12 12 11 10 9 9 8 7 2 1 7 1 -3 -4 -3 -2 -2 -2 3 4 4 3 3 4 5 6 6 6 6 7 7 7
-8 -9 -9 2 5 7 7 6 7 6 5 8 8 11 11 10 11 11 11 11 8 8 7 7 3 2 6 8 1 -2 -1 -1 -0 4 6 8 8 8 7 6 6 7 7 7 7 7 7 7 6
-9 -0 2 4 6 6 5 4 5 11 10 9 11 11 10 10 11 11 11 9 9 6 5 6 6 7 7 5 -0 -2 -1 1 7 8 8 8 8 8 8 8 7 7 7 7 7 7 6 6 2
4 4 6 5 5 6 4 5 4 11 11 10 12 11 9 9 8 9 10 10 10 6 5 6 8 9 7 3 -1 1 1 7 8 9 9 8 8 8 8 8 8 7 8 8 7 6 5 -1 -7
2 3 2 4 6 5 4 3 4 10 11 9 12 11 9 9 8 6 5 8 9 8 6 7 8 8 7 1 -0 3 6 9 10 10 9 8 8 8 8 8 7 8 8 7 7 5 -3 -7 -13
1 -2 3 2 3 3 2 3 5 10 10 10 10 12 10 9 8 6 6 7 5 6 7 9 9 9 6 2 1 3 8 9 9 8 8 8 8 8 8 8 8 8 8 7 4 -3 -5 -9 -15
-3 -1 1 -1 3 2 2 1 5 10 10 11 10 11 10 9 8 6 7 4 8 8 9 8 7 4 1 2 6 6 7 9 9 8 9 9 8 8 9 9 8 8 7 -0 -3 -3 -7 -11 -14
-0 -2 -2 -1 0 3 3 2 2 10 11 10 11 11 11 9 7 6 5 6 6 9 9 9 9 6 5 4 8 9 10 10 9 9 10 8 6 7 8 8 8 4 -2 -2 -2 -4 -7 -9 -8
0 0 1 -1 -2 -1 -1 2 1 5 10 11 11 11 11 9 7 6 5 6 5 7 10 10 10 9 8 8 8 9 9 9 10 10 8 5 5 6 7 6 -1 -2 -1 -1 -2 -4 -5 -4 -4
1 1 1 0 -2 -1 0 1 0 3 7 10 11 10 9 8 8 8 7 7 4 6 9 9 10 9 8 7 7 8 8 9 10 9 5 5 5 6 3 -1 -1 -0 -0 -1 -2 -2 -3 -3 -3
0 1 1 1 -0 -1 -1 -2 0 -0 4 6 9 8 8 8 7 8 7 6 6 6 6 7 8 8 8 7 7 8 9 10 9 7 5 6 5 3 -0 0 0 1 -0 -1 -2 -2 -2 -2 -2
1 -0 0 2 0 -0 -4 -1 -1 -1 3 4 6 9 8 8 8 5 3 4 6 6 7 8 9 9 8 7 7 8 9 9 8 6 7 6 3 1 1 1 1 1 -0 -1 -1 -1 -1 -2 -3
1 0 1 1 1 0 0 -0 -2 -0 3 4 4 5 7 7 8 4 2 3 4 6 7 8 8 8 6 6 6 8 10 9 7 7 7 5 2 1 2 2 2 1 0 -1 -1 -1 -1 -1 -2
-1 1 0 1 2 3 1 1 0 0 1 2 3 3 4 6 7 7 3 3 4 7 7 7 7 7 5 5 6 9 10 8 6 8 7 4 2 3 3 2 2 1 -0 -0 1 1 -1 -4 -10
-1 0 2 3 4 4 1 2 2 -2 -2 -1 1 3 3 4 6 7 4 3 4 5 5 6 7 7 7 6 8 9 10 8 8 7 6 4 2 2 4 3 2 1 0 2 1 0 -3 -11 -17
2 -0 3 1 5 3 1 3 0 -1 -0 1 -0 -2 2 2 3 5 3 2 3 4 4 5 6 7 8 8 9 9 10 10 9 5 4 3 2 3 4 3 2 0 2 2 2 2 -10 -15 -15
2 2 -1 4 4 5 2 0 -4 -1 0 2 1 1 -1 1 1 1 2 1 2 3 4 5 6 7 7 9 8 9 10 9 8 4 3 4 4 4 4 4 2 2 3 2 1 -7 -10 -12 -14
-1 0 2 3 4 4 0 -0 -0 -2 -1 1 2 1 4 2 1 1 1 0 1 2 4 6 6 7 8 9 9 10 9 8 8 5 4 4 5 5 5 3 3 3 2 -1 -4 -8 -9 -12 -12
1 2 1 1 1 3 4 2 -2 -3 -1 -0 0 2 1 3 3 2 1 1 1 3 4 5 7 8 9 9 8 8 8 9 7 6 7 5 5 5 4 4 3 2 -2 -7 -7 -7 -10 -11 -9
-1 1 1 4 2 3 3 2 -5 -5 -3 -0 -1 1 2 2 2 3 3 3 3 3 5 6 8 9 8 8 7 7 8 7 6 6 7 5 5 3 4 3 1 -0 -7 -6 -6 -8 -9 -10 -8

GFSSGP_850_dewp_063.txt.gz
Dewpoint
-12 -15 -8 -5 -5 -4 -5 -6 -5 -1 6 12 13 12 11 12 11 12 13 12 13 14 13 8 7 5 3 2 3 4 5 5 2 -3 -7 -10 -14 -16 -11 -9 -9 -9 -6 -1 2 5 5 3 2
-13 -6 -2 -5 -6 -6 -9 -8 -7 6 8 11 12 13 13 14 13 13 13 11 13 14 13 9 8 6 4 4 5 6 5 0 -6 -7 -12 -15 -13 -9 -8 -9 -9 -7 -3 -0 2 4 2 2 2
-10 -4 -3 -6 -7 -9 -10 -10 0 6 11 11 11 12 13 13 13 13 12 12 13 14 13 9 8 6 5 6 7 6 2 -6 -8 -11 -14 -12 -8 -9 -10 -9 -6 -2 -0 0 1 1 1 2 3
-9 -7 -9 -6 -6 -9 -10 -8 8 9 9 10 11 11 13 13 13 11 9 12 13 13 13 10 9 10 6 7 8 5 -4 -7 -11 -13 -12 -8 -9 -9 -8 -5 -1 0 1 -0 -0 1 1 2 4
-7 -8 -6 -7 -8 -10 -6 6 9 9 9 9 9 12 12 12 13 12 12 13 12 13 13 11 10 9 8 9 7 -1 -6 -10 -12 -12 -8 -8 -8 -6 -3 -1 0 1 -0 1 1 1 2 3 3
-6 -9 -6 -7 -7 -9 0 8 9 9 9 9 11 11 12 13 14 13 13 13 13 13 13 12 11 11 11 9 2 -5 -8 -11 -11 -8 -7 -8 -5 -3 -2 -2 -1 -1 -1 -1 -0 1 2 3 3
-5 -5 -5 -6 -6 -7 2 9 8 9 8 8 10 11 12 13 13 13 13 13 13 12 13 12 12 12 11 7 1 -6 -9 -11 -9 -6 -7 -6 -3 -1 -1 -1 -1 -1 0 2 3 3 3 4 4
-7 -7 -6 -7 -6 -6 6 9 8 7 7 9 9 11 12 13 13 13 13 13 13 13 13 12 12 12 7 3 -2 -4 -8 -9 -7 -6 -7 -4 -2 -1 -1 -1 -0 0 2 2 4 4 4 5 5
-8 -6 -5 -6 -6 -5 8 7 7 7 10 11 11 11 11 13 13 13 13 13 13 12 12 12 11 9 8 6 0 -2 -6 -9 -7 -6 -6 -3 -2 -1 -1 -1 -0 1 1 4 5 5 6 6 6
-8 -6 -6 -8 -9 3 8 6 6 7 11 11 11 11 12 13 12 12 12 12 12 12 11 11 10 8 6 6 5 -1 -6 -7 -5 -6 -5 -3 -2 -1 -2 -1 1 2 5 6 6 6 6 6 6
-8 -5 -7 -9 -9 5 7 7 6 6 8 10 11 11 11 13 12 12 12 11 11 11 10 10 9 8 8 6 2 -5 -6 -5 -4 -5 -4 -3 -2 -2 -1 -0 3 6 6 6 6 7 7 7 7
-6 -8 -8 -6 3 7 6 6 6 7 5 8 11 11 11 12 11 11 11 11 11 10 9 8 7 6 3 1 -3 -5 -6 -4 -3 -3 -3 -3 -2 -1 1 3 6 7 6 7 7 7 7 6 6
-7 -3 4 4 6 6 6 4 5 10 10 11 10 11 11 12 11 11 11 10 9 9 8 6 2 -0 0 -2 -1 -4 -4 -2 -3 -2 2 5 6 6 6 6 7 7 7 8 7 7 6 6 5
3 4 5 5 6 5 4 4 4 9 11 12 11 12 11 11 11 10 9 8 8 8 6 3 1 0 6 6 1 -2 -1 -1 1 5 7 8 9 9 8 8 8 8 7 8 7 6 6 4 -6
2 3 2 4 6 4 3 3 4 8 11 11 11 11 10 10 9 10 9 8 7 8 5 4 7 8 8 6 0 -2 -0 1 7 8 9 8 7 8 8 7 8 8 8 7 7 6 3 -6 -11
1 -2 1 2 4 3 3 4 5 10 11 11 11 11 11 9 7 8 9 9 4 5 5 6 8 8 7 5 2 -0 1 6 8 9 9 8 8 7 7 8 8 8 7 7 7 2 -4 -8 -13
-2 -0 1 -2 3 2 3 1 7 10 11 10 11 10 11 9 8 7 7 9 7 5 5 6 8 9 8 6 2 1 3 8 9 8 8 7 7 7 8 8 8 8 8 7 0 -3 -5 -7 -10
0 -1 -1 -1 -1 3 3 2 9 10 10 10 11 11 10 10 8 5 6 7 7 7 6 7 9 8 6 5 2 3 6 8 8 7 7 8 8 8 8 9 9 8 8 1 -2 -2 -3 -5 -6
-2 -1 -0 -2 -1 -0 1 1 2 10 10 10 11 10 10 10 9 7 5 6 6 8 9 9 7 7 5 3 3 6 6 7 9 8 8 9 8 7 7 9 8 8 -0 -2 -1 -2 -3 -3 -3
1 1 1 -1 -2 -1 -0 -0 0 8 9 10 10 10 9 10 9 8 7 5 6 6 8 9 9 9 7 6 3 7 8 9 9 9 9 9 6 6 8 7 6 -1 -1 -0 -1 -2 -1 -2 -2
1 1 1 0 0 -1 -1 -2 1 1 6 9 10 10 9 8 8 8 7 5 5 4 5 7 8 9 9 8 7 8 8 9 9 9 9 7 6 6 7 4 -0 -0 0 0 -1 -1 -1 -2 -3
2 -1 -0 1 2 1 -3 -1 -2 -1 2 5 7 10 9 8 7 7 7 7 7 6 5 5 8 9 9 9 9 8 7 8 8 8 8 6 6 6 5 1 0 0 1 0 -1 -1 -1 -2 -2
1 0 1 1 2 1 0 0 -1 -1 -0 1 3 6 9 7 7 6 3 5 5 6 6 6 8 9 9 9 9 8 8 8 8 9 8 6 6 6 3 1 1 1 1 0 -1 -1 -0 1 -1
0 2 0 1 2 4 2 1 0 -1 -0 0 -0 3 5 7 7 6 6 3 2 4 6 7 7 8 8 8 9 8 8 7 8 9 7 6 7 5 2 2 2 2 1 0 -0 0 2 0 0
-0 1 3 4 5 4 1 2 1 -1 -2 -2 -1 2 2 3 5 5 6 7 4 2 3 5 6 7 8 8 8 7 7 9 10 9 7 8 7 5 2 1 2 2 2 1 0 2 2 2 2
1 1 5 2 3 2 1 3 -1 -2 -2 -0 1 -0 -0 2 3 4 4 5 6 3 2 3 5 6 6 6 7 8 7 7 10 9 7 8 7 5 3 2 3 2 1 0 2 3 2 -0 -10
2 2 -0 4 4 6 2 0 -4 -2 -2 1 2 0 -0 -2 0 2 4 4 5 6 2 1 2 4 5 6 7 8 8 8 10 9 9 7 6 4 3 3 3 1 2 1 3 1 1 -7 -9
0 0 4 4 5 4 1 0 -2 -2 -3 -0 -0 2 0 1 -0 0 1 2 3 5 4 3 3 4 5 6 7 8 8 9 10 9 9 6 5 4 4 4 3 3 3 3 1 0 -7 -8 -10
2 3 2 1 2 4 4 1 -0 -2 -3 0 -0 0 0 0 1 1 1 1 1 2 2 3 4 5 6 7 7 8 9 9 9 9 9 8 5 4 4 5 4 4 3 -1 -0 -5 -6 -8 -10
1 2 2 6 3 3 4 2 -3 -2 -3 -3 -0 -1 1 -0 -0 1 2 2 2 2 2 3 4 6 7 7 8 9 7 7 8 7 9 8 6 5 5 4 4 2 -1 1 -6 -6 -7 -8 -10

GFSSGP_850_dewp_066.txt.gz
Dewpoint
-10 -14 -9 -5 -7 -10 -9 -9 -10 -9 4 3 4 5 8 12 10 11 14 14 14 15 13 10 9 11 12 12 11 12 11 6 5 5 3 -2 -11 -17 -16 -12 -9 -3 2 4 4 2 1 -0 0
-11 -8 -3 -6 -8 -8 -9 -11 -6 -1 3 10 10 9 7 9 13 13 13 14 14 14 13 12 8 8 11 12 12 8 5 6 5 1 -5 -12 -16 -13 -10 -9 -3 -1 1 3 3 0 -0 -0 1
-10 -5 -6 -8 -9 -9 -9 -9 -5 2 8 9 9 11 10 11 13 13 14 14 13 14 13 12 6 5 5 5 4 5 6 3 -3 -7 -13 -16 -11 -9 -9 -7 -3 -1 -0 2 0 -0 1 1 2
-6 -9 -8 -9 -8 -11 -9 -7 -0 6 8 9 10 9 13 13 14 13 14 14 15 14 13 9 6 5 3 4 6 6 2 -6 -9 -13 -15 -10 -9 -9 -8 -5 -1 1 1 0 -0 1 2 3 3
-7 -9 -9 -9 -10 -10 -8 1 6 8 7 8 8 10 12 12 12 13 13 13 14 14 13 8 7 6 6 7 7 2 -6 -9 -13 -14 -9 -9 -9 -8 -5 -1 0 0 1 1 1 2 3 4 3
-8 -9 -8 -9 -9 -7 -7 4 6 8 8 8 9 10 12 12 12 14 13 13 13 12 13 11 10 8 8 8 4 -4 -8 -12 -13 -8 -8 -9 -8 -5 -2 0 1 1 2 1 2 3 2 3 3
-8 -7 -8 -9 -6 -5 -2 8 7 7 7 7 9 9 12 12 13 13 14 14 13 11 13 12 12 12 12 8 1 -5 -9 -12 -8 -7 -9 -6 -4 -2 0 0 0 0 -0 1 2 2 3 4 5
-9 -9 -8 -9 -7 -5 2 6 7 7 7 10 9 8 11 13 13 13 13 13 13 13 13 12 12 13 10 6 2 -5 -10 -8 -6 -8 -6 -4 -3 -2 -1 -1 -1 1 2 3 3 4 5 5 5
-7 -7 -7 -8 -7 -6 3 4 7 7 8 9 11 10 12 12 13 13 13 13 13 13 12 12 12 9 8 5 0 -5 -6 -4 -4 -7 -3 -3 -2 -1 -0 0 2 2 3 4 5 5 6 6 6
-7 -7 -8 -10 -10 -8 0 3 5 7 8 8 10 12 12 12 13 13 13 13 13 13 12 12 11 10 6 3 1 1 2 -0 -4 -4 -2 0 -0 6 1 0 1 3 4 5 6 6 6 6 5
-6 -6 -7 -7 -8 -8 -1 4 5 4 4 5 9 12 12 12 12 13 12 12 12 12 11 10 10 7 5 4 2 0 3 4 3 -5 -2 -0 -0 -0 0 1 4 5 6 6 6 6 7 6 5
-4 -5 -6 -6 0 -0 0 5 4 4 5 8 10 12 12 11 11 12 12 12 11 11 10 9 9 7 6 5 5 4 -1 0 -4 -5 -5 -2 -1 -1 3 7 6 6 7 7 7 7 7 6 5
-4 -2 2 1 3 4 5 3 3 6 10 10 11 12 11 11 11 11 11 11 11 10 9 8 7 7 6 5 2 3 6 1 -3 -5 -4 -3 -2 -2 1 5 6 7 7 7 7 7 6 6 5
2 2 2 2 3 3 3 3 3 8 11 11 11 11 11 11 11 10 10 10 10 9 9 9 8 5 4 4 7 2 -3 0 -3 -4 -3 -3 -1 2 4 5 6 7 7 8 7 6 6 4 -1
2 2 3 3 3 1 3 2 2 6 10 10 10 11 11 11 10 9 9 9 9 8 7 7 6 5 6 8 4 1 3 -1 -3 -2 0 5 7 8 8 8 7 8 8 8 7 6 6 1 -6
-1 -1 -2 0 2 2 4 1 0 7 9 10 9 10 10 9 10 9 10 9 9 6 6 7 8 8 8 8 1 -0 0 1 1 3 6 7 8 7 7 7 8 8 8 7 7 6 3 -4 -4
-3 -3 -3 -2 -0 -0 1 -0 2 8 9 9 9 9 9 9 9 9 10 8 8 7 7 8 10 9 7 6 4 0 0 1 5 5 8 8 8 7 7 7 8 8 8 7 7 3 -3 -2 -2
-3 -3 -3 -2 -2 0 -0 -0 -1 7 8 8 9 8 9 9 9 9 10 8 8 9 9 10 10 10 8 7 3 1 2 7 9 8 9 8 7 6 7 8 8 8 8 7 4 -3 -2 -1 -2
-4 -3 -3 -3 -3 -1 -2 -1 -3 4 7 7 9 8 9 9 8 9 9 9 8 8 9 10 10 11 9 9 8 7 8 9 9 9 8 6 6 7 8 8 8 8 7 5 -2 -2 -2 -0 -1
-2 -2 -2 -2 -3 -1 -2 -2 -2 2 7 6 7 8 9 8 9 8 8 9 9 10 10 10 11 11 10 10 8 7 6 8 9 5 7 8 7 8 8 8 8 8 6 1 -1 -1 -0 1 -1
-1 -1 -1 -1 -2 -1 -1 -2 -2 -1 4 6 6 6 7 8 8 9 8 8 9 9 10 10 11 11 11 10 8 8 9 9 9 8 8 7 8 8 7 8 8 8 3 -1 -0 -0 -0 1 1
-0 -2 -2 -1 0 -0 -2 -3 -4 -2 0 4 6 7 7 8 8 8 9 9 9 9 9 10 11 11 11 10 10 8 8 9 10 8 7 7 8 7 6 8 7 4 -0 0 0 0 1 0 -0
-1 -1 -0 0 1 1 -0 -2 -4 -3 -3 -2 1 4 6 7 7 7 7 8 9 9 9 9 10 11 11 11 10 10 9 9 10 8 8 8 8 6 7 7 5 1 -0 0 1 1 -0 0 1
-1 1 1 1 1 2 -0 -0 -4 -5 -4 -3 -3 -2 3 6 7 7 7 7 8 9 10 9 9 10 10 9 9 10 10 11 9 8 8 8 8 7 6 6 3 1 0 1 1 1 0 2 2
-0 2 3 5 3 2 0 -1 -3 -5 -3 -3 -2 0 0 1 6 7 7 8 7 8 9 6 6 9 9 8 9 9 9 10 8 7 9 9 9 7 6 6 4 2 1 1 1 1 0 3 2
0 0 2 2 2 -0 0 -1 -4 -4 -4 -2 0 1 1 2 2 5 7 7 8 8 8 4 4 6 7 6 7 8 7 6 7 8 9 9 9 7 7 6 4 2 2 1 1 2 1 2 1
2 2 -0 3 5 4 -1 -3 -5 -6 -4 -2 -4 -0 1 1 2 4 5 7 8 9 9 2 3 9 10 6 6 6 7 5 5 8 9 9 9 8 8 7 4 3 2 2 1 3 2 0 -3
0 -1 2 2 4 2 -1 -1 -4 -5 -5 -5 -5 -4 0 4 2 2 3 5 7 8 9 10 9 9 9 8 5 6 7 7 8 8 8 9 9 8 8 5 4 3 3 3 2 3 0 -2 -2
2 2 1 0 1 2 2 -1 -5 -6 -6 -4 -5 -2 -1 1 4 3 3 3 5 7 8 9 9 9 9 9 7 6 7 7 8 9 9 9 8 8 6 4 4 3 4 2 2 0 1 -3 -3
-1 -0 1 2 2 3 4 1 -5 -5 -3 -4 -3 -1 -1 2 3 5 5 6 6 7 8 8 9 9 9 10 10 7 8 8 8 7 8 9 8 8 7 4 4 3 2 0 1 1 -2 -3 -3

GFSSGP_850_dewp_069.txt.gz
Dewpoint
-6 -6 -6 -7 -6 -8 -9 -11 -12 -11 -9 5 -2 -3 -4 -1 12 12 14 14 14 14 12 11 14 13 12 12 11 10 11 11 10 5 5 1 -8 -14 -18 -14 -6 -1 2 3 3 0 -1 -0 1
-1 -6 -6 -7 -6 -8 -9 -10 -10 -9 -3 6 6 5 -0 0 11 9 14 14 14 14 13 13 14 13 13 12 11 11 12 11 6 6 2 -6 -15 -17 -12 -8 -1 2 3 3 1 -1 0 1 1
-3 -6 -6 -6 -7 -8 -9 -8 -9 -8 2 3 6 7 3 4 11 12 13 14 15 14 13 13 14 13 13 12 12 12 12 6 6 3 -5 -15 -16 -11 -7 -2 1 3 4 2 0 0 1 2 1
-6 -8 -9 -9 -9 -10 -10 -7 -3 -1 4 5 6 7 11 13 11 11 13 14 15 14 13 11 12 14 12 12 12 12 6 6 3 -5 -13 -14 -9 -7 -3 -1 2 4 4 1 1 2 3 2 1
-8 -9 -9 -9 -10 -11 -7 -4 2 3 3 5 6 7 10 6 9 13 13 14 14 14 13 11 9 13 13 13 11 6 7 3 -5 -13 -15 -9 -8 -6 -2 -0 3 4 1 1 2 3 3 2 2
-8 -9 -8 -8 -9 -8 -5 -1 1 3 4 6 6 7 10 13 13 13 14 14 13 13 13 11 8 10 11 9 8 7 2 -5 -12 -14 -9 -8 -8 -4 -1 0 -0 0 1 2 2 3 2 3 3
-8 -8 -7 -9 -11 -8 -3 2 2 2 3 5 5 6 10 13 14 13 14 13 13 12 10 10 10 11 10 11 8 1 -5 -10 -11 -9 -9 -8 -7 -2 -1 0 0 1 1 2 2 2 3 4 4
-10 -10 -9 -10 -9 -6 -3 -3 4 4 4 7 7 6 7 14 13 13 14 13 13 11 12 12 10 12 11 10 2 -4 -9 -11 -8 -8 -8 -6 -3 -0 0 0 -0 1 1 2 3 4 5 5 5
-10 -8 -8 -7 -9 -5 -5 -3 3 6 5 7 8 9 12 13 12 12 13 13 12 12 13 12 12 12 10 8 3 -5 -6 -6 -6 -6 -3 0 1 1 -0 -0 0 1 2 3 4 5 6 6 5
-9 -7 -7 -10 -10 -9 -8 -3 0 3 3 3 8 11 13 13 13 13 13 13 13 13 12 12 12 11 10 8 6 3 3 -0 -2 -1 0 2 0 7 1 1 1 2 3 4 5 6 6 5 4
-8 -8 -10 -9 -8 -7 -8 -4 2 1 1 5 6 11 12 13 12 12 13 13 13 12 12 12 11 9 9 8 4 4 5 1 1 1 5 0 7 7 1 1 3 4 5 6 6 6 5 6 4
-7 -8 -7 -7 -6 -2 -4 2 1 1 4 6 9 11 11 12 12 12 12 12 12 10 10 10 10 8 7 5 4 1 -1 -1 1 0 7 9 7 7 0 2 3 5 6 6 6 6 7 5 5
-6 -4 -3 -3 -1 -1 -0 0 2 1 6 8 9 10 11 12 12 11 11 11 11 10 10 9 8 7 6 4 1 2 4 6 1 2 8 8 8 9 8 8 8 7 7 7 7 7 6 6 3
-2 -2 -2 -2 -2 -1 0 -1 1 6 6 8 8 10 10 11 11 11 11 10 10 9 8 8 6 5 4 4 4 4 3 1 -1 0 6 8 8 8 9 9 8 7 7 7 6 6 5 2 1
-3 -2 1 3 -2 -2 -2 0 1 5 6 8 8 9 9 10 10 10 10 9 9 9 8 8 8 7 6 5 4 3 5 6 7 7 8 7 7 7 9 9 8 7 7 6 6 6 3 1 -2
-4 -4 -3 4 1 -2 -2 7 7 5 7 7 8 8 7 7 8 9 9 9 9 9 8 8 7 6 4 6 5 7 6 8 6 6 8 9 9 9 9 8 7 7 7 7 6 4 3 0 -1
-5 -4 -1 -1 -3 -3 -2 1 2 3 5 6 7 7 6 7 7 9 9 9 8 9 6 5 4 5 8 9 8 6 6 7 6 7 9 5 6 8 7 8 8 7 7 6 5 4 2 -0 -1
-4 -4 -5 -4 -2 -3 -2 -1 -1 1 4 5 5 6 6 7 7 8 8 7 6 7 7 8 9 9 8 8 8 6 7 7 7 9 9 9 9 8 8 8 9 8 7 6 5 4 1 1 0
-5 -5 -3 -4 -4 -3 -2 -1 -3 1 4 5 7 6 7 7 7 8 7 7 6 6 7 8 10 10 10 10 8 7 6 6 7 9 9 9 9 8 7 9 8 8 7 6 5 5 0 2 2
-5 -3 -2 -3 -5 -3 -3 -4 -6 0 4 4 5 7 6 7 7 8 8 7 7 8 8 8 8 9 10 8 8 6 6 6 7 9 8 10 8 6 6 9 7 8 7 6 6 2 2 3 3
-2 -1 -1 -2 -3 -4 -4 -4 -4 -2 2 2 3 4 5 7 6 7 8 9 8 8 9 8 8 8 9 8 8 7 7 7 8 9 10 10 7 8 8 8 8 7 7 6 5 1 3 3 3
-1 -3 -3 -2 -1 4 -2 1 -2 -5 -1 2 2 3 4 6 6 6 6 7 8 8 9 9 9 8 9 9 8 8 7 7 8 9 9 10 9 8 8 8 7 8 7 6 4 3 3 3 3
-2 -2 -2 -1 -0 -1 -3 -4 -3 -7 -6 -3 1 2 3 4 5 5 7 6 7 8 8 9 9 9 9 10 9 9 8 8 8 9 10 10 8 8 9 8 8 8 7 5 4 4 4 3 1
-3 -2 -1 -0 0 3 -1 -2 -1 -3 -7 -6 -5 -1 2 3 4 4 4 6 6 8 9 9 9 9 9 10 10 10 9 9 8 9 10 10 9 7 8 8 8 7 7 4 4 4 3 2 1
-1 1 4 4 4 3 -2 -2 -4 -6 -6 -6 -5 -3 -2 1 3 4 3 4 5 7 9 9 9 9 9 10 11 11 10 10 9 10 9 10 8 7 8 8 7 7 5 4 5 4 3 1 1
-1 -0 4 5 5 2 -3 -4 -5 -7 -8 -7 -5 -3 -0 0 0 4 4 4 4 5 8 10 9 9 9 10 11 12 12 11 11 11 10 8 8 8 8 8 7 6 5 5 4 4 2 1 2
-1 1 -2 2 1 3 -1 -4 -6 -8 -8 -6 -7 -6 -2 0 1 1 3 5 6 6 7 9 10 9 9 10 11 12 12 12 11 9 10 9 9 9 9 8 7 6 5 4 4 2 1 3 3
-1 -1 2 1 4 5 -1 -3 -4 -6 -5 -7 -7 -7 -3 2 1 2 2 3 6 7 8 9 10 9 9 10 11 11 12 11 10 8 6 8 9 9 8 7 6 5 4 4 3 3 4 3 1
-1 1 -0 -1 1 4 3 -2 -5 -6 -7 -7 -6 -6 -6 -3 1 1 2 3 5 7 8 9 10 10 9 9 11 11 11 11 9 9 9 9 9 9 8 6 5 5 4 3 4 3 2 2 1
-3 -1 -1 3 1 1 2 1 -6 -6 -7 -5 -6 -5 -5 -3 -1 2 3 3 3 6 7 8 10 10 9 9 10 11 11 11 10 10 9 9 9 8 7 6 5 4 3 4 3 2 2 2 1

GFSSGP_850_dewp_075.txt.gz
Dewpoint
-10 -7 -3 -2 -2 -4 -3 -5 -8 -7 2 2 0 -0 3 6 8 8 6 4 9 6 8 12 13 11 9 6 7 7 7 7 6 4 1 -7 -10 -8 2 7 5 5 -0 -3 -3 -3 -3 5 6
-8 -2 2 0 -4 -2 -3 -7 -6 4 3 2 3 5 8 8 8 6 5 6 5 6 8 7 13 12 9 7 8 8 8 8 6 4 -3 -11 -12 -6 8 3 2 -1 -2 -2 -2 -2 -3 5 6
-7 -1 0 -4 -2 -1 -2 -5 0 3 5 5 5 6 8 12 11 12 11 9 10 5 4 6 13 13 11 8 8 9 9 8 5 2 -8 -14 -14 6 8 2 -1 -3 -2 -2 -1 -2 -3 4 6
-5 -4 -4 -5 -4 -6 -6 0 1 1 6 5 6 8 5 5 7 12 12 13 12 6 8 7 12 13 12 9 9 10 10 8 4 -2 -13 -16 -8 5 8 0 -2 -2 -1 -1 -0 -1 -3 5 6
-2 -2 -5 -4 -5 -7 -6 1 2 6 8 8 3 8 2 4 6 11 11 13 12 11 12 6 14 13 12 10 9 10 9 6 3 -7 -16 -11 -3 2 7 -1 -2 -2 -0 0 1 -0 -4 2 5
-2 -5 -3 -3 -5 -8 -1 -2 -3 6 8 8 7 8 7 4 7 11 11 11 12 12 14 13 14 14 13 10 10 10 8 5 -1 -14 -13 -6 0 3 3 -1 -2 -1 0 1 2 -0 -3 -6 3
-5 -5 -5 -7 -8 -3 -2 -3 0 3 8 8 8 10 6 2 5 9 11 10 10 11 12 10 10 11 13 11 11 9 7 3 -7 -15 -8 -3 1 2 1 -1 -1 0 1 2 3 2 -2 -6 -1
-5 -8 -8 -9 -3 -4 -2 -0 3 2 3 8 8 9 9 4 8 12 13 10 10 10 10 10 9 10 12 13 11 9 5 -3 -13 -8 -4 -0 0 1 1 -0 0 1 2 3 4 4 2 -5 -1
-6 -9 -8 -6 -4 -7 -3 -5 0 1 2 6 7 5 8 11 13 13 13 11 12 12 11 12 11 9 8 10 10 6 -2 -8 -8 -1 2 2 4 4 1 0 1 1 2 4 5 6 4 -1 -4
-7 -7 -7 -8 -6 -7 -7 -7 0 4 5 6 5 6 11 13 12 12 12 12 12 12 12 10 9 9 9 8 9 4 -1 -2 -0 3 7 6 4 1 -0 1 1 2 3 4 6 5 4 3 0
-7 -6 -8 -9 -7 -6 -7 -7 0 3 6 6 6 9 12 12 11 11 11 12 12 12 12 11 11 11 11 9 9 2 3 2 5 6 5 4 2 2 -1 -0 2 2 4 5 6 5 5 4 4
-6 -8 -9 -9 -1 -1 -2 -5 -4 9 8 9 9 11 12 12 11 11 11 11 12 12 11 11 10 9 10 9 7 -1 1 4 5 5 3 3 2 0 -1 0 2 3 4 5 6 5 6 5 5
-5 -6 -6 -2 -3 -2 -2 -4 -2 7 6 9 10 11 11 11 11 11 10 11 11 11 11 10 11 10 9 9 8 4 -0 -0 2 4 4 3 0 -1 -0 0 2 4 5 6 6 6 6 5 3
-6 -6 -5 -2 -2 -2 -1 -0 0 3 6 8 11 10 10 9 11 10 10 10 11 11 10 10 10 10 10 9 5 -1 -0 6 6 6 5 4 4 1 -1 1 2 4 6 6 6 6 7 5 1
-4 -3 -4 1 -0 -1 -1 1 3 4 4 6 6 11 8 10 11 10 10 10 10 10 9 9 9 10 9 6 5 4 7 8 5 2 5 7 2 2 0 2 3 5 6 7 7 7 6 4 3
-3 -4 -2 -5 1 -0 1 3 4 6 6 7 10 9 9 9 9 10 10 10 9 10 9 9 9 9 8 9 7 3 7 5 1 2 2 1 2 6 7 7 7 8 7 7 7 6 5 4 3
-1 -0 -2 -3 0 1 1 3 4 5 5 6 7 9 8 8 9 9 9 9 9 8 8 8 9 8 9 9 7 3 5 1 2 1 0 0 5 8 9 9 8 8 8 7 7 6 6 4 2
1 -0 -1 -1 1 2 2 2 5 6 5 8 7 8 7 7 7 8 9 8 8 8 8 7 7 7 7 6 5 3 2 2 1 2 1 1 2 5 6 5 8 8 7 7 7 7 6 4 2
-1 -1 -3 -4 -3 -2 -1 -1 2 6 6 8 8 8 9 8 7 6 8 8 8 8 7 7 5 5 4 4 3 2 2 3 6 7 6 6 5 0 5 5 7 8 8 7 7 7 6 4 1
-2 -4 -3 -4 -1 -1 -4 -3 -2 1 7 6 7 7 9 9 9 7 6 8 7 4 3 2 2 1 2 2 2 3 4 5 6 7 6 7 7 6 4 4 8 8 8 8 7 7 6 4 2
-3 -3 -2 -1 -3 -2 -1 -0 -2 -0 2 5 5 6 8 8 9 8 6 5 4 3 3 4 5 6 5 3 5 7 8 6 5 7 7 7 7 6 4 6 8 8 9 8 7 7 6 6 5
-1 -2 -2 -0 -1 1 -0 4 1 -1 2 3 5 6 7 8 8 8 7 3 2 3 5 6 7 7 6 6 6 7 7 7 5 4 6 6 7 7 6 6 8 8 8 8 7 7 7 6 6
-1 -1 -1 -0 1 1 2 5 3 -1 1 2 6 7 6 6 7 7 7 7 3 3 5 7 8 9 8 6 7 8 7 7 6 6 7 8 9 8 7 6 7 9 8 9 7 7 7 7 5
-3 -2 -1 -0 1 5 2 4 2 -1 -2 0 4 6 7 6 7 8 7 7 7 6 5 7 8 8 9 8 8 8 8 7 6 7 6 7 8 8 8 8 8 9 9 9 8 7 7 7 5
-3 -0 5 7 6 7 3 4 2 0 -1 -2 1 6 5 5 7 7 8 8 7 7 7 7 8 9 9 8 7 8 8 7 6 5 6 7 7 8 8 8 6 8 8 9 9 8 7 7 5
-1 1 7 9 9 8 5 5 -1 -1 -2 -6 -5 4 5 5 6 7 7 8 8 7 7 7 8 8 8 9 8 8 8 8 7 7 7 8 8 8 7 7 6 6 7 9 9 8 7 6 6
1 2 1 7 6 8 6 2 -2 -4 -7 -6 -6 -5 4 6 6 5 7 7 7 7 7 7 8 9 8 8 9 9 9 8 8 7 8 8 8 8 8 8 9 9 8 9 9 8 7 5 5
-2 -1 3 3 8 9 5 3 3 -1 -2 -5 -7 -3 -3 -1 4 6 6 6 6 6 6 6 7 7 7 8 8 9 10 9 9 8 9 8 8 8 8 9 9 8 8 8 8 7 7 6 5
-1 -1 -0 3 5 6 5 4 0 -0 -2 -6 -5 -4 -5 -3 -2 -1 2 5 5 6 6 6 6 8 8 8 7 9 10 10 10 10 10 11 8 7 9 9 8 8 8 8 7 7 6 6 5
-3 -1 1 7 5 5 5 4 -3 -4 -5 -5 -6 -6 -3 -1 -1 -2 -2 2 5 7 6 6 7 8 7 8 9 8 9 10 10 10 10 8 8 10 10 9 8 8 8 7 7 6 6 5 4

GFSSGP_850_dewp_078.txt.gz
Dewpoint
-10 -6 -3 -2 -5 -4 -2 -4 -6 -4 3 3 4 3 3 7 9 8 5 7 13 13 13 10 10 7 6 5 4 3 5 6 4 1 -4 -13 -11 -11 -11 2 5 2 -3 -4 -1 3 5 7 8
-7 -3 1 1 -3 -2 -3 -5 5 5 4 3 4 7 9 8 11 9 8 6 12 12 11 10 5 9 9 6 5 4 6 6 3 -0 -9 -12 -12 -11 -1 3 1 -4 -5 -4 -0 4 6 7 7
-6 -2 0 -2 -3 -1 -2 -5 3 6 5 4 4 6 6 11 8 13 13 12 10 9 10 11 10 4 9 7 6 5 6 5 3 -4 -12 -11 -11 -5 1 -1 -5 -5 -4 -5 1 5 6 7 7
-4 -3 -3 -5 -4 -6 -4 -6 -4 5 5 4 5 5 4 8 8 11 12 12 13 11 9 8 6 8 11 7 7 6 7 5 2 -9 -11 -11 -4 -1 -1 -4 -4 -3 -3 -4 2 5 6 6 6
-1 -2 -4 -4 -4 -6 -7 -6 1 6 6 7 5 6 6 6 3 8 12 11 12 11 8 10 11 5 9 10 8 7 7 5 -2 -12 -11 -2 1 -1 -4 -4 -3 -1 -1 -4 2 5 6 5 6
-1 -4 -3 -2 -4 -6 -4 -1 4 7 7 7 6 8 6 5 4 9 11 11 11 12 9 10 8 10 12 11 8 8 7 4 -7 -13 -5 4 4 -2 -4 -3 -1 -0 0 -3 -4 4 5 5 5
-3 -4 -3 -5 -5 -7 -3 -3 1 7 8 8 6 9 2 4 6 8 8 10 10 11 13 10 11 9 9 11 9 9 8 1 -12 -12 -2 2 2 -2 -3 -1 -0 1 1 -2 -5 -6 3 5 4
-5 -5 -4 -5 -6 -6 -5 -1 3 5 7 7 7 8 5 4 4 11 12 10 9 11 11 9 8 8 9 13 11 10 4 -6 -13 -5 3 3 3 -2 -2 -1 0 2 3 2 -1 -6 -1 4 5
-6 -4 -4 -5 -8 -6 -3 -5 1 2 7 8 7 5 7 7 10 12 11 12 11 12 11 9 9 10 9 12 11 9 4 -8 -7 0 4 5 4 0 -1 0 1 2 3 4 4 -1 -3 4 3
-6 -6 -5 -9 -10 -6 -6 -6 2 5 6 6 5 5 11 12 12 11 11 12 12 12 12 11 9 9 8 8 9 8 5 0 -1 4 4 3 3 1 0 1 2 2 4 5 5 3 -2 -3 -0
-6 -5 -7 -7 -7 -3 -3 -2 2 4 7 6 5 9 13 11 11 11 11 12 12 12 10 11 10 9 8 9 7 5 0 5 6 6 4 4 4 1 1 1 2 3 4 5 5 4 4 1 -1
-7 -8 -8 -7 -4 -2 -1 -1 8 8 8 8 10 11 10 10 11 10 11 12 12 11 11 11 10 9 9 8 7 6 1 3 4 4 4 4 3 1 1 1 2 2 4 5 5 5 4 4 2
-6 -6 -5 -5 -2 -3 -2 1 8 8 12 8 5 5 7 9 10 10 10 11 11 11 12 11 11 10 8 8 7 6 1 2 5 0 4 3 1 0 1 1 2 3 4 5 5 6 5 5 3
-4 -4 -4 -4 -2 -3 -1 2 4 10 11 6 4 5 8 10 9 10 10 11 11 11 11 11 11 11 10 9 8 3 0 0 1 5 3 2 0 -0 1 -0 1 3 4 5 6 6 6 5 2
-3 -3 -4 -5 -3 -1 -2 -1 4 7 7 6 6 11 10 9 9 10 10 10 10 11 11 11 11 10 10 9 6 -0 1 4 5 3 4 1 0 1 -0 -0 0 2 5 5 6 6 7 6 3
-2 -3 -2 -4 -2 -0 -2 1 6 6 6 6 10 11 9 10 9 9 10 10 9 10 10 10 9 10 8 6 2 5 6 4 4 4 4 5 2 1 -1 -1 -1 2 5 6 6 7 7 6 5
-1 1 -0 -1 -4 0 -0 1 5 7 6 9 10 8 8 9 9 9 9 9 9 9 9 9 9 9 9 7 3 6 8 5 3 2 1 1 6 4 1 1 2 3 6 7 7 7 6 6 5
1 1 -0 -0 -2 1 1 2 6 7 7 9 9 8 8 7 9 9 9 9 9 8 9 9 9 9 8 4 0 1 5 6 1 1 1 6 8 6 -0 2 5 7 7 7 7 7 7 6 5
-1 -0 0 -1 -4 2 2 2 0 6 7 7 8 9 7 5 8 8 8 9 9 8 8 9 9 8 8 6 5 6 8 2 2 1 5 3 2 1 0 2 7 9 8 7 7 7 7 6 5
-1 0 -0 -2 -4 -1 -2 -3 -2 7 7 7 8 9 6 7 7 7 7 8 8 7 7 8 8 9 9 8 6 6 7 3 2 2 2 1 -2 -2 -0 4 6 6 7 8 8 7 7 7 4
-0 -0 -1 -3 -2 -3 -2 -1 -2 3 5 7 8 7 6 7 5 4 6 7 7 7 7 6 6 6 7 6 5 4 3 3 2 1 1 1 0 6 6 2 2 4 6 8 8 7 7 7 6
1 -2 -2 -1 0 2 -1 3 1 0 5 7 7 7 8 8 7 3 2 3 2 2 2 2 2 3 3 3 2 2 2 2 4 5 5 6 6 6 7 6 5 4 6 7 8 8 8 7 6
0 -1 -1 -1 0 1 1 3 1 0 4 6 7 7 8 8 8 6 3 0 1 1 2 2 2 1 1 2 2 2 3 3 5 6 5 6 7 6 5 6 5 5 6 7 7 8 9 7 7
-2 -2 -0 1 1 4 2 3 3 2 0 5 6 7 8 8 8 7 6 2 1 1 3 4 5 5 4 3 4 5 5 5 3 2 4 4 4 6 6 8 7 7 6 6 7 9 9 7 7
-2 -0 4 5 6 6 3 4 2 1 -2 1 5 6 7 8 8 8 7 6 2 2 2 4 5 7 7 7 6 5 5 4 5 4 4 4 5 6 7 8 8 8 8 6 7 9 9 8 8
-1 0 5 6 7 7 5 5 1 -2 -2 -3 2 6 6 8 8 7 6 7 6 4 3 3 6 6 8 9 8 7 7 7 7 7 6 6 6 6 6 6 8 8 9 8 9 9 8 8 8
-1 2 1 6 6 7 6 4 -1 -5 -4 -5 -1 6 7 6 7 7 6 7 7 6 6 5 4 6 7 7 8 9 8 7 7 8 7 6 5 5 6 7 8 8 8 9 9 9 8 8 8
-1 -1 4 6 9 8 6 5 3 -1 -3 -5 -2 4 6 6 6 7 7 7 7 6 6 6 5 4 5 7 8 8 8 8 8 8 8 7 6 6 7 7 8 8 8 9 8 8 8 8 8
-1 1 1 2 6 7 6 4 1 0 -1 -5 -5 -1 1 5 5 5 6 7 6 7 7 7 7 7 7 7 8 8 8 8 9 9 9 9 8 8 8 9 9 8 8 8 7 8 7 7 7
-3 -1 0 5 5 5 5 3 -2 -1 -3 -5 -6 -4 -2 -1 0 2 4 5 6 6 7 8 8 7 8 7 7 8 8 8 8 9 9 8 10 8 5 6 8 9 8 7 7 8 6 6 6

GFSSGP_850_dewp_081.txt.gz
Dewpoint
-10 -6 -3 -1 -5 -4 -2 -4 -6 -3 3 3 4 5 3 8 8 6 6 7 12 14 12 7 4 2 3 6 8 8 5 3 1 -0 -2 -4 -7 -8 -9 -5 2 3 -1 -2 -0 1 3 5 5
-7 -3 1 -1 -4 -3 -3 -5 0 4 3 4 4 6 9 10 10 9 7 5 12 15 12 8 4 3 3 3 5 7 4 3 1 -1 -5 -6 -8 -11 -5 2 2 -1 -5 -0 2 4 6 5 5
-6 -2 -1 -2 -3 -2 -2 -5 -3 3 4 5 4 5 7 11 8 11 10 8 11 10 12 10 7 4 5 5 4 5 4 3 1 -3 -6 -8 -9 1 4 2 -4 -5 1 4 5 5 5 6 6
-4 -3 -5 -4 -3 -5 -4 -6 -7 2 4 4 5 6 4 4 5 7 9 11 10 10 10 11 9 6 6 4 6 6 6 4 2 -4 -7 -5 1 4 1 -5 -5 -2 3 5 6 6 6 6 6
-2 -3 -4 -4 -4 -6 -7 -8 -7 2 5 6 6 5 5 7 6 4 7 12 10 11 11 10 12 10 6 5 8 7 6 4 1 -2 -5 2 4 -0 -4 -4 -4 -3 3 6 6 6 6 6 6
-2 -5 -3 -3 -4 -6 -7 -7 3 5 6 7 5 7 8 7 7 9 9 10 9 11 11 9 11 11 9 8 9 8 7 4 -1 -9 5 4 1 -3 -4 -3 -5 -3 4 6 6 5 4 5 6
-4 -4 -3 -4 -4 -5 -7 -2 5 6 7 6 5 7 6 6 7 9 8 10 12 11 10 9 10 12 11 11 11 9 9 3 -4 -7 8 4 -2 -3 -3 -2 -4 -2 4 6 5 4 4 5 5
-5 -5 -3 -4 -5 -6 -9 -1 3 6 6 6 7 6 5 8 13 12 11 10 10 10 10 7 8 9 9 11 11 10 9 4 0 3 7 2 -2 -3 -1 -0 -2 -4 -2 4 5 4 4 3 3
-6 -4 -3 -4 -6 -8 -8 -4 2 3 6 7 8 6 6 12 12 12 12 12 12 12 11 10 10 9 10 10 8 11 9 4 -6 8 8 2 -1 -1 0 1 1 -1 -4 -6 -2 3 3 3 4
-6 -4 -4 -7 -9 -7 -7 -6 2 5 7 7 5 5 9 10 11 11 11 12 12 11 11 9 9 10 10 11 11 11 9 9 5 7 9 1 -0 0 1 2 3 3 2 -2 -2 0 3 3 2
-6 -4 -6 -7 -8 -7 -6 -2 3 5 6 6 6 5 11 11 11 11 11 12 11 11 11 11 9 8 7 11 11 10 8 6 9 9 9 2 0 1 2 2 3 4 4 3 -1 -2 -2 -2 -4
-6 -7 -7 -7 -5 -4 -2 0 8 6 7 6 6 8 12 12 11 9 9 9 11 11 11 11 10 9 8 7 8 8 4 6 8 7 8 4 1 2 2 2 3 4 4 4 4 3 1 -2 -5
-7 -7 -5 -4 -4 -3 -2 1 7 8 8 8 9 11 12 11 10 9 8 10 11 11 11 11 10 9 9 9 9 7 2 2 2 3 5 3 2 1 2 2 3 4 4 4 4 5 4 1 -3
-5 -4 -4 -4 -4 -3 3 6 5 5 10 8 6 8 10 11 9 8 9 10 11 11 11 11 10 8 9 7 8 7 4 3 3 2 3 3 2 2 2 2 2 3 4 4 5 6 5 4 -0
-3 -3 -4 -5 -4 -2 -2 2 4 2 10 10 7 7 10 9 9 9 9 10 10 10 10 10 10 8 8 7 7 4 3 3 2 6 2 3 2 -0 1 1 2 4 4 4 5 6 6 6 1
-2 -2 -2 -5 -4 -3 -2 -1 0 6 8 7 8 11 10 7 9 9 9 10 10 10 10 11 10 10 9 8 7 5 1 3 5 3 5 3 3 1 0 1 2 3 4 5 5 6 6 6 4
-1 -0 -1 -1 -4 -3 -0 -1 -0 6 7 8 8 10 8 5 9 9 9 9 9 10 10 10 10 9 9 8 5 6 7 5 4 5 4 4 2 2 0 1 2 2 2 4 6 6 6 6 5
0 1 -0 -0 -2 -0 1 2 5 7 8 9 10 9 6 2 7 9 8 8 9 9 9 9 9 10 9 7 7 5 3 4 6 4 3 2 1 2 0 1 2 2 2 4 6 6 7 6 6
-1 -0 0 -1 -3 -1 -0 1 1 6 7 8 9 9 5 2 5 9 8 8 8 9 9 9 9 9 8 6 5 8 6 4 3 6 5 3 4 3 1 5 7 5 3 4 6 7 7 7 6
-0 0 0 -1 -3 -1 -1 -0 -3 6 6 6 8 9 7 3 2 7 8 9 9 9 9 8 9 9 8 6 6 7 6 4 6 4 2 2 1 1 6 8 7 4 4 6 7 7 7 7 7
0 1 1 0 -2 -3 -2 -1 -1 4 6 6 6 8 8 5 5 9 8 8 8 8 8 8 8 8 8 7 6 6 6 4 5 2 2 2 3 4 3 3 3 4 6 6 7 8 8 7 7
2 -0 -0 -0 0 2 -1 3 -0 1 6 7 7 7 8 5 5 5 9 8 7 7 7 7 8 8 8 7 3 2 3 6 3 1 2 4 4 3 1 3 4 3 3 4 6 7 8 8 7
1 -1 0 0 1 1 1 3 1 2 5 6 7 7 8 7 6 5 4 1 1 6 6 6 6 8 8 8 7 6 5 7 3 1 2 2 2 1 1 3 5 6 6 5 5 7 8 8 8
-1 -0 -0 1 1 4 2 2 2 1 1 4 5 7 7 7 7 6 3 1 1 1 0 0 2 4 5 6 7 6 6 6 5 2 2 1 0 -0 -1 1 4 5 5 7 6 6 6 7 9
-1 -0 4 4 4 4 2 4 2 -0 -1 2 5 6 6 6 7 7 6 3 1 0 -0 -0 -0 1 3 3 2 2 2 1 1 1 1 2 0 0 -0 2 4 4 6 7 7 6 7 7 8
-0 1 5 5 6 5 5 7 4 -1 -2 -2 2 3 6 7 7 6 7 6 2 1 1 2 3 2 0 -0 0 1 1 1 2 2 2 0 -1 -1 -1 -1 2 5 6 8 8 8 8 8 8
-1 1 -1 3 6 7 5 4 1 -4 -3 -1 2 5 6 6 6 6 6 7 6 3 1 1 2 3 4 4 3 3 3 4 4 4 4 4 4 4 4 4 5 5 6 7 9 8 8 8 8
-3 -1 3 5 7 8 6 5 4 0 -3 -4 1 5 5 6 7 7 6 6 6 5 4 2 2 2 3 5 6 6 6 6 5 5 6 7 7 8 8 7 7 7 7 8 9 9 8 9 8
-0 1 1 2 5 6 7 4 1 1 -2 -4 -3 4 4 5 5 5 5 5 6 6 6 6 4 3 3 4 6 7 8 8 8 8 8 8 8 8 8 8 8 8 9 8 7 8 9 8 8
-4 -2 2 4 5 5 5 3 -2 -1 -1 -2 -5 -2 2 1 1 2 4 4 5 5 6 6 6 6 5 5 3 4 7 8 8 8 8 8 9 9 8 8 8 6 7 7 8 9 7 7 8

GFSSGP_850_dewp_084.txt.gz
Dewpoint
-9 -7 -2 -2 -7 -5 -3 -3 -6 -2 1 4 4 5 4 6 6 4 6 5 12 14 11 7 7 7 5 6 7 7 9 10 10 10 11 8 -1 -6 4 9 10 9 8 4 -2 -2 -2 -2 -1
-8 -2 0 -3 -4 -3 -4 -6 -5 1 3 3 4 5 8 8 9 8 11 8 5 13 14 9 6 5 7 8 8 8 8 10 9 10 6 -1 -5 -5 6 8 8 6 2 -0 -1 3 2 2 -10
-6 -2 -2 -4 -3 -2 -3 -5 -6 -2 -3 3 4 5 7 10 8 7 11 10 8 12 14 12 8 5 6 10 9 7 7 8 6 0 -0 -5 -6 -1 7 4 2 1 -2 10 6 5 4 2 2
-4 -3 -5 -4 -3 -5 -5 -6 -6 -5 2 5 5 5 4 4 5 5 6 11 10 10 11 11 11 9 9 9 9 6 4 2 1 -1 -3 -8 -7 -1 1 1 1 -0 0 2 4 5 5 5 5
-2 -4 -4 -4 -4 -6 -6 -7 -7 -1 2 6 6 5 4 5 5 5 4 5 10 10 9 10 11 9 9 9 7 5 3 2 0 -0 -4 -9 -8 1 2 2 5 -2 -0 2 4 5 6 6 5
-3 -5 -4 -4 -5 -6 -6 -7 -1 1 4 6 6 6 6 6 6 5 9 9 9 8 7 9 10 10 9 9 7 6 3 3 0 -0 -7 -9 -0 1 1 7 0 0 3 3 5 5 6 6 5
-5 -4 -4 -4 -4 -5 -7 -6 4 5 6 6 6 7 6 6 5 5 8 7 9 8 6 8 9 12 9 10 10 8 5 4 -1 -2 -7 -5 2 -1 0 2 2 2 3 4 4 5 6 5 5
-4 -5 -3 -4 -4 -5 -8 -4 -1 4 5 6 6 7 5 5 9 10 10 10 10 9 8 8 8 10 11 10 11 10 7 6 2 -1 -6 -9 1 -2 -2 2 5 4 4 4 4 4 5 5 4
-6 -4 -3 -4 -5 -6 -8 -6 -1 2 5 6 7 6 5 8 12 11 12 12 10 10 9 7 7 8 10 10 10 10 10 8 4 6 -3 1 -2 -2 -1 4 5 5 5 4 4 3 3 3 3
-6 -4 -4 -6 -7 -7 -7 -7 -6 4 6 7 6 6 5 9 12 11 11 11 12 11 11 10 10 9 9 10 8 11 10 9 7 9 4 -2 -2 -0 -0 2 3 4 4 4 4 3 3 1 1
-6 -4 -6 -6 -7 -7 -6 -5 -2 4 5 5 6 5 5 11 12 12 12 11 11 11 11 10 9 9 9 10 11 11 10 9 9 9 2 -2 -0 1 1 1 -2 -5 -5 -4 -1 1 3 -1 -2
-5 -6 -7 -7 -6 -4 -2 -2 6 4 3 7 6 6 8 10 10 10 11 11 11 11 11 10 9 8 10 10 9 11 11 9 8 8 1 -1 0 2 2 2 1 -1 -2 -3 -2 -1 -2 -5 -5
-6 -7 -6 -5 -4 -4 -4 -1 3 6 5 8 9 10 10 11 10 10 10 10 11 11 11 11 9 8 9 10 10 10 10 9 8 7 3 0 1 2 3 4 4 4 2 2 2 1 -1 -4 -5
-5 -5 -4 -4 -4 -5 -1 2 5 1 5 10 8 9 10 11 10 10 11 10 11 11 11 11 10 9 8 9 10 10 9 8 8 5 1 1 1 2 3 4 5 5 4 4 4 3 3 -0 -5
-3 -2 -4 -5 -5 -3 -2 -0 6 2 4 9 8 7 9 10 9 8 11 10 10 10 11 11 10 10 10 9 9 8 8 5 5 7 5 1 1 3 2 3 4 5 5 5 5 5 4 4 -1
-2 -3 -1 -6 -4 -3 -2 0 -2 1 3 9 9 9 10 9 8 9 10 9 10 10 10 10 10 9 9 9 8 8 5 5 6 4 4 4 1 2 2 2 3 5 5 5 5 5 5 5 3
-1 -0 -2 -2 -3 -2 -1 -0 -1 4 8 7 7 9 10 9 10 9 10 9 9 9 10 10 9 9 9 9 8 7 4 4 4 4 5 4 4 1 2 3 2 4 5 6 5 5 6 6 5
1 1 -0 0 -2 -2 -1 1 -2 5 6 6 8 9 10 7 9 8 8 8 8 9 9 10 9 9 8 8 8 7 5 5 6 4 7 3 3 3 2 2 3 3 4 5 5 6 6 6 6
-2 -0 0 -1 -3 -2 -2 -2 -2 4 7 8 9 9 9 7 7 8 8 8 8 9 9 9 9 9 9 8 7 6 6 5 4 4 4 5 6 3 2 3 3 3 2 4 5 6 7 7 6
-1 0 1 -1 -3 -2 -2 -1 -2 1 6 7 7 8 8 7 6 9 9 8 8 9 9 9 9 9 9 8 7 6 3 6 7 7 6 5 4 2 3 3 3 3 4 5 6 6 6 7 7
0 1 0 -1 -1 -2 -1 -0 -2 -0 5 6 6 6 7 6 6 7 8 8 8 8 8 8 8 9 8 8 7 8 6 5 8 7 3 5 5 5 4 6 6 4 6 7 7 6 6 7 7
1 -1 -1 0 0 3 -1 3 -0 -2 -0 6 6 6 6 7 4 5 4 5 6 7 8 8 8 9 9 8 7 5 5 4 7 5 5 7 5 4 5 5 2 1 4 4 4 6 6 8 8
-1 -1 0 1 1 1 1 3 0 -0 1 1 6 6 6 6 5 4 3 1 4 7 8 9 8 8 8 8 6 7 7 4 3 4 7 6 5 3 3 1 -0 2 3 4 6 4 5 7 7
-1 -0 0 1 2 5 2 2 1 0 1 1 2 5 6 6 6 5 5 2 1 5 6 6 7 8 8 8 7 7 7 5 5 4 5 2 1 2 2 2 2 2 2 5 6 6 7 7 6
-0 0 4 4 5 5 1 3 0 -1 -2 -1 -0 2 4 6 7 6 6 3 1 2 4 4 6 6 7 7 7 6 4 5 4 3 3 2 1 2 2 2 2 2 1 4 6 6 7 8 7
1 1 5 6 6 4 3 5 3 0 -1 -2 -2 -1 4 5 6 6 6 6 2 1 1 0 0 3 5 6 7 7 7 6 5 5 5 3 1 1 2 2 1 1 1 2 3 6 7 7 8
-1 2 -0 3 5 7 5 3 0 -1 -3 -3 -1 3 5 4 5 5 6 6 5 1 -0 -1 -1 -1 -1 0 2 4 5 5 6 5 5 5 3 1 1 1 0 0 1 4 5 5 6 7 9
-3 -1 3 4 6 7 5 5 3 1 -0 -4 -1 3 2 5 6 6 6 6 6 5 2 0 -0 0 0 -0 -1 -0 -0 0 1 1 0 1 1 1 2 3 4 6 7 7 7 7 8 8 7
-1 -1 1 2 4 5 6 5 1 0 -1 -1 -4 -1 0 2 3 4 4 5 6 7 6 4 2 1 1 2 2 2 1 1 2 2 3 3 3 4 5 6 7 8 9 7 7 8 9 7 6
-4 -3 -1 2 4 5 4 2 -2 -1 -1 -2 -3 -5 -2 -2 -2 -1 3 4 5 5 6 6 5 3 2 2 1 1 2 4 5 5 6 7 7 8 8 9 9 9 8 6 7 8 9 7 6

GFSSGP_850_dewp_087.txt.gz
Dewpoint
-10 -7 -2 -2 -6 -5 -3 -3 -5 -4 -1 3 3 5 3 5 4 3 7 6 5 13 10 9 9 11 10 10 10 10 11 11 10 9 8 9 7 -1 2 3 9 9 8 3 -5 -6 -2 -4 -4
-7 -4 0 -4 -4 -4 -4 -6 -5 -4 -1 0 4 6 7 5 7 7 8 9 6 11 12 10 10 10 10 9 10 10 11 11 10 9 9 9 3 -3 2 7 9 7 5 -1 -3 -3 -4 -7 -10
-5 -2 -2 -4 -3 -4 -4 -5 -6 -6 -4 0 3 5 5 8 8 6 6 10 10 8 13 13 11 10 10 10 10 10 11 11 10 10 10 8 -2 -5 1 9 9 7 4 5 -0 -0 -9 -9 -12
-5 -4 -5 -3 -4 -5 -5 -7 -6 -7 0 4 5 5 4 2 3 4 4 4 8 10 11 12 13 10 10 10 9 10 11 11 11 11 9 0 -7 3 4 9 7 7 3 10 3 -2 -1 -5 -15
-3 -4 -4 -3 -4 -5 -6 -7 -6 -5 -1 6 6 4 5 3 3 4 5 4 5 9 11 10 11 11 12 9 9 10 10 11 11 10 1 -4 -5 -2 4 5 6 9 9 5 4 3 3 -8 -10
-3 -5 -3 -4 -5 -6 -6 -7 -6 -1 0 6 7 6 5 3 4 5 4 7 7 8 11 10 9 9 12 12 10 9 10 11 9 1 -2 -5 -2 -7 3 2 6 3 4 5 5 4 3 -1 -3
-5 -4 -5 -5 -4 -4 -6 -7 1 1 3 4 5 5 5 5 4 5 4 6 7 9 9 9 9 11 8 12 11 10 10 8 2 -1 -1 -4 -11 -4 3 2 0 2 5 5 5 5 4 3 1
-5 -4 -3 -3 -4 -5 -7 -6 -6 1 -1 3 5 6 5 4 7 7 7 9 9 9 8 8 9 10 10 11 12 10 8 4 2 -1 -3 -6 -3 1 2 -3 2 5 4 6 6 5 5 3 2
-5 -3 -3 -4 -4 -5 -7 -7 -4 -0 4 5 5 5 6 6 7 9 7 9 10 9 9 7 8 9 12 10 10 11 10 8 8 4 -1 0 2 3 -1 -3 4 5 5 5 6 6 5 3 1
-5 -3 -4 -6 -6 -6 -7 -6 -6 0 4 4 5 5 6 7 8 8 10 10 11 11 10 8 8 9 8 9 10 11 12 10 10 8 4 3 2 -1 -4 -1 5 5 4 4 6 5 3 2 0
-5 -5 -5 -6 -6 -7 -6 -5 -5 1 1 3 3 4 6 6 8 9 11 10 10 9 11 10 10 10 10 11 10 10 11 11 9 9 8 2 -0 -1 -3 2 5 5 4 4 4 4 3 1 -1
-4 -5 -5 -6 -7 -5 -4 -3 2 3 -0 3 5 5 6 8 9 11 11 10 9 9 11 11 11 9 9 9 10 10 10 11 10 8 7 1 -0 -2 -0 2 4 4 4 3 3 3 1 -0 -2
-5 -6 -6 -6 -6 -4 -4 -4 -2 1 2 3 5 7 8 9 9 10 10 10 9 10 10 11 10 9 9 10 10 10 10 10 9 7 4 1 -0 -1 -1 -1 -0 -2 -0 2 2 -1 -3 -5 -4
-4 -6 -5 -4 -4 -4 -4 -2 5 2 1 7 8 9 9 9 9 10 10 9 10 10 10 11 10 9 9 9 9 10 11 10 8 4 4 2 1 -1 -2 -3 -4 -3 -1 -0 -1 -1 -3 -5 -5
-3 -2 -3 -4 -5 -5 -3 -1 2 1 7 9 9 7 9 10 10 9 9 9 10 10 10 11 11 10 9 10 10 10 10 10 6 7 4 2 1 1 0 1 2 1 0 2 3 3 1 -3 -5
-2 -2 -2 -6 -4 -3 -2 -0 -2 0 9 9 9 9 9 10 9 8 9 9 9 9 10 10 10 10 9 10 10 10 10 9 8 5 3 1 1 2 3 4 4 4 4 4 5 4 4 2 -2
-1 -2 -2 -4 -3 -2 -1 -1 -3 1 8 9 10 9 8 9 9 8 9 9 9 9 10 10 10 10 9 10 10 10 9 8 7 8 3 0 2 2 3 4 5 5 5 5 5 6 5 5 3
-4 0 -0 -1 -2 -3 -3 -2 -3 0 5 5 7 9 8 9 8 7 9 9 8 9 9 10 10 9 9 9 9 9 9 7 7 7 7 1 2 3 3 4 4 5 5 5 5 6 6 6 6
-3 -1 -1 -2 -3 -3 -3 -2 -3 -3 4 6 7 9 9 9 8 8 8 8 8 9 9 9 10 9 9 9 8 8 7 6 7 6 3 7 3 3 2 3 3 4 5 4 5 6 6 6 6
-1 -0 -0 -2 -3 -2 -2 -2 -2 -0 2 3 6 8 9 8 7 8 8 8 8 9 9 9 9 9 9 9 8 7 7 8 8 6 4 6 6 5 4 3 3 4 4 4 4 5 6 7 7
0 1 0 -1 -2 -2 -1 -0 -1 -2 3 4 6 6 7 8 7 7 9 8 8 8 9 9 9 9 9 8 8 8 6 7 6 7 7 4 4 3 2 3 3 3 2 3 3 4 6 7 7
1 -1 -1 -1 -0 -2 -1 3 -0 -2 -2 3 4 7 7 7 7 6 8 7 7 8 8 8 8 9 9 9 8 8 5 5 5 4 4 6 4 4 4 4 3 2 2 5 6 6 7 7 7
-1 -1 -0 -0 1 1 0 2 0 -1 -1 -2 0 5 6 5 6 4 5 3 6 8 8 8 8 8 8 8 9 8 5 5 6 5 4 6 6 5 3 3 3 5 7 6 4 4 6 6 7
-1 -1 0 2 2 5 2 2 1 -1 -1 -1 0 3 5 5 5 5 4 5 4 7 7 8 8 8 8 8 8 7 5 5 6 7 7 5 4 5 5 6 6 5 3 2 3 4 5 6 7
-1 1 3 5 5 4 1 3 1 -1 -2 -2 -2 0 3 4 4 6 4 5 3 3 5 6 7 8 8 8 8 7 6 5 5 4 7 4 3 5 6 6 5 3 2 2 2 2 3 6 7
1 1 3 2 5 3 2 3 0 -1 -1 -1 -1 -1 -1 2 4 5 5 5 2 0 1 2 4 6 7 8 8 7 6 6 4 3 4 3 3 7 6 5 4 3 2 2 2 1 2 5 6
1 2 -1 3 5 6 4 3 1 -1 -1 -3 -3 2 4 1 3 4 5 5 5 -0 -2 -2 -0 2 4 6 7 7 7 6 7 5 4 4 4 7 5 3 2 2 2 2 2 3 5 6 6
-2 -1 3 2 2 3 3 4 1 1 -0 -1 -2 0 4 3 4 4 4 4 5 4 -0 -1 -2 -2 -0 3 5 6 6 6 6 6 5 5 4 4 3 2 1 1 2 2 3 5 5 7 7
-2 -2 1 1 3 2 4 3 3 1 -1 -1 -0 -3 0 3 4 3 4 4 5 5 4 1 -1 -1 -1 -1 -0 0 1 3 4 4 4 3 4 4 4 3 2 2 2 4 6 6 6 8 7
-4 -3 -2 1 0 5 4 2 -1 1 0 -0 -1 -3 -5 -2 1 3 4 5 5 5 6 5 2 0 -1 -1 -1 -1 -1 -1 -1 -1 -1 -1 -1 -1 -1 0 1 2 4 7 8 9 5 6 9

GFSSGP_850_dewp_093.txt.gz
Dewpoint
-14 -10 -3 -4 -5 -7 -7 -7 -9 -9 -8 -7 -4 -3 -3 -3 -3 -0 8 7 3 8 14 14 13 11 11 12 12 11 10 9 8 7 6 4 1 1 5 -1 1 10 8 6 5 -2 0 4 5
-2 -4 -2 -3 -6 -6 -8 -7 -7 -9 -8 -6 -3 -3 -3 -2 -3 0 5 10 3 9 9 15 14 12 11 12 11 11 11 9 8 7 6 3 2 4 8 4 5 8 7 5 -2 -4 -4 -4 -4
-2 -3 -2 -4 -6 -6 -7 -8 -9 -9 -8 -7 -6 -2 -3 -4 -1 2 9 5 9 8 13 14 15 14 12 11 11 5 7 11 9 8 7 2 3 4 6 7 8 6 6 -1 2 -3 -5 -4 -2
-3 -4 -6 -9 -8 -9 -8 -9 -9 -8 -8 -6 -7 -5 -3 0 3 5 9 7 8 10 11 13 12 14 13 12 9 6 4 12 8 9 7 3 3 4 9 7 10 6 4 -7 -5 -7 -8 -7 -5
-4 -6 -7 -7 -8 -11 -9 -10 -8 -8 -8 -7 -3 -2 -2 0 4 7 8 8 3 6 11 13 11 13 13 12 12 12 11 12 10 9 6 3 3 5 10 10 8 5 -0 -7 -8 -10 -8 -8 -9
-6 -9 -7 -7 -10 -12 -10 -9 -8 -8 -8 -7 -3 -3 -3 4 6 7 11 10 2 -0 6 13 8 11 12 11 11 7 7 13 12 10 6 4 3 5 8 9 6 2 -5 -7 -10 -14 -13 -12 -10
-6 -7 -6 -8 -10 -13 -10 -8 -7 -7 -8 -8 -5 -4 -4 2 7 9 11 12 1 1 2 7 7 11 10 11 9 6 7 10 13 10 5 4 2 6 9 9 6 -0 -4 -6 -10 -15 -15 -15 -13
-6 -8 -7 -9 -9 -10 -13 -9 -9 -8 -7 -6 -5 -4 -3 5 9 11 11 11 5 4 6 6 9 10 10 10 8 9 9 8 12 10 7 4 4 6 9 9 6 3 -1 -3 -9 -11 -11 -11 -11
-7 -8 -7 -8 -9 -10 -12 -9 -9 -7 -7 -7 -7 -2 1 4 10 10 10 12 13 8 11 9 11 12 8 10 9 9 10 8 10 11 7 5 9 7 10 8 7 4 2 -1 -4 -5 -7 -10 -10
-7 -7 -8 -10 -11 -11 -11 -10 -9 -9 -8 -8 -7 -3 2 5 8 9 10 10 12 12 10 10 11 9 8 9 10 10 7 9 10 12 8 8 10 9 11 7 7 4 3 1 0 -0 -4 -7 -9
-8 -7 -10 -10 -11 -11 -10 -10 -10 -9 -7 -7 -5 -4 -0 5 7 10 10 10 10 11 11 12 11 11 8 9 11 9 8 9 10 11 8 11 10 10 11 5 6 5 5 4 3 1 0 4 4
-8 -10 -10 -10 -12 -11 -9 -10 -9 -9 -8 -8 -7 -0 3 4 7 10 10 11 10 10 11 11 11 11 11 9 11 10 8 9 11 11 10 9 10 9 9 6 6 6 6 4 3 2 6 5 5
-8 -8 -8 -9 -9 -10 -10 -11 -10 -10 -9 -8 -4 3 3 4 8 11 10 10 11 10 11 11 10 11 11 11 9 11 11 9 12 11 9 8 9 10 8 9 9 8 8 7 6 7 7 6 5
-8 -8 -7 -7 -8 -9 -9 -9 -10 -10 -9 -4 1 4 4 7 8 11 10 10 10 10 11 10 10 10 10 11 9 10 10 10 10 9 8 9 10 9 9 9 9 8 8 8 7 8 7 6 5
-7 -5 -6 -7 -8 -8 -9 -9 -10 -11 -7 -2 1 5 5 6 8 9 10 9 9 10 9 10 10 11 11 10 9 10 9 11 11 10 8 7 10 8 9 9 8 8 8 8 8 8 6 5 4
-4 -5 -3 -6 -8 -9 -9 -7 -9 -6 -3 -3 2 4 5 5 7 9 10 9 10 10 9 10 10 10 10 10 10 9 8 9 10 10 8 9 9 8 8 9 8 9 8 8 8 7 5 5 4
-4 -3 -3 -4 -8 -8 -7 -6 -8 -3 -2 -3 -0 2 4 5 7 9 9 9 10 10 9 10 10 10 10 9 9 9 10 9 11 10 9 9 8 6 8 7 7 7 8 7 7 6 5 4 4
-2 -3 -3 -3 -6 -7 -7 -8 -7 -9 -5 -4 -3 -1 3 5 6 9 9 9 10 9 9 10 10 10 10 10 10 10 10 10 10 10 9 6 3 4 7 7 6 5 3 4 4 4 5 4 3
-4 -4 -3 -5 -7 -7 -5 -6 -9 -9 -8 -6 -5 -3 1 4 6 8 9 9 10 9 10 10 10 9 10 10 10 10 10 10 10 10 6 5 5 6 6 2 0 -1 0 2 3 5 5 5 4
-3 -2 -2 -4 -6 -6 -4 -5 -9 -10 -10 -7 -6 -3 -0 4 6 8 9 9 10 9 10 10 9 9 10 10 10 10 10 10 10 8 6 5 4 4 -0 -2 -0 0 3 5 6 6 6 6 5
-2 -1 -1 -3 -5 -5 -4 -3 -6 -9 -10 -8 -6 -4 -3 2 6 7 8 9 10 9 9 9 10 10 9 10 10 10 9 9 7 6 4 4 3 3 2 4 4 6 6 6 5 6 5 6 6
0 -3 -4 -4 -3 -0 -4 -1 -6 -7 -7 -5 -5 -4 -3 -0 5 6 8 8 9 10 9 9 9 9 9 10 10 9 9 7 6 4 4 4 4 4 5 6 6 5 5 7 4 4 5 7 8
-2 -4 -4 -3 -2 -1 -3 -2 -4 -7 -7 -7 -7 -6 -4 -0 4 6 7 7 9 10 10 9 9 9 9 9 9 9 8 7 7 7 6 5 4 3 5 4 6 6 4 5 3 5 4 7 6
-5 -3 -2 -2 -1 2 -1 -1 -2 -6 -5 -6 -5 -4 -3 0 4 5 6 6 8 10 10 10 9 9 9 9 9 9 9 7 7 7 5 5 5 5 4 6 6 7 6 4 4 5 5 4 6
-3 -1 3 7 7 3 -2 -1 -1 -5 -7 -7 -6 -5 -1 1 4 5 6 6 7 9 10 10 9 9 9 9 9 8 8 8 7 5 6 6 5 4 4 7 7 6 5 5 6 6 4 4 5
-3 -1 1 5 6 5 -1 -1 -3 -6 -7 -6 -5 -5 -1 1 4 5 6 6 6 9 9 9 9 9 8 9 9 9 8 9 8 7 6 6 5 6 6 5 5 7 7 7 8 7 4 6 7
-4 -0 -3 0 1 4 2 -2 -3 -4 -3 -5 -6 -4 -2 1 3 5 5 7 6 7 8 9 9 9 9 9 9 9 8 8 8 8 7 6 4 5 6 5 4 5 7 7 8 6 5 7 7
-9 -9 -1 -2 4 5 1 -1 -2 -3 -3 -4 -5 -6 -5 -1 3 4 5 7 7 7 8 8 8 8 9 9 9 9 8 8 8 8 8 7 6 5 6 5 6 5 5 6 6 6 8 7 7
-6 -6 -6 -3 -2 2 4 0 -4 -3 -3 -3 -5 -4 -3 -1 2 3 4 6 8 7 7 8 8 7 8 9 9 9 9 9 8 8 8 7 8 8 7 7 7 7 7 7 8 8 7 7 7
-1 -5 -6 0 -1 -1 0 1 -3 -3 -3 -1 -2 -3 -3 1 3 3 3 5 7 8 7 8 8 7 7 8 9 9 9 9 9 9 8 8 8 8 8 7 7 7 7 7 7 7 7 7 8

GFSSGP_850_dewp_096.txt.gz
Dewpoint
-15 -15 -6 -3 -3 -4 -4 -7 -9 -8 -9 -7 -6 -6 -6 -6 -5 2 9 6 2 10 11 5 9 13 11 12 12 12 11 8 6 7 6 4 2 1 -0 3 3 -2 4 6 4 5 7 8 8
-9 -2 -4 -4 -1 -4 -5 -8 -7 -9 -9 -7 -7 -6 -5 -4 -4 2 10 7 0 7 10 8 12 13 12 11 13 13 11 9 7 7 6 4 2 1 0 7 5 7 3 4 -1 -2 -0 4 6
-2 -2 -5 -2 -2 -3 -6 -9 -9 -10 -9 -8 -8 -7 -4 -4 -2 3 4 3 6 9 12 12 12 13 13 11 12 11 11 11 8 8 7 5 2 1 2 9 9 7 4 -2 -8 -8 -7 -4 -1
-1 -4 -4 -3 -6 -9 -10 -9 -10 -9 -10 -8 -7 -7 -6 -2 -0 2 4 2 7 10 10 9 9 10 14 12 11 12 10 11 11 8 8 5 4 4 6 10 9 8 3 -7 -11 -9 -7 -3 -3
-3 -4 -3 -3 -6 -9 -11 -10 -10 -9 -9 -9 -7 -4 -4 -4 2 2 5 2 3 7 11 9 9 8 12 13 12 12 11 10 11 11 9 8 7 7 5 10 10 10 1 -8 -9 -9 -9 -5 5
-5 -6 -4 -5 -7 -10 -13 -10 -10 -9 -9 -8 -8 -5 -4 2 5 7 6 4 3 3 4 11 6 5 7 13 12 12 10 10 9 10 12 9 8 8 2 10 10 6 0 -9 -11 -12 -10 -8 5
-6 -5 -4 -5 -7 -8 -12 -10 -8 -8 -8 -9 -8 -5 -6 3 6 6 9 10 7 4 4 6 4 5 7 10 12 12 11 9 7 7 12 11 7 4 3 9 7 2 -5 -9 -11 -12 -11 -8 -2
-7 -6 -4 -5 -7 -8 -11 -12 -9 -10 -9 -8 -8 -6 -4 5 5 9 11 10 11 8 9 6 5 8 8 10 10 11 10 5 7 7 10 11 10 6 7 9 5 -3 -8 -12 -15 -15 -14 -10 -3
-6 -4 -4 -7 -8 -9 -11 -11 -10 -9 -10 -8 -8 -8 -5 3 6 8 10 11 12 12 11 8 10 12 12 11 9 10 8 9 8 7 8 9 11 8 10 8 3 -4 -6 -13 -14 -14 -13 -12 -6
-6 -4 -5 -9 -10 -10 -11 -11 -10 -10 -10 -9 -9 -6 -2 0 5 8 9 10 11 11 12 11 10 12 12 10 8 8 9 10 10 9 8 10 10 10 9 8 4 -1 -7 -10 -11 -11 -11 -11 0
-7 -4 -7 -8 -10 -10 -11 -11 -11 -11 -10 -9 -8 -6 -5 -1 5 6 9 9 10 10 10 10 9 12 11 10 9 9 10 10 10 9 10 10 11 10 9 9 5 1 -4 -6 -7 -9 -10 -10 1
-6 -8 -8 -9 -10 -10 -10 -11 -10 -10 -10 -10 -9 -7 -1 1 3 6 9 9 9 10 11 10 10 11 10 10 10 11 10 9 8 8 9 12 11 10 9 8 5 2 -0 -0 -3 -6 -4 -9 3
-7 -8 -9 -9 -10 -8 -9 -9 -9 -10 -12 -11 -10 -4 0 1 3 7 10 10 10 10 10 10 10 10 11 11 10 11 9 9 9 9 11 11 10 9 9 9 5 3 3 2 0 5 3 2 5
-7 -8 -8 -8 -8 -7 -7 -8 -9 -9 -11 -11 -9 -2 1 3 5 8 11 10 10 10 11 11 11 10 11 11 10 10 9 8 11 12 11 10 9 8 9 6 5 4 4 2 6 7 6 5 6
-5 -4 -6 -6 -7 -7 -7 -6 -7 -9 -10 -11 -7 -3 2 2 6 7 10 9 9 9 11 10 10 10 10 11 9 9 10 10 10 12 12 11 9 10 8 7 6 8 6 4 7 7 6 5 5
-4 -4 -2 -5 -6 -6 -7 -4 -7 -9 -10 -10 -3 -2 2 3 5 7 9 9 9 10 10 10 10 11 11 11 9 9 11 9 10 10 11 10 10 10 7 8 7 9 8 6 8 8 6 5 5
-3 -1 -2 -3 -6 -6 -7 -6 -9 -7 -5 -4 -4 -3 1 3 5 7 10 9 9 9 10 10 10 10 10 10 10 10 9 11 9 9 9 9 9 7 8 8 8 9 8 8 8 7 5 4 4
-1 -1 -2 -2 -5 -5 -5 -6 -7 -10 -4 -3 -4 -4 -2 2 4 8 9 9 9 9 10 10 10 10 10 9 9 9 10 9 10 10 9 9 9 9 9 8 8 8 8 8 7 6 5 4 4
-4 -3 -2 -4 -6 -5 -4 -5 -6 -7 -9 -7 -7 -5 -4 0 4 8 8 9 9 9 9 10 10 10 9 10 10 10 10 10 10 10 10 9 9 8 8 8 8 9 8 8 7 5 4 4 3
-5 -3 -2 -3 -5 -3 -4 -5 -5 -6 -7 -9 -10 -7 -4 -0 7 9 9 9 9 11 10 10 10 9 9 10 10 10 10 10 10 10 10 9 9 8 7 6 7 8 7 7 5 5 4 4 4
-3 -2 -1 -0 -2 -3 -3 -3 -4 -5 -6 -8 -9 -8 -6 -1 6 8 9 9 9 10 10 10 9 9 9 9 9 10 10 10 10 10 9 9 8 6 3 3 6 6 5 4 4 5 5 4 6
-5 -4 -3 -1 1 1 -2 1 -2 -4 -6 -7 -8 -8 -6 -5 6 8 8 9 9 10 10 10 10 9 9 9 10 10 9 10 10 10 9 5 4 2 4 4 4 2 3 5 6 4 4 5 6
-5 -6 -4 -1 2 1 0 1 -1 -4 -5 -6 -5 -5 -5 -4 5 7 8 9 9 10 10 9 10 10 9 9 10 10 10 10 10 9 6 4 4 4 5 4 3 4 6 6 5 5 6 5 4
-8 -5 -3 -2 -0 4 2 2 -0 -3 -4 -6 -7 -6 -5 -3 5 6 7 8 9 9 10 10 10 9 9 9 9 9 9 9 9 7 5 4 4 5 5 4 5 5 6 6 4 5 4 4 2
-7 -3 2 5 6 8 2 2 1 -2 -5 -6 -4 -4 -3 -1 4 5 7 7 9 9 10 9 9 9 9 9 9 9 9 8 7 6 5 4 4 4 4 4 6 6 6 5 5 6 5 4 3
-6 -3 2 4 8 5 5 4 0 -4 -5 -7 -7 -6 -2 -0 4 5 6 6 8 9 8 10 9 10 9 9 9 9 9 8 7 5 5 6 5 4 6 5 4 4 6 7 7 5 4 3 4
-5 -1 -3 1 1 8 6 4 1 -4 -4 -5 -5 -5 -1 0 4 5 6 6 7 9 8 8 9 9 9 9 9 9 9 8 8 7 5 5 5 5 5 4 3 3 4 7 5 4 4 3 4
-6 -6 -0 0 4 5 3 5 3 0 -2 -3 -4 -4 -3 -0 3 5 6 7 6 8 8 7 9 9 8 10 9 9 9 8 8 8 7 6 5 4 4 4 4 3 7 6 5 5 6 5 5
-9 -7 -7 -5 -1 2 5 4 3 3 1 -0 -1 -3 -4 -3 2 4 5 7 6 7 8 9 9 9 9 9 9 9 9 8 8 8 8 6 5 4 5 4 5 5 5 5 5 5 6 6 4
-2 -6 -6 -2 -1 -1 1 2 2 0 -1 -1 -2 -4 -3 -2 0 3 4 7 7 7 7 8 8 8 9 9 9 9 9 8 8 8 7 8 8 7 6 5 7 6 6 5 7 7 6 7 7

GFSSGP_850_dewp_099.txt.gz
Dewpoint
-18 -16 -8 -3 -1 -2 -2 -3 -7 -7 -4 -6 -6 -5 -5 -6 -5 2 9 6 7 8 2 -2 4 9 11 11 10 10 9 7 6 5 5 4 3 2 0 -1 -0 -2 -2 -1 1 2 6 9 10
-16 -4 -2 -3 -0 1 -0 -6 -7 -6 -6 -8 -8 -6 -5 -4 5 8 8 7 4 3 1 -2 2 6 11 11 11 11 11 9 6 6 5 4 2 1 -1 -3 -1 1 2 3 5 6 7 8 9
-7 -0 -1 -2 1 1 -1 -8 -8 -8 -9 -8 -8 -8 -5 -4 6 7 4 2 -2 3 -1 -0 2 5 10 12 11 12 12 10 8 6 6 4 3 1 -2 -4 -2 6 5 4 0 5 6 5 7
-3 -1 -3 -2 -1 -2 -3 -8 -9 -8 -9 -8 -7 -6 -6 -3 -1 -0 5 3 -2 -0 1 3 2 4 7 12 12 13 12 11 9 7 7 5 6 3 2 -3 4 5 5 -2 -6 -1 1 2 6
-4 -3 -2 -1 -1 -4 -6 -9 -9 -8 -9 -8 -6 -4 -4 0 -0 2 2 -0 0 4 3 3 1 4 6 7 12 12 12 11 12 12 11 8 10 6 6 0 7 7 1 -8 -9 -6 -2 3 4
-3 -4 -2 -2 -4 -6 -8 -10 -9 -7 -8 -8 -7 -5 -1 2 3 2 2 2 1 4 4 3 3 4 6 8 12 13 12 12 11 10 9 11 10 9 7 6 8 10 -2 -8 -8 -5 -5 3 9
-3 -3 -2 -3 -3 -5 -8 -9 -6 -8 -8 -8 -8 -6 3 4 4 4 5 4 3 4 4 2 3 5 7 9 13 13 12 12 10 9 10 9 9 11 8 6 8 8 -4 -6 -7 -6 2 9 8
-2 -5 -4 -4 -4 -4 -8 -8 -8 -9 -9 -8 -9 -6 -3 4 6 5 5 4 5 8 8 5 5 6 7 8 9 11 11 11 10 10 8 8 8 11 9 7 8 5 -2 -5 -6 -5 4 7 7
-5 -4 -3 -4 -4 -5 -9 -11 -10 -10 -9 -10 -9 -8 -8 2 4 4 6 9 9 11 11 10 8 5 10 11 11 11 12 12 11 9 8 7 8 11 9 10 8 -1 -5 -8 -7 -11 1 6 6
-5 -3 -3 -5 -6 -7 -8 -10 -11 -10 -10 -10 -9 -3 -1 3 4 5 8 9 10 11 11 10 10 8 11 12 12 11 11 11 9 8 8 8 8 8 10 11 5 -4 -7 -10 -13 -10 -4 5 6
-6 -4 -5 -5 -6 -7 -8 -9 -10 -10 -9 -10 -8 -8 -2 2 4 5 8 9 10 10 10 10 10 9 11 12 11 10 10 9 9 9 9 8 11 11 11 9 2 -6 -12 -14 -10 -9 -4 4 5
-5 -6 -6 -6 -7 -8 -9 -9 -8 -9 -10 -10 -11 -10 -3 0 4 5 7 9 9 10 10 11 10 9 11 11 9 9 9 11 10 10 10 9 9 10 11 7 -2 -5 -13 -12 -11 -11 -7 5 5
-5 -6 -6 -7 -8 -9 -9 -7 -6 -8 -9 -10 -11 -12 -4 -0 1 5 7 9 10 10 10 11 10 10 11 11 10 10 10 10 10 10 9 11 11 10 10 6 -1 -6 -10 -9 -10 -9 -2 5 5
-6 -6 -6 -6 -6 -7 -7 -6 -6 -7 -8 -9 -10 -11 -5 0 2 5 7 9 9 9 10 11 10 11 10 11 10 10 8 10 10 10 8 11 11 10 10 7 0 -5 -5 -7 -8 -9 -2 4 4
-4 -3 -4 -5 -6 -6 -6 -5 -6 -7 -7 -8 -9 -10 -2 1 2 5 7 10 9 10 10 10 10 11 10 10 11 10 8 9 10 9 9 10 11 10 10 6 1 -1 -1 -2 1 2 -2 5 4
-2 -3 -2 -4 -5 -5 -5 -3 -6 -6 -7 -7 -8 -7 -4 1 3 7 8 9 9 9 9 8 9 10 10 10 10 10 10 10 10 9 9 12 10 10 9 6 2 2 1 4 5 6 5 5 4
-1 1 -0 -2 -5 -4 -4 -3 -6 -7 -8 -6 -7 -6 -4 0 6 7 8 8 8 9 9 7 10 10 11 10 10 9 10 11 11 11 10 10 8 8 8 6 4 3 3 7 8 7 5 5 4
2 1 -1 -1 -3 -4 -4 -4 -6 -9 -9 -5 -4 -4 -3 1 6 7 8 8 8 9 7 7 10 10 10 10 10 10 10 10 11 10 11 11 10 10 7 5 5 6 5 7 8 7 5 4 4
-2 -1 -1 -3 -4 -4 -3 -3 -5 -8 -7 -6 -3 -4 -4 -2 7 7 8 8 8 7 5 8 10 10 10 9 10 10 10 10 10 11 11 9 10 9 6 6 8 8 7 7 7 7 5 5 4
-3 -2 -3 -5 -5 -4 -2 -1 -3 -6 -6 -6 -6 -7 -5 5 8 8 8 8 8 3 7 9 10 10 9 8 9 10 10 10 10 10 9 9 9 8 9 8 9 8 8 8 8 5 5 5 5
-8 -5 -3 -3 -3 -3 0 1 -2 -4 -6 -7 -7 -7 -4 5 9 9 8 8 6 3 8 9 9 9 9 8 10 10 10 10 10 10 10 9 8 9 9 8 7 8 9 8 7 6 4 4 4
-7 -9 -6 -4 -1 3 0 5 1 -2 -3 -5 -6 -6 -6 8 8 8 8 7 3 3 10 10 9 10 10 9 10 10 10 10 10 10 10 10 9 9 9 8 8 7 6 8 7 6 3 3 3
-7 -7 -7 -5 -2 1 2 4 1 -1 -0 -4 -6 -7 -6 6 6 7 7 6 3 3 10 10 9 9 9 9 10 10 10 10 10 10 10 10 9 9 9 8 5 8 8 8 6 4 4 4 5
-7 -5 -3 -4 0 5 4 3 2 1 -0 -3 -5 -6 -6 7 8 8 7 7 6 5 10 9 9 9 9 9 9 9 10 9 9 9 9 9 9 9 8 6 4 6 5 5 5 5 4 5 6
-6 -4 3 5 4 4 0 2 2 -0 -2 -3 -3 -4 -3 6 8 8 8 8 8 6 9 9 9 9 9 9 9 9 9 10 9 9 9 9 9 8 7 5 2 3 5 4 6 6 5 5 5
-3 -3 5 6 7 6 2 7 4 -0 -2 -4 -5 -3 1 7 7 7 7 8 7 7 7 9 9 9 9 9 9 9 9 9 10 10 9 9 8 7 6 3 4 3 3 3 6 6 5 5 4
-3 -1 -4 1 2 8 7 4 3 2 0 -0 -4 -2 5 6 7 7 7 7 6 7 7 7 9 9 9 9 9 9 8 8 8 9 9 7 6 5 4 4 4 4 5 5 6 5 5 5 4
-4 -4 -1 0 3 5 4 6 8 4 2 2 1 -2 2 5 6 7 7 6 6 6 7 7 8 9 9 9 9 9 8 9 8 8 8 6 5 4 4 5 4 5 4 4 5 6 6 6 6
-3 -3 -4 -1 2 4 4 4 5 4 3 2 0 -3 -2 5 5 5 6 6 6 6 7 5 8 8 8 9 9 9 8 9 8 7 6 6 5 5 4 4 4 3 4 4 4 4 4 6 6
-5 -5 -5 -0 -1 1 1 1 1 2 2 1 2 1 -4 -4 4 5 6 6 6 6 6 6 5 8 7 8 9 9 9 9 8 8 7 6 5 5 5 5 4 4 4 3 3 3 6 7 6

GFSSGP_850_dewp_105.txt.gz
Dewpoint
-16 -11 -10 -3 -2 -2 -1 -3 -6 -5 -4 -6 -6 -5 -6 -6 -6 -3 -1 1 -2 -3 -4 -5 -4 -2 10 9 9 8 7 6 5 6 9 12 12 12 11 10 9 7 5 6 8 9 9 10 11
-16 -11 -2 -3 -1 0 -2 -3 -4 -5 -6 -6 -6 -6 -4 1 2 4 3 3 0 -1 -1 -2 -4 -3 4 10 9 8 7 7 6 6 4 10 11 11 11 10 8 5 5 8 10 11 10 10 11
-14 -4 -0 -3 -0 1 -1 -4 -6 -7 -7 -7 -7 -7 -3 1 1 0 -0 2 0 -0 -1 -2 -2 -2 1 10 10 9 8 8 8 7 7 8 11 11 11 9 6 5 6 12 10 11 10 10 11
-9 -1 -1 -2 -0 -1 -2 -3 -4 -7 -8 -7 -8 -7 -4 -2 -1 -2 -2 -1 -2 -3 -3 -3 -1 1 3 10 11 10 10 8 8 9 9 8 11 10 6 4 7 10 7 12 11 9 10 11 10
-1 -2 -1 -1 -1 -3 -3 -4 -5 -7 -8 -7 -7 -6 -4 0 -0 -2 -2 -1 -1 -2 -2 -1 3 4 4 7 11 11 10 10 8 8 10 12 9 7 7 5 5 7 9 12 10 10 11 11 11
-4 -4 -1 0 -1 -4 -5 -6 -6 -6 -7 -8 -6 -4 -1 -1 -0 -2 -1 0 0 -1 -1 1 3 6 6 6 10 12 12 11 10 9 9 9 8 6 10 8 8 9 11 11 10 10 11 10 10
-3 -3 -2 -2 -3 -3 -5 -7 -6 -7 -8 -8 -7 1 3 -0 2 1 2 3 2 2 3 2 3 5 5 7 8 11 13 13 12 11 10 9 7 8 8 6 10 11 11 10 10 10 10 10 10
-3 -3 -2 -3 -2 -3 -6 -7 -8 -7 -9 -8 -8 3 5 -2 3 4 6 6 5 4 3 3 3 3 4 6 9 11 12 12 13 12 11 8 8 8 9 8 6 10 10 10 9 10 10 10 9
-2 -1 -0 -3 -4 -5 -6 -6 -7 -6 -9 -9 -9 -8 -6 -3 4 6 6 6 6 4 5 5 5 7 7 5 8 10 12 12 10 11 12 10 9 9 8 6 5 10 9 9 8 9 10 9 8
-3 -2 -1 -4 -6 -5 -5 -5 -5 -7 -7 -9 -10 -8 -6 -5 2 4 4 4 5 4 5 7 8 7 7 7 6 7 12 12 11 10 9 10 10 8 8 7 6 10 7 6 6 10 10 9 9
-4 -2 -4 -5 -5 -5 -5 -5 -5 -7 -6 -8 -9 -9 -2 0 2 3 2 3 2 4 6 8 10 8 8 8 7 8 10 12 12 11 10 10 9 9 9 7 7 9 8 5 6 10 10 10 7
-3 -5 -4 -4 -5 -5 -5 -6 -6 -7 -7 -7 -8 -9 -6 2 1 1 2 3 3 5 7 9 10 10 9 9 8 8 11 12 12 11 11 10 9 8 8 7 8 10 8 3 7 9 10 8 6
-2 -3 -4 -4 -4 -4 -5 -6 -6 -7 -7 -7 -8 -8 -7 -3 1 0 1 2 4 6 9 10 10 10 10 10 9 9 10 11 12 12 11 11 10 8 7 8 9 11 8 2 7 9 8 7 7
-3 -3 -3 -3 -3 -3 -5 -5 -6 -5 -5 -6 -7 -7 -7 -6 -3 1 2 3 5 6 8 10 11 10 10 10 10 10 11 11 11 11 11 11 10 9 8 8 8 5 9 1 7 10 6 7 7
-3 -2 -3 -3 -4 -4 -4 -4 -5 -5 -5 -6 -6 -6 -6 -6 -6 -3 -1 3 3 5 8 10 10 10 10 10 10 11 11 11 10 11 11 11 10 9 8 8 7 7 8 -0 8 9 6 6 6
-2 -1 1 -3 -4 -5 -5 -2 -4 -5 -5 -5 -5 -5 -5 -5 -6 -6 -2 2 3 7 8 10 10 9 10 9 9 10 11 11 11 9 10 10 10 9 9 8 8 8 7 -2 5 8 6 6 6
-1 1 0 -1 -3 -4 -4 -2 -5 -5 -5 -5 -4 -3 -6 -6 -6 -6 -3 2 4 7 9 9 8 8 8 7 10 11 10 10 9 10 10 10 10 10 9 10 9 9 6 -5 -2 6 6 6 6
-0 2 0 0 -2 -3 -2 -2 -4 -5 -5 -4 -3 -4 -5 -6 -8 -7 -1 3 6 8 9 8 7 5 7 8 10 10 11 10 10 11 10 10 10 10 11 10 9 10 -5 -8 -2 5 6 6 6
-3 -0 0 -1 -3 -3 -3 -3 -4 -6 -5 -3 -3 -4 -4 -5 -3 -1 2 6 8 9 9 8 6 3 8 7 9 9 11 10 11 11 10 10 10 10 11 9 9 7 -11 -9 -4 4 6 6 5
-1 -0 0 -1 -3 -3 -2 -2 -5 -5 -3 -3 -3 -3 -3 -4 -2 4 4 7 9 9 8 8 4 5 8 8 9 10 10 11 10 11 11 10 10 10 10 10 10 -3 -11 -8 -6 4 5 5 5
-8 -3 -2 -0 -2 -4 -4 -3 -5 -5 -3 -3 -2 -3 -3 -3 -4 1 6 7 9 9 8 7 3 7 8 8 9 10 10 10 10 10 11 10 10 10 11 10 6 -6 -9 -8 -4 5 4 4 5
-9 -10 -8 -6 -3 -1 -4 -1 -2 -2 -3 -3 -2 -2 -3 -3 -3 0 5 8 9 8 8 7 3 8 7 8 8 8 9 10 10 10 11 11 11 10 10 10 2 -7 -6 -5 -5 1 0 1 4
-9 -10 -9 -8 -6 -6 -6 2 -2 -1 0 -1 -3 -3 -3 -3 -3 0 2 6 9 8 8 5 4 8 8 8 7 8 9 9 10 10 10 10 10 10 10 9 0 -4 -1 2 3 6 4 3 2
-9 -8 -8 -6 -5 -1 -4 -1 -3 -2 -1 -1 -2 -3 -3 -3 -3 2 4 7 9 9 8 4 4 8 8 8 8 10 9 10 9 10 10 10 11 8 8 9 7 0 3 6 6 7 6 4 3
-6 -4 -0 2 4 1 -2 2 -2 -2 -2 -1 2 1 -1 -2 -2 3 5 6 9 8 8 3 6 8 8 8 8 9 9 10 10 10 10 10 9 9 8 8 8 4 4 7 8 7 7 5 4
-6 -4 1 2 4 3 1 3 0 -1 1 2 2 2 4 2 1 3 6 6 8 8 7 3 6 8 7 8 8 9 9 9 10 10 10 10 10 9 9 9 8 7 7 7 8 8 7 6 6
-6 -3 -6 -2 3 4 3 2 -0 2 3 3 3 3 3 9 9 8 9 9 8 8 5 1 6 7 7 8 8 8 9 9 9 9 10 10 10 9 9 8 7 7 7 8 7 6 8 6 6
-7 -6 -3 1 2 3 2 3 2 2 4 4 4 4 5 3 6 9 9 9 9 8 5 2 6 6 6 7 8 8 8 9 9 9 9 10 10 10 9 9 8 8 9 9 9 8 8 8 6
-6 -4 -2 -2 1 1 3 2 0 1 4 4 4 5 5 6 6 8 9 9 9 9 6 3 5 6 7 7 8 8 8 9 9 9 8 9 9 9 9 9 9 8 9 9 9 8 8 7 7
0 -5 -5 2 3 2 2 1 4 3 5 5 6 5 5 4 6 8 9 9 9 9 8 8 7 5 5 7 8 8 9 8 8 9 9 8 9 8 9 9 9 9 9 7 7 7 6 5 6